[[{"header":{"parameterUnit":"m.s-1","parameterCategory":1,"la1":30.6,"la2":29.2853,"lo1":-89.7004,"lo2":-87.6739,"dy":0.0162,"dx":0.0183,"nx":112,"ny":82,"refTime":"2023-05-31T12:00:00:Z","depth":0,"parameterNumber":2,"parameterNumberName":"U-component_of_WINDS"},"data":[0.0,0.0,0.0,0.0,0.0,0.0,0.0,0.0,0.0,0.0,0.0,0.0,0.0,0.0,0.0,0.0,0.0,0.0,0.0,0.0,0.0,0.0,0.0,0.0,0.0,0.0,0.0,0.0,0.0,0.0,0.0,0.0,0.0,0.0,0.0,0.0,0.0,0.0,0.0,0.0,0.0,0.0,0.0,0.0,0.0,0.0,0.0,0.0,0.0,0.0,0.0,0.0,0.0,0.0,0.0,0.0,0.0,0.0,0.0,0.0,0.0,0.0,0.0,0.0,0.0,0.0,0.0,0.0,0.0,0.0,0.0,0.0,0.0,0.0,0.0,0.0,0.0,0.0,0.0,0.0,0.0,0.0,0.0,0.0,0.0,0.0,0.0,0.0,0.0,0.0,0.0,3.2169,3.2934,3.3372,3.3396,3.2832,3.2622,3.3036,0.0,0.0,0.0,0.0,0.0,0.0,0.0,0.0,0.0,0.0,0.0,0.0,0.0,0.0,0.0,0.0,0.0,0.0,0.0,0.0,0.0,0.0,0.0,0.0,0.0,0.0,0.0,0.0,0.0,0.0,0.0,0.0,0.0,0.0,0.0,0.0,0.0,0.0,0.0,0.0,0.0,0.0,0.0,0.0,0.0,0.0,0.0,0.0,0.0,0.0,0.0,0.0,0.0,0.0,0.0,0.0,0.0,0.0,0.0,0.0,0.0,0.0,0.0,0.0,0.0,0.0,0.0,0.0,0.0,0.0,0.0,0.0,0.0,0.0,0.0,0.0,0.0,0.0,0.0,0.0,0.0,0.0,0.0,0.0,0.0,0.0,0.0,0.0,0.0,0.0,0.0,0.0,0.0,0.0,0.0,0.0,0.0,0.0,0.0,0.0,0.0,0.0,0.0,0.0,3.277,3.2914,3.316,3.3355,3.3389,3.3313,3.3393,3.3795,0.0,0.0,0.0,0.0,0.0,0.0,0.0,0.0,0.0,0.0,0.0,0.0,0.0,0.0,0.0,0.0,0.0,0.0,0.0,0.0,0.0,0.0,0.0,0.0,0.0,0.0,0.0,0.0,0.0,0.0,0.0,0.0,0.0,0.0,0.0,0.0,0.0,0.0,0.0,0.0,0.0,0.0,0.0,0.0,0.0,0.0,0.0,0.0,0.0,0.0,0.0,0.0,0.0,0.0,0.0,0.0,0.0,0.0,0.0,0.0,0.0,0.0,0.0,0.0,0.0,0.0,0.0,0.0,0.0,0.0,0.0,0.0,0.0,0.0,0.0,0.0,0.0,0.0,0.0,0.0,0.0,0.0,0.0,0.0,0.0,0.0,0.0,0.0,0.0,0.0,0.0,0.0,0.0,0.0,0.0,0.0,0.0,0.0,0.0,0.0,0.0,0.0,0.0,3.3215,3.3789,3.3684,3.4229,3.458,3.4607,3.425,3.4242,3.4874,3.3533,0.0,0.0,0.0,0.0,0.0,0.0,0.0,0.0,0.0,0.0,0.0,0.0,0.0,0.0,0.0,0.0,0.0,0.0,0.0,0.0,0.0,0.0,0.0,0.0,0.0,0.0,0.0,0.0,0.0,0.0,0.0,0.0,0.0,0.0,0.0,0.0,0.0,0.0,0.0,0.0,0.0,0.0,0.0,0.0,0.0,0.0,0.0,0.0,0.0,0.0,0.0,0.0,0.0,0.0,0.0,0.0,0.0,0.0,0.0,0.0,0.0,0.0,0.0,0.0,0.0,0.0,0.0,0.0,0.0,0.0,0.0,0.0,0.0,0.0,0.0,0.0,0.0,0.0,0.0,0.0,0.0,0.0,0.0,0.0,0.0,0.0,0.0,0.0,0.0,0.0,0.0,0.0,0.0,0.0,0.0,0.0,0.0,0.0,0.0,0.0,0.0,0.0,3.413,3.4589,3.4482,3.515,3.5622,3.5622,3.5099,3.5116,3.5921,3.4979,0.0,0.0,0.0,0.0,0.0,0.0,0.0,0.0,0.0,0.0,0.0,0.0,0.0,0.0,0.0,0.0,0.0,0.0,0.0,0.0,0.0,0.0,0.0,0.0,0.0,0.0,0.0,0.0,0.0,0.0,0.0,0.0,0.0,0.0,0.0,0.0,0.0,0.0,0.0,0.0,0.0,0.0,0.0,0.0,0.0,0.0,0.0,0.0,0.0,0.0,0.0,0.0,0.0,0.0,0.0,0.0,0.0,0.0,0.0,0.0,0.0,0.0,0.0,0.0,0.0,0.0,0.0,0.0,0.0,0.0,0.0,0.0,0.0,0.0,0.0,0.0,0.0,0.0,0.0,0.0,0.0,0.0,0.0,0.0,0.0,0.0,0.0,0.0,0.0,0.0,0.0,0.0,0.0,0.0,0.0,0.0,0.0,0.0,0.0,0.0,0.0,0.0,3.5191,3.5224,3.5207,3.547,3.5622,3.5622,3.5543,3.5887,3.6757,3.6048,0.0,0.0,0.0,0.0,0.0,0.0,0.0,0.0,0.0,0.0,0.0,0.0,0.0,0.0,0.0,0.0,0.0,0.0,0.0,0.0,0.0,0.0,0.0,0.0,0.0,0.0,0.0,0.0,0.0,0.0,0.0,0.0,0.0,0.0,0.0,0.0,0.0,0.0,0.0,0.0,0.0,0.0,0.0,0.0,0.0,0.0,0.0,0.0,0.0,0.0,0.0,0.0,0.0,0.0,0.0,0.0,0.0,0.0,0.0,0.0,0.0,0.0,0.0,0.0,0.0,0.0,0.0,0.0,0.0,0.0,0.0,0.0,0.0,0.0,0.0,0.0,0.0,0.0,0.0,0.0,0.0,0.0,0.0,0.0,0.0,0.0,0.0,0.0,0.0,0.0,0.0,0.0,0.0,0.0,0.0,0.0,0.0,0.0,0.0,0.0,0.0,0.0,3.5383,3.54,0.0,3.5503,3.5622,3.5622,3.5622,3.5983,3.6825,0.0,0.0,0.0,0.0,0.0,0.0,0.0,0.0,0.0,0.0,0.0,0.0,0.0,0.0,0.0,0.0,0.0,0.0,0.0,0.0,0.0,0.0,0.0,0.0,0.0,0.0,0.0,0.0,0.0,0.0,0.0,0.0,0.0,0.0,0.0,0.0,0.0,0.0,0.0,0.0,0.0,0.0,0.0,0.0,0.0,0.0,0.0,0.0,0.0,0.0,0.0,0.0,0.0,0.0,0.0,0.0,0.0,0.0,0.0,0.0,0.0,0.0,0.0,0.0,0.0,0.0,0.0,0.0,0.0,0.0,0.0,0.0,0.0,0.0,0.0,0.0,0.0,0.0,0.0,0.0,0.0,0.0,0.0,0.0,0.0,0.0,0.0,0.0,0.0,0.0,0.0,0.0,0.0,0.0,0.0,0.0,0.0,0.0,0.0,0.0,0.0,0.0,3.5291,3.54,3.54,0.0,3.5588,3.5749,3.5622,3.5723,3.6101,3.6842,0.0,0.0,0.0,0.0,0.0,0.0,0.0,0.0,0.0,0.0,0.0,0.0,0.0,0.0,0.0,0.0,0.0,0.0,0.0,0.0,0.0,0.0,0.0,0.0,0.0,0.0,0.0,0.0,0.0,0.0,0.0,0.0,0.0,0.0,0.0,0.0,0.0,0.0,0.0,0.0,0.0,0.0,0.0,0.0,0.0,0.0,0.0,0.0,0.0,0.0,0.0,0.0,0.0,0.0,0.0,0.0,0.0,0.0,0.0,0.0,0.0,0.0,0.0,0.0,0.0,0.0,0.0,0.0,0.0,0.0,0.0,0.0,0.0,0.0,0.0,0.0,0.0,0.0,0.0,0.0,0.0,0.0,0.0,0.0,0.0,0.0,0.0,0.0,0.0,0.0,0.0,0.0,0.0,0.0,0.0,0.0,0.0,0.0,0.0,0.0,0.0,0.0,3.5291,3.5291,3.5291,3.5291,3.5916,3.6096,3.5667,3.6034,3.6463,0.0,0.0,0.0,0.0,0.0,0.0,0.0,0.0,0.0,0.0,0.0,0.0,0.0,0.0,0.0,0.0,0.0,0.0,0.0,0.0,0.0,0.0,0.0,0.0,0.0,0.0,0.0,0.0,0.0,0.0,0.0,0.0,0.0,0.0,0.0,0.0,0.0,0.0,0.0,0.0,0.0,0.0,0.0,0.0,0.0,0.0,0.0,0.0,0.0,0.0,0.0,0.0,0.0,0.0,0.0,0.0,0.0,0.0,0.0,0.0,0.0,0.0,0.0,0.0,0.0,0.0,0.0,0.0,0.0,0.0,0.0,0.0,0.0,0.0,0.0,0.0,0.0,0.0,0.0,0.0,0.0,0.0,0.0,0.0,0.0,0.0,0.0,0.0,0.0,0.0,0.0,0.0,0.0,0.0,0.0,0.0,0.0,0.0,0.0,0.0,0.0,0.0,0.0,0.0,3.5291,3.5308,3.5312,3.5887,3.6256,3.6129,3.6214,3.6627,3.7404,0.0,0.0,0.0,0.0,0.0,0.0,0.0,0.0,0.0,0.0,0.0,0.0,0.0,0.0,0.0,0.0,0.0,0.0,0.0,0.0,0.0,0.0,0.0,0.0,0.0,0.0,0.0,0.0,0.0,0.0,0.0,0.0,0.0,0.0,0.0,0.0,0.0,0.0,0.0,0.0,0.0,0.0,0.0,0.0,0.0,0.0,0.0,0.0,0.0,0.0,0.0,0.0,0.0,0.0,0.0,0.0,0.0,0.0,0.0,0.0,0.0,0.0,0.0,0.0,0.0,0.0,0.0,0.0,0.0,0.0,0.0,0.0,0.0,0.0,0.0,0.0,0.0,0.0,0.0,0.0,0.0,0.0,0.0,0.0,0.0,0.0,0.0,0.0,0.0,0.0,0.0,0.0,0.0,0.0,0.0,0.0,0.0,0.0,0.0,0.0,0.0,0.0,3.5532,3.5412,3.5325,3.5282,3.5898,3.63,3.631,3.6318,3.6599,3.7346,0.0,0.0,0.0,0.0,0.0,0.0,0.0,0.0,0.0,0.0,0.0,0.0,0.0,0.0,0.0,0.0,0.0,0.0,0.0,0.0,0.0,0.0,0.0,0.0,0.0,0.0,0.0,0.0,0.0,0.0,0.0,0.0,0.0,0.0,0.0,0.0,0.0,0.0,0.0,0.0,0.0,0.0,0.0,0.0,0.0,0.0,0.0,0.0,0.0,0.0,0.0,0.0,0.0,0.0,0.0,0.0,0.0,0.0,0.0,0.0,0.0,0.0,0.0,0.0,0.0,0.0,0.0,0.0,0.0,0.0,0.0,0.0,0.0,0.0,0.0,0.0,0.0,0.0,0.0,0.0,0.0,0.0,0.0,0.0,0.0,0.0,0.0,0.0,0.0,0.0,0.0,0.0,0.0,0.0,0.0,0.0,0.0,0.0,0.0,0.0,0.0,0.0,3.5864,3.556,3.5308,3.5328,3.5915,3.6319,3.6293,3.6312,3.6502,3.6908,0.0,0.0,0.0,0.0,0.0,0.0,0.0,0.0,0.0,0.0,0.0,0.0,0.0,0.0,0.0,0.0,0.0,0.0,0.0,0.0,0.0,0.0,0.0,0.0,0.0,0.0,0.0,0.0,0.0,0.0,0.0,0.0,0.0,0.0,0.0,0.0,0.0,0.0,0.0,0.0,0.0,0.0,0.0,0.0,0.0,0.0,0.0,0.0,0.0,0.0,0.0,0.0,0.0,0.0,0.0,0.0,0.0,0.0,0.0,0.0,3.2222,0.0,0.0,0.0,0.0,0.0,0.0,0.0,0.0,0.0,0.0,0.0,0.0,0.0,0.0,0.0,0.0,0.0,0.0,0.0,0.0,0.0,0.0,0.0,0.0,0.0,0.0,0.0,0.0,0.0,0.0,0.0,0.0,0.0,0.0,0.0,0.0,0.0,0.0,0.0,0.0,0.0,3.6054,3.5605,3.5354,3.545,3.6231,3.6659,3.6344,3.66,3.6841,3.696,0.0,0.0,0.0,0.0,0.0,0.0,0.0,0.0,0.0,0.0,0.0,0.0,0.0,0.0,0.0,0.0,0.0,0.0,0.0,0.0,0.0,0.0,0.0,0.0,0.0,0.0,0.0,0.0,0.0,0.0,0.0,0.0,0.0,0.0,0.0,0.0,0.0,0.0,0.0,0.0,0.0,0.0,0.0,0.0,0.0,0.0,0.0,0.0,0.0,0.0,0.0,0.0,0.0,0.0,0.0,0.0,0.0,0.0,0.0,0.0,0.0,3.3282,0.0,0.0,0.0,0.0,0.0,0.0,0.0,0.0,0.0,0.0,0.0,0.0,0.0,0.0,0.0,0.0,0.0,0.0,0.0,0.0,0.0,0.0,0.0,0.0,0.0,0.0,0.0,0.0,0.0,0.0,0.0,0.0,0.0,0.0,0.0,0.0,0.0,0.0,0.0,0.0,3.6357,3.5722,3.5354,3.5496,3.596,3.6285,3.6317,3.6274,3.64,3.6638,3.6429,0.0,0.0,0.0,0.0,0.0,0.0,0.0,0.0,0.0,0.0,0.0,0.0,0.0,0.0,0.0,0.0,0.0,0.0,0.0,0.0,0.0,0.0,0.0,0.0,0.0,0.0,0.0,0.0,0.0,0.0,0.0,0.0,0.0,0.0,0.0,0.0,0.0,0.0,0.0,0.0,0.0,0.0,0.0,0.0,0.0,0.0,0.0,0.0,0.0,0.0,0.0,0.0,0.0,3.4978,3.5137,3.519,3.5679,3.583,3.5614,3.4853,3.4278,3.3887,0.0,0.0,0.0,0.0,0.0,0.0,0.0,0.0,0.0,0.0,0.0,0.0,0.0,0.0,0.0,0.0,0.0,0.0,0.0,0.0,0.0,0.0,0.0,0.0,0.0,3.3355,3.3077,0.0,0.0,0.0,0.0,0.0,0.0,0.0,0.0,0.0,0.0,0.0,0.0,3.6795,3.6161,3.574,3.5912,3.6033,3.6225,3.6541,3.6271,3.6197,3.6395,3.6395,3.6265,0.0,0.0,0.0,0.0,0.0,0.0,0.0,0.0,0.0,0.0,0.0,0.0,0.0,0.0,0.0,0.0,0.0,0.0,0.0,0.0,0.0,0.0,0.0,0.0,0.0,0.0,0.0,0.0,0.0,0.0,0.0,0.0,3.2369,3.2734,0.0,0.0,0.0,0.0,0.0,0.0,0.0,0.0,0.0,0.0,0.0,0.0,0.0,3.5086,3.5043,3.494,3.4906,3.503,3.5252,3.536,3.5378,3.6099,3.6387,3.6354,3.6249,0.0,3.5557,3.5487,0.0,0.0,0.0,0.0,0.0,0.0,0.0,0.0,0.0,0.0,0.0,0.0,0.0,0.0,0.0,0.0,0.0,0.0,0.0,0.0,0.0,0.0,3.2633,3.3039,3.3339,3.3598,0.0,3.4594,3.5041,3.5088,3.5198,0.0,0.0,0.0,0.0,0.0,0.0,0.0,3.7318,3.7267,3.7314,3.757,3.7925,3.7986,3.7724,3.7937,3.7734,3.6791,3.674,3.6395,3.5622,3.5572,0.0,0.0,0.0,0.0,0.0,0.0,0.0,0.0,0.0,0.0,0.0,0.0,0.0,0.0,0.0,0.0,0.0,0.0,0.0,0.0,0.0,0.0,0.0,0.0,0.0,0.0,0.0,0.0,0.0,3.2651,3.3032,3.3001,3.3291,3.3652,0.0,0.0,0.0,0.0,0.0,0.0,0.0,0.0,0.0,3.5562,3.5501,3.5518,3.5634,3.5562,3.5701,3.6143,3.6425,3.6567,3.6584,3.718,3.7303,3.7041,3.6985,3.6711,3.634,3.6155,3.6197,3.6364,0.0,0.0,0.0,0.0,3.5436,3.4529,3.3531,3.3166,0.0,0.0,0.0,0.0,0.0,0.0,0.0,0.0,0.0,0.0,0.0,0.0,0.0,3.3543,3.3665,3.3965,3.4955,3.5415,3.5492,0.0,3.5333,3.5793,3.6256,0.0,0.0,0.0,0.0,0.0,3.7892,3.7729,3.7696,3.7858,3.8068,3.8112,3.7921,3.8069,3.7976,3.7458,3.7398,3.699,3.6034,3.6085,3.5847,0.0,0.0,0.0,0.0,0.0,0.0,0.0,0.0,0.0,0.0,0.0,0.0,0.0,0.0,0.0,0.0,0.0,0.0,0.0,0.0,0.0,0.0,0.0,0.0,0.0,0.0,0.0,0.0,3.3291,3.364,3.3521,3.3898,3.433,0.0,0.0,0.0,0.0,0.0,0.0,3.6597,3.6538,3.6395,3.6208,3.6113,3.6164,3.636,3.6395,3.6697,3.7226,3.7523,3.7667,3.7667,3.8054,3.802,3.7685,3.7792,3.7587,3.7128,3.6557,3.6138,3.5942,3.613,3.6002,3.5698,3.5644,3.5341,3.4808,3.3646,3.3401,3.3466,3.2884,0.0,3.3177,3.3612,0.0,0.0,0.0,0.0,3.53,3.472,3.4586,3.4637,3.4837,3.4755,3.4935,3.6042,3.6405,3.6287,0.0,3.5887,3.6338,3.6766,0.0,0.0,0.0,0.0,3.8499,3.847,3.8343,3.8301,3.8464,3.8464,3.8464,3.8464,3.8464,3.8368,3.8187,3.8173,3.7733,3.6738,3.6801,3.6346,3.5407,0.0,0.0,0.0,0.0,0.0,0.0,0.0,0.0,0.0,0.0,0.0,0.0,0.0,0.0,0.0,0.0,0.0,0.0,0.0,0.0,0.0,0.0,0.0,0.0,0.0,0.0,0.0,0.0,0.0,3.429,3.5038,0.0,0.0,0.0,0.0,3.6258,3.6352,3.6701,3.7415,3.7143,3.721,3.7767,3.7718,3.7649,3.7596,3.7913,3.8104,3.814,3.8158,3.814,3.8192,3.8192,3.8192,3.8228,3.8954,3.896,3.8277,3.649,3.6011,3.6429,3.5942,3.5698,3.5698,3.5698,3.5736,3.5629,3.504,3.5145,3.5543,3.4958,3.5237,3.583,3.583,3.6356,0.0,0.0,3.6356,3.6664,3.606,3.6303,3.6783,3.6901,3.6936,3.6952,3.7036,3.7433,3.7641,0.0,3.7003,3.7219,3.7716,0.0,3.7955,3.8277,3.8772,3.9095,3.8969,3.9446,3.9834,3.9969,3.9969,3.9969,3.9969,3.9969,3.9699,3.8992,3.8925,3.8472,3.7486,3.748,3.704,3.6148,3.6083,0.0,0.0,0.0,0.0,0.0,0.0,0.0,0.0,0.0,0.0,0.0,0.0,0.0,0.0,0.0,0.0,0.0,0.0,0.0,0.0,0.0,0.0,0.0,0.0,0.0,0.0,0.0,0.0,3.5478,3.5733,0.0,0.0,3.684,3.7124,3.7258,3.7632,3.8003,3.8248,3.8156,3.8154,3.8263,3.8234,3.8153,3.8088,3.8699,3.8952,3.8971,3.9441,3.9677,3.9677,3.9677,3.9677,3.9695,3.9985,3.9986,3.9733,3.8687,3.7947,3.7442,3.7234,3.6945,3.6616,3.6616,3.6555,3.6436,3.5837,3.5771,3.5873,3.5379,3.5324,3.5561,3.5889,3.6157,3.6401,3.6522,3.683,3.7001,3.6746,3.6882,3.7051,3.7102,3.7102,3.7235,3.7715,3.7951,3.817,3.8463,3.8003,3.766,3.7882,3.8162,3.8451,3.8832,3.9401,3.9714,3.9598,3.9817,4.0037,4.007,4.007,4.007,4.007,4.007,4.0003,3.975,3.9733,3.9244,3.8254,3.8202,3.7731,3.6798,3.6406,3.5909,0.0,0.0,0.0,0.0,0.0,0.0,0.0,0.0,0.0,0.0,0.0,0.0,0.0,0.0,0.0,0.0,0.0,0.0,0.0,0.0,0.0,0.0,0.0,0.0,0.0,0.0,3.6444,3.6564,3.6783,3.6989,3.7295,3.7669,3.7971,3.8089,3.8479,3.8817,3.9093,3.9093,3.9171,3.9315,3.9217,3.9188,3.9107,3.9549,3.9767,3.9786,4.0274,4.051,4.051,4.051,4.051,4.0528,4.08,4.0908,4.0908,4.0809,4.0229,3.9271,3.8545,3.7882,3.7352,3.7352,3.7336,3.7294,3.7159,3.7118,3.7064,3.6793,3.6683,3.6628,3.701,3.7118,3.7171,3.7607,3.7779,3.7831,3.7831,3.7831,3.7831,3.7831,3.7831,3.798,3.8477,3.8576,3.8709,3.9189,3.8806,3.8369,3.8419,3.8724,3.9093,3.96,3.9881,4.007,4.0171,4.0121,4.007,4.007,4.007,4.007,4.007,4.0239,4.0256,4.0087,4.0239,3.9952,3.9009,3.8999,3.8599,3.7556,3.6502,3.5991,3.6026,0.0,0.0,0.0,0.0,0.0,0.0,0.0,0.0,0.0,0.0,0.0,0.0,0.0,0.0,0.0,0.0,0.0,0.0,0.0,0.0,0.0,0.0,0.0,3.6376,3.6772,3.7314,3.7514,3.8114,3.8559,3.8707,3.8726,3.8744,3.8744,3.8762,3.9129,3.99,3.9968,4.0235,4.087,4.0842,4.0773,4.0688,4.0582,4.0546,4.0546,4.0564,4.0582,4.0582,4.0582,4.0582,4.0637,4.1415,4.1759,4.1814,4.2574,4.2559,4.1837,3.9703,3.847,3.7851,3.7851,3.8052,3.8344,3.9023,3.9272,3.9272,3.9272,3.9272,3.9272,3.9272,3.9272,3.9272,3.9272,3.9272,3.9272,3.9272,3.9272,3.9272,3.9272,3.9272,3.9272,3.9272,3.9272,3.9272,3.9272,3.9325,3.9325,3.9501,3.9501,3.9764,4.0497,4.0204,0.0,4.0707,4.0402,4.0138,4.0121,4.0121,4.0121,4.0121,4.0544,4.0595,4.0104,4.0544,4.0442,3.975,3.9792,3.9425,3.841,3.6546,3.577,3.6099,0.0,0.0,0.0,0.0,0.0,0.0,0.0,0.0,0.0,0.0,0.0,0.0,0.0,0.0,0.0,0.0,0.0,0.0,0.0,0.0,0.0,0.0,3.8143,3.7754,3.7895,3.8086,3.8136,3.8431,3.8658,3.8707,3.9239,3.957,3.957,4.012,4.0543,4.0763,4.096,4.1021,4.0961,4.1089,4.1005,4.0688,4.1144,4.1379,4.1397,4.1959,4.223,4.223,4.223,4.223,4.2248,4.2466,4.2574,4.2592,4.281,4.2768,4.2498,4.1493,4.0461,3.9508,3.9508,3.9295,3.9007,3.9206,3.9272,3.9272,3.9272,3.9272,3.9272,3.9272,3.9272,3.9272,3.9272,3.9272,3.9272,3.9272,3.9272,3.9272,3.9272,3.9272,3.9272,3.9272,3.9272,3.9272,3.9272,3.9379,3.9448,3.9501,3.959,3.9729,4.007,4.0087,0.0,4.0254,4.0171,4.0221,4.058,4.0628,4.0628,4.0628,4.0743,4.0605,4.0118,4.0229,4.0087,3.975,3.9742,3.9325,3.8319,3.7277,3.6585,0.0,0.0,0.0,0.0,0.0,0.0,0.0,0.0,0.0,0.0,0.0,0.0,0.0,0.0,0.0,0.0,0.0,0.0,0.0,0.0,0.0,0.0,3.8289,3.8368,3.8694,3.8554,3.8415,3.8446,3.8989,3.9319,3.9203,4.0159,4.0711,4.0591,4.1126,4.1623,4.1976,4.2135,4.2344,4.2662,4.2807,4.2809,4.2686,4.3122,4.3264,4.3226,4.3679,4.3896,4.3878,4.3552,4.3389,0.0,4.3045,4.2882,4.2882,4.2882,4.2862,0.0,0.0,0.0,0.0,0.0,3.9696,3.9395,3.9325,3.9272,3.9272,3.9272,3.9272,3.9272,3.9272,3.9272,3.9272,3.9272,3.9272,3.9272,3.9272,3.9272,3.9272,3.9272,3.9272,3.9272,3.9272,3.9272,3.9325,3.9379,3.9448,0.0,3.9642,3.9746,3.9884,4.0221,4.0171,4.0171,4.0353,4.0221,4.0221,4.0483,4.0483,4.0483,4.0483,4.0694,0.0,0.0,0.0,4.012,3.9747,3.9671,0.0,0.0,0.0,3.7536,3.717,0.0,0.0,0.0,3.3619,3.3262,0.0,0.0,0.0,0.0,0.0,0.0,0.0,0.0,0.0,0.0,0.0,0.0,0.0,0.0,0.0,0.0,3.854,3.8816,3.9474,3.913,3.8797,3.8797,3.9801,4.0391,4.0167,4.1306,4.2004,4.1827,4.2164,4.2731,4.3584,0.0,0.0,0.0,0.0,4.5582,4.5856,4.5797,4.57,4.5562,4.5562,4.5562,4.5544,4.482,4.4512,4.4458,4.3643,4.3299,4.3281,4.3099,4.2973,4.2862,4.2591,4.1906,4.0984,3.9901,3.9501,3.9501,3.9325,0.0,0.0,3.9272,3.9272,3.9272,3.9272,3.9272,3.9272,3.9272,3.9272,3.9272,3.9272,3.9272,3.9272,3.9272,3.9272,3.9272,3.9272,3.9325,3.9379,3.9501,3.9501,3.959,3.9849,3.9901,4.0087,4.0628,4.0353,4.0254,4.0676,4.0353,4.0121,4.0171,0.0,0.0,4.0171,4.056,4.0611,4.0104,4.0323,4.0249,3.9714,3.9561,3.9425,3.9375,3.8795,3.8357,3.8203,3.7033,3.6205,3.5641,3.5378,3.4847,0.0,0.0,0.0,0.0,0.0,0.0,0.0,0.0,0.0,0.0,0.0,0.0,0.0,0.0,0.0,3.9694,4.032,4.0812,4.0694,4.0959,4.1033,4.0794,4.1249,4.1584,4.1584,4.2184,4.293,4.3783,4.4304,4.5051,4.6139,4.7068,0.0,4.7582,4.8097,4.8248,4.7997,4.7615,4.737,4.7246,0.0,0.0,4.7228,4.7083,4.7011,4.6975,4.616,4.5798,4.5707,4.4403,4.3459,4.2727,4.1888,4.1437,4.1122,3.9952,3.9501,3.9501,3.9325,3.9272,3.9272,3.9272,3.9272,3.9272,3.9272,3.9272,0.0,3.9272,3.9272,3.9272,3.9272,3.9272,3.9272,3.9272,3.9272,3.9272,3.9272,3.9379,3.9448,3.9501,3.959,3.9729,3.9901,3.9901,4.0003,4.0221,4.0171,4.0121,4.0204,4.0171,4.0271,4.0611,4.0659,4.0659,4.0659,4.0728,4.0568,3.9986,3.9809,3.9648,3.9561,3.9408,3.9069,3.8513,3.8407,3.8072,3.7578,3.7302,3.7164,3.7014,3.5884,3.5002,0.0,0.0,0.0,0.0,0.0,0.0,0.0,0.0,0.0,0.0,0.0,3.997,0.0,0.0,4.1297,4.0759,4.1152,4.159,4.1816,4.2248,4.2304,4.164,4.2254,4.2869,4.3179,4.4056,4.5134,4.6399,4.6909,4.7594,4.856,4.9144,4.9485,4.9598,4.9734,4.9769,4.9769,4.9299,4.9004,4.8894,4.8496,4.8315,4.8279,4.7482,4.7102,4.7065,4.625,4.5906,4.5834,4.5037,4.4418,4.3996,4.3248,4.229,4.1248,4.0269,3.9816,3.959,3.9379,3.952,3.9769,3.9404,3.952,3.9752,3.9388,3.9272,3.9272,3.9272,3.9272,3.9272,3.9272,3.9272,3.9272,3.9272,3.9272,3.9272,3.9272,3.9395,3.9501,3.959,3.9694,3.9833,3.9986,3.9986,4.0037,4.007,4.007,4.007,4.007,4.007,4.0171,4.0434,4.0434,4.0434,4.0353,4.0286,4.0104,3.9746,3.959,3.9448,3.9392,3.9358,3.9156,3.8817,3.881,3.8632,3.8383,3.8383,3.8197,3.7863,3.7526,3.6838,0.0,0.0,0.0,0.0,0.0,0.0,0.0,0.0,3.9974,4.0097,4.065,4.1098,4.1048,4.1795,4.2284,4.1904,4.2034,4.2352,4.2936,4.3538,4.3585,4.2769,4.3542,4.4459,4.5213,4.6239,4.7505,4.9055,4.9352,4.9849,5.0718,5.0928,5.1186,5.1557,5.1343,5.1218,5.1228,5.079,5.0416,5.0071,4.9438,4.9148,4.9094,4.779,4.7192,4.7156,4.6359,4.5816,4.5526,4.5526,4.5436,4.5251,4.4887,4.3632,4.1946,4.1263,4.0662,4.0201,3.9954,4.0192,4.0481,3.9885,4.01,4.0464,3.9868,3.9686,3.9686,3.9686,3.9794,3.9884,3.9884,3.9884,3.9884,3.9884,3.9794,3.9686,3.9757,3.9864,4.0024,4.0165,4.027,4.0373,4.051,4.051,4.0409,4.0121,4.007,4.007,4.007,4.007,4.007,4.007,4.007,4.0037,3.9901,3.9781,3.9625,3.9504,3.9506,3.9385,3.9325,3.9272,3.9272,3.9272,3.9272,3.9272,3.9272,3.9272,3.9023,3.8535,3.9023,3.8678,4.1046,4.0971,0.0,4.0617,4.053,4.0339,0.0,0.0,4.0659,4.0344,4.1124,4.1863,4.1882,4.2775,4.341,4.3069,4.3875,4.4436,4.4233,4.5217,4.5911,4.5816,4.5965,4.672,4.8324,4.8313,4.9026,5.1015,5.0935,5.125,5.238,5.3162,5.362,5.3663,5.3959,5.3597,5.2418,5.2059,5.1302,5.009,4.9999,4.9963,4.9945,4.9764,4.9691,4.9637,4.8858,4.7699,4.6377,4.6377,4.5943,4.5291,4.5251,4.4821,4.4173,4.3413,4.2752,4.2191,4.2016,4.1636,4.1276,4.1193,4.1226,4.1276,4.1193,4.1177,4.1177,4.1177,4.1531,4.1946,4.1946,4.1946,4.1946,4.1946,4.1548,4.1233,4.1361,4.1543,4.1653,4.1799,4.1853,4.1907,4.2049,4.1943,4.1452,4.0273,4.007,4.007,4.007,4.007,4.007,4.007,4.007,4.0037,3.9901,3.9781,3.9625,3.9504,3.9415,3.9325,3.9272,3.9272,3.9272,3.9272,3.9272,3.9272,3.9272,3.9272,3.9272,3.9202,3.9272,3.8898,4.1006,0.0,0.0,0.0,4.131,4.1215,4.1512,4.1592,4.1588,4.1538,4.2145,4.2754,4.2944,4.3742,4.4359,0.0,4.4594,4.5016,4.5387,4.5937,4.6833,4.8226,4.8447,4.8802,4.9562,4.9955,5.0916,5.276,5.2775,5.309,5.4036,5.4444,5.4626,5.4571,5.3836,5.3136,5.253,5.1448,5.066,5.0071,4.9619,4.9401,4.9383,4.8931,4.8695,4.8677,4.8351,4.7826,4.721,4.721,4.7011,4.6703,4.6703,4.6458,4.597,4.4456,4.3563,4.3011,4.2499,4.2432,4.2517,4.2081,4.2232,4.2555,4.239,4.2413,4.2413,4.2413,4.2325,4.2306,4.2306,4.2306,4.2252,4.2017,4.2001,4.1984,4.1871,4.1942,4.2051,4.2105,4.2142,4.2233,4.2286,4.2233,4.2047,4.1457,4.1373,4.1373,4.1373,4.1373,4.1373,4.1373,4.0932,4.0627,4.0523,3.9929,3.9554,3.9498,3.9358,3.9272,3.9272,3.9272,3.9272,3.9272,3.9272,3.9272,3.9272,3.9272,3.9272,3.9272,3.9272,3.9148,4.1665,0.0,0.0,4.2296,4.2267,4.2241,4.2791,4.2794,4.2673,4.2754,4.3234,4.3724,4.3999,4.4516,4.4895,4.4895,4.4895,4.5198,4.607,4.6442,4.741,4.966,5.0342,5.0776,5.1057,5.1646,5.2642,5.4096,5.421,5.4476,5.5047,5.5066,5.4943,5.4677,5.3405,5.247,5.1862,5.0556,4.9767,4.942,4.8858,4.8586,4.8568,4.7989,4.7717,4.7717,4.7717,4.7717,4.7717,4.7717,4.7717,4.7717,4.7717,4.7572,4.7219,4.5668,4.4728,4.4178,4.358,4.3645,4.379,4.3155,4.325,4.3627,4.3318,4.3235,4.3235,4.3235,4.32,4.3112,4.3112,4.327,4.3287,4.2824,4.2915,4.3022,4.2623,4.2639,4.2711,4.2766,4.2875,4.2912,4.2912,4.2912,4.2912,4.2912,4.2912,4.276,4.2337,4.2286,4.2286,4.2286,4.176,4.1334,4.1298,4.0467,3.9871,3.9831,3.9528,3.9325,3.9272,3.9272,3.9272,3.9272,3.9272,3.9272,3.9272,3.9272,3.9272,3.9272,3.9272,3.9272,4.352,0.0,4.3471,4.3313,4.3294,4.3218,4.2811,4.3408,4.3962,4.3696,4.4289,4.4857,4.4857,4.4876,4.4895,4.4895,4.4895,4.5198,4.607,4.6866,4.7984,4.969,5.1338,5.2665,0.0,5.3613,5.4002,5.4905,5.4962,5.4981,5.5,5.5,5.4639,5.386,5.334,5.2154,5.0207,4.9749,4.8934,4.7772,4.7753,4.7753,4.7753,4.7717,4.7717,4.7717,4.7717,4.7717,4.7717,4.7717,4.7717,4.7717,4.7717,4.7717,4.7657,4.7309,4.6717,4.6116,4.6116,4.5681,4.5163,4.4584,4.4451,4.4356,4.3781,4.3604,4.3604,4.3604,4.4345,4.5181,4.5181,4.5613,4.595,4.5493,4.4986,4.4529,4.4282,4.4226,4.4299,4.4502,4.4519,4.4502,4.4502,4.4502,4.4502,4.4502,4.4502,4.3978,4.2472,4.2286,4.2286,4.2286,4.2269,4.2216,4.2072,4.1382,4.0838,4.0588,3.9884,3.9448,3.9325,3.9272,3.9272,3.9272,3.9272,3.9272,3.9272,3.9272,3.9272,3.9272,3.9272,3.9272,4.3598,0.0,4.37,4.418,4.4198,4.4195,4.4489,4.471,4.4756,4.4526,4.4706,4.4895,4.4895,4.4895,4.4895,4.4895,4.4895,4.5388,4.679,4.7226,4.842,5.1225,5.2059,0.0,0.0,0.0,0.0,5.4912,5.4912,5.4912,5.4912,5.4419,5.3875,5.3352,5.1874,5.0653,4.9694,4.8769,4.812,4.7717,4.7717,4.7717,4.7717,4.7717,4.7717,4.7717,4.7717,4.7717,4.7717,4.7717,4.7717,4.7717,4.7717,4.7657,4.7554,4.7363,4.7098,4.6795,4.6332,4.607,4.587,4.5717,4.5615,4.5649,4.5784,4.5885,4.5885,4.5885,4.5903,4.592,4.592,4.6102,4.6084,4.532,4.5303,4.532,4.4648,4.4497,4.4514,4.4587,4.4587,4.4587,4.4587,4.4587,4.4587,4.4587,4.4587,4.4384,4.3876,4.3809,4.3809,4.3809,4.3352,4.2993,4.2993,4.2193,4.1463,4.0906,4.0441,3.9964,3.9441,3.9358,3.9272,3.9272,3.9272,3.9272,3.9272,3.9272,3.9272,3.9272,3.9272,3.9272,4.454,4.454,4.4642,4.5112,4.5142,4.5156,4.5475,4.5419,4.5239,4.5038,4.501,4.4986,4.4895,4.49,4.49,4.4895,4.5092,4.5748,4.7129,4.7636,4.8962,5.1954,5.2371,0.0,0.0,0.0,0.0,5.4901,5.4901,5.4769,5.4484,5.3992,5.3237,5.2245,5.0829,4.9787,4.9097,4.8143,4.7717,4.7717,4.7717,4.7717,4.7717,4.7717,4.7717,4.7717,4.7717,4.7717,4.7717,4.7717,4.7717,4.7717,4.7717,4.7615,4.7468,4.7363,4.7249,4.7133,4.6637,4.6495,4.6429,4.6235,4.6186,4.6235,4.6363,4.6411,4.6411,4.6411,4.6315,4.6186,4.6186,4.6363,4.6376,4.5631,4.5784,4.5885,4.5032,4.4814,4.4814,4.4626,4.4587,4.4587,4.4587,4.4587,4.4587,4.4587,4.4587,4.4587,4.4587,4.4587,4.4587,4.4587,4.413,4.3826,4.3826,4.3023,4.2227,4.1415,4.0933,4.0321,3.9548,3.9358,3.9272,3.9272,3.9272,3.9272,3.9272,3.9272,3.9272,3.9272,3.9272,3.9272,4.6209,4.6196,4.6154,4.6027,4.6056,4.5988,4.5673,4.5543,4.5455,4.5258,4.5213,4.5148,0.0,0.0,4.491,4.4895,4.5413,4.6118,4.6986,4.7991,4.9503,0.0,0.0,0.0,0.0,0.0,0.0,5.4844,0.0,5.4503,5.3745,5.3631,5.2651,5.0654,5.0232,4.9473,4.8306,4.7888,4.7717,4.7717,4.7717,4.7717,4.7717,4.7717,4.7717,4.7717,4.7717,4.7717,4.7717,4.7717,4.7717,4.7717,4.7657,4.7572,4.745,4.7302,4.7187,4.7088,4.7043,4.6998,4.6934,4.6398,4.6235,4.6119,4.558,4.5407,4.5407,4.5407,4.5802,4.6235,4.6235,4.6637,4.6888,4.6495,4.6477,4.6332,4.5389,4.5249,4.5125,4.4665,4.4587,4.4587,4.4587,4.4587,4.4587,4.4587,4.4587,4.4587,4.4587,4.4587,4.4587,4.4587,4.4587,4.4587,4.4587,4.391,4.3094,4.2156,4.1342,4.0445,3.9534,3.9379,3.9272,3.9272,3.9272,3.9272,3.9272,3.9272,3.9272,3.9272,3.9272,3.9272,4.6196,4.6154,4.6122,4.6017,4.5975,4.5886,4.5642,4.5596,4.5545,4.5381,4.5341,4.5301,0.0,0.0,0.0,4.477,4.4802,0.0,4.598,4.6948,0.0,0.0,0.0,5.3063,5.475,5.4901,0.0,0.0,5.401,5.3916,5.3707,5.2532,5.146,5.0616,4.9653,4.8862,4.8306,4.7888,4.7717,4.7717,4.7717,4.7717,4.7717,4.7717,4.7717,4.7717,4.7717,4.7717,4.7717,4.7717,4.7717,4.7657,4.7258,4.7107,4.7017,4.6852,4.6489,4.6182,4.6778,4.6998,4.6998,4.6842,4.6795,4.6795,4.6619,4.6572,4.6572,4.6572,4.6684,4.6795,4.6795,4.698,4.7043,4.6542,4.6266,4.5935,4.5319,4.4978,4.4759,4.4626,4.4587,4.4587,4.4587,4.4587,4.4587,4.4587,4.4587,4.4587,4.4587,4.4587,4.4587,4.4587,4.4587,4.4587,4.4587,4.4401,4.3669,4.2173,4.1812,4.0963,3.9551,3.9379,3.9272,3.9272,3.9272,3.9272,3.9272,3.9272,3.9272,3.9272,3.9272,3.9272,4.6169,4.6138,4.6075,4.5986,4.5941,4.5861,4.5723,4.5645,4.558,4.5493,4.5438,0.0,0.0,0.0,0.0,0.0,0.0,0.0,4.6012,4.6985,4.8539,0.0,5.1782,0.0,5.4516,5.4327,5.3962,0.0,5.3659,5.3385,5.2646,5.1717,5.0856,5.0091,4.9228,4.855,4.805,4.7824,4.7717,4.7717,4.7717,4.7717,4.7717,4.7717,4.7717,4.7717,0.0,4.7717,4.7717,4.7717,4.7717,4.7657,4.7107,4.6863,4.6753,4.6346,4.5935,4.5716,4.6429,4.6637,4.6684,4.6934,4.6998,4.6998,4.6998,4.6998,4.6998,4.6998,4.6998,4.6998,4.6998,4.7043,4.7043,4.6731,4.6602,4.6376,4.592,4.5511,4.5106,4.4682,4.4587,4.4587,4.4587,4.4587,4.4587,4.4587,4.4587,4.4587,4.4587,4.4587,4.4587,4.4587,4.4587,4.4587,4.4587,4.4514,4.3799,4.2189,4.1942,4.1126,3.9551,3.9379,3.9272,3.9272,3.9272,3.9272,3.9272,3.9272,3.9272,3.9272,3.9272,3.9272,4.6083,4.6084,4.6056,4.5941,4.5886,4.5861,4.5814,4.5708,4.5629,4.5629,0.0,4.5419,4.539,4.52,4.4971,4.4836,0.0,4.5966,4.6458,4.7473,4.8984,5.1174,5.172,5.2513,5.4071,5.3545,5.3085,5.3057,5.3199,5.2683,5.1254,5.1064,5.0476,4.934,4.8937,4.8402,4.7717,4.7717,4.7717,4.7717,4.7717,4.7717,4.7717,4.7717,4.7717,4.7717,0.0,0.0,4.7717,4.7717,4.7717,4.7657,4.7107,4.6817,4.6613,4.5968,4.5614,4.5563,4.602,4.6186,4.6284,4.6842,4.6934,4.6888,4.698,4.6934,4.6888,4.698,4.6998,4.6998,4.6998,4.6998,4.6998,4.6998,4.7098,4.708,4.6684,4.6297,4.5716,4.4776,4.4587,4.4587,4.4587,4.4587,4.4587,4.4587,4.4587,4.4587,4.4587,4.4587,4.457,4.457,4.457,4.457,4.4514,4.4384,4.3614,4.2135,4.1832,4.1017,3.9551,3.9379,3.9272,3.9272,3.9272,3.9272,3.9272,3.9272,3.9272,3.9272,3.9272,3.9272,4.6017,4.5975,4.5941,4.5917,4.5867,4.5794,4.5814,4.5786,0.0,0.0,4.5661,4.574,4.6262,4.6582,4.6512,4.5641,0.0,0.0,0.0,0.0,4.8683,0.0,0.0,0.0,0.0,0.0,0.0,0.0,0.0,5.1148,5.0948,5.0335,4.9596,4.8767,4.8514,4.819,4.7699,4.7717,4.7717,4.7717,4.7717,4.7717,4.7717,4.7717,4.7717,4.7717,4.7717,0.0,4.7717,4.7717,4.7717,4.7657,4.7107,4.6817,4.6613,4.5968,4.5614,4.5563,4.602,4.6186,4.6284,4.6842,4.6684,4.6429,4.6888,4.6684,4.6429,4.6888,4.6998,4.6998,4.6998,4.6998,4.6998,4.6998,4.6778,4.6572,4.659,4.6003,4.5267,4.472,4.4587,4.4587,4.4587,4.4587,4.4587,4.4587,4.4587,4.4587,4.4587,4.4587,4.457,4.4367,4.4367,4.4327,4.4212,4.4155,4.3461,4.1877,4.1738,4.1017,3.9392,3.9325,3.9272,3.9272,3.9272,3.9272,3.9272,3.9272,3.9272,3.9272,3.9272,3.9272,4.5953,4.591,4.5886,4.5867,4.5808,4.58,4.58,0.0,0.0,0.0,4.5528,4.5744,4.6944,0.0,0.0,0.0,0.0,0.0,0.0,0.0,0.0,0.0,0.0,0.0,0.0,0.0,0.0,0.0,0.0,4.9786,5.009,4.9762,4.922,4.8532,4.8421,4.8075,4.7511,4.7511,4.7511,4.7615,4.7615,4.7615,4.7615,4.7615,4.7615,4.7615,4.7615,0.0,4.7717,4.7717,4.7717,4.7657,4.7107,4.6817,4.6613,4.5968,4.5614,4.5563,4.602,4.6186,4.6284,4.6842,4.6842,4.6684,4.6934,4.6637,4.6284,4.6842,4.6795,4.6637,4.6934,4.6998,4.6998,4.6998,4.6888,4.6778,4.6649,4.6151,4.5494,4.4944,4.4648,4.444,4.4327,4.4344,4.4327,4.444,4.4384,4.44,4.444,4.4384,4.4327,4.431,4.431,4.4253,4.4097,4.3688,4.2946,4.1749,4.1261,4.0525,3.9375,3.9272,3.9272,3.9272,3.9272,3.9272,3.9272,3.9272,3.9272,3.9272,3.9272,3.9272,4.5893,4.5893,4.588,4.5814,4.58,4.58,4.58,4.5692,0.0,0.0,4.5381,4.5764,4.7567,0.0,4.7901,0.0,0.0,0.0,0.0,0.0,0.0,0.0,0.0,0.0,0.0,0.0,0.0,0.0,0.0,0.0,4.9239,4.9239,4.8937,4.8346,4.8271,4.7959,4.7302,4.7302,4.7363,4.7468,4.7468,4.7468,4.7468,4.7468,4.745,4.7511,4.7511,0.0,0.0,4.7717,4.7717,4.7657,4.7258,4.6999,4.6799,4.6165,4.59,4.5918,4.6151,4.6332,4.6495,4.6888,4.6934,4.6842,4.6842,4.6429,4.6119,4.6684,4.6542,4.6284,4.6731,4.6888,4.6998,4.6998,4.7088,4.7088,4.6742,4.6249,4.5751,4.5161,4.4597,4.4196,4.4097,4.4097,4.4155,4.4253,4.4155,4.4155,4.4253,4.4155,4.4155,4.4212,4.4196,4.4088,4.3747,4.3115,4.2342,4.1499,4.0807,4.005,3.9305,3.9272,3.9272,3.9272,3.9272,3.9272,3.9272,3.9235,3.9235,3.9272,3.9218,3.9218,4.5814,4.5814,4.5814,4.58,4.58,4.58,4.58,0.0,0.0,4.5596,4.5381,4.5871,4.8106,4.8881,4.9427,0.0,5.1355,5.1676,0.0,0.0,0.0,0.0,0.0,0.0,0.0,0.0,0.0,0.0,0.0,0.0,4.873,4.8731,4.8495,4.8135,4.7937,4.7669,4.7302,4.7302,4.732,4.7302,4.7302,4.7302,4.7302,4.7302,4.7363,4.7511,4.7511,0.0,0.0,4.7717,4.7717,4.7717,4.7657,4.7554,4.7363,4.6799,4.6817,4.7062,4.6519,4.6649,4.7088,4.7025,4.6684,4.6284,4.6284,4.5852,4.5528,4.6119,4.6235,4.6186,4.6235,4.6637,4.6998,4.6998,4.7088,4.7043,4.6542,4.6052,4.5563,4.5001,4.4502,4.4097,4.4097,4.4097,4.4097,4.4097,4.4097,4.4097,4.4097,4.4097,4.4056,4.3956,4.3956,4.3614,4.2742,4.2551,4.1939,4.0619,4.0415,4.005,3.9305,3.9272,3.9272,3.9272,3.9272,3.9272,3.9272,3.9122,3.9122,3.9272,3.8985,3.8914,4.58,4.58,4.58,4.58,4.58,4.5786,4.5692,0.0,4.5475,4.5381,4.5194,4.5878,4.8672,4.9292,5.0108,5.2276,5.2622,5.2549,5.2364,0.0,0.0,0.0,0.0,0.0,0.0,0.0,0.0,0.0,0.0,0.0,4.7995,4.8132,4.8093,4.7728,4.7645,4.745,4.7098,4.7116,4.716,4.7249,4.7249,4.7249,4.7249,4.7249,4.7267,4.7312,4.7312,0.0,0.0,4.7468,4.7468,4.7468,4.7554,4.7468,4.7312,4.7232,4.7232,4.7205,4.6944,4.7025,4.7196,4.7043,4.6842,4.6684,4.6684,4.6052,4.5425,4.602,4.5717,4.5232,4.558,4.607,4.659,4.6934,4.6778,4.6525,4.6394,4.5683,4.5037,4.4766,4.4333,4.3939,4.3805,4.3805,4.3864,4.3939,4.3881,4.3864,4.3939,4.3864,4.3639,4.3132,4.3157,4.304,4.2551,4.1723,4.0994,4.0415,3.9951,3.964,3.9288,3.9272,3.9272,3.9272,3.9189,3.9139,3.9139,3.8969,3.8903,3.9001,3.8854,3.8805,4.5805,4.58,4.58,4.58,4.58,4.5752,0.0,0.0,4.5302,4.5132,4.4967,4.5791,4.8897,4.9415,5.0427,5.3513,5.3442,5.3144,5.372,0.0,0.0,0.0,0.0,0.0,0.0,0.0,0.0,0.0,0.0,0.0,0.0,4.7621,4.7621,4.7511,4.7511,4.7338,4.698,4.6998,4.7043,4.7133,4.7133,4.7133,4.7133,4.7133,4.7133,4.7196,0.0,0.0,0.0,4.7302,4.7302,4.7302,4.7407,4.7338,4.7267,4.7425,4.7425,4.7267,4.7267,4.7223,4.7223,4.7043,4.6998,4.6998,4.6998,4.6315,4.5631,4.607,4.5494,4.4801,4.5197,4.5477,4.5819,4.6363,4.6217,4.5953,4.6017,4.5303,4.4652,4.4546,4.4162,4.3763,4.3628,4.3628,4.3628,4.3763,4.3687,4.3628,4.3763,4.3505,4.3098,4.2585,4.2268,4.2019,4.1889,4.0961,4.0282,4.0067,3.957,3.9272,3.9272,3.9272,3.9255,3.9206,3.9053,3.8999,3.8936,3.8838,3.8753,3.8772,3.8721,3.8711,4.58,4.5791,4.58,4.58,4.58,4.5752,0.0,4.54,4.5159,4.4943,4.4783,4.5584,4.8557,4.9289,5.0361,5.3312,5.3794,5.3794,5.3813,0.0,0.0,0.0,0.0,0.0,0.0,0.0,0.0,0.0,0.0,0.0,0.0,4.7205,4.716,4.7511,4.7511,4.7338,4.698,4.6998,4.6998,4.6998,4.6998,4.6998,4.6998,4.6998,4.7088,0.0,0.0,0.0,0.0,4.7302,4.7302,4.7302,4.7302,4.7302,4.732,4.745,4.7511,4.7468,4.7345,4.7302,4.7276,4.707,4.6998,4.6998,4.6998,4.6637,4.6186,4.6186,4.5751,4.5303,4.5303,4.491,4.4652,4.5214,4.5303,4.5303,4.5303,4.491,4.4502,4.4502,4.4006,4.3628,4.3628,4.3628,4.3628,4.3628,4.3628,4.3628,4.3628,4.2982,4.2535,4.2518,4.1259,4.0398,4.0398,4.0398,4.0067,3.9338,3.9272,3.9272,3.9272,3.9272,3.9206,3.902,3.9003,3.8952,3.878,3.8699,3.8674,3.8776,3.852,3.8391,4.575,4.5795,4.5776,4.5696,4.5594,4.5453,4.5184,4.4988,4.4819,4.4674,4.4667,4.5434,4.7828,4.8883,5.0174,5.2568,5.3441,5.3813,0.0,0.0,0.0,0.0,0.0,0.0,0.0,0.0,0.0,0.0,0.0,0.0,0.0,4.7088,4.7025,4.716,4.716,4.7116,4.6998,4.6998,4.6998,4.6998,4.6998,4.6998,4.6998,4.6998,0.0,0.0,0.0,0.0,0.0,4.7116,4.7116,4.7116,4.7223,4.7178,4.7116,4.7276,4.7338,4.7267,4.7267,4.7205,4.7223,4.7043,4.6998,4.6998,4.6998,4.6637,4.6119,4.57,4.5477,4.5303,4.5303,4.5144,4.5108,4.525,4.5001,4.4746,4.4746,4.4276,4.3889,4.3889,4.373,4.3628,4.3628,4.3628,4.3628,4.3628,4.3628,4.3446,4.2932,4.2667,4.2137,4.116,4.0663,4.0382,4.0382,3.9918,3.952,3.9288,3.9272,3.9218,3.9094,3.911,3.9011,3.8851,3.8756,3.8697,3.8642,3.8545,3.8497,3.852,3.8464,3.8391,4.5545,4.5635,4.5565,4.5528,4.5455,0.0,4.4966,4.48,4.4662,4.4468,4.4496,4.5125,4.7005,4.8183,4.9548,5.1787,5.2828,5.346,0.0,0.0,0.0,0.0,0.0,0.0,0.0,0.0,0.0,0.0,0.0,0.0,0.0,4.7088,4.6998,4.6998,4.6998,4.6998,4.6998,4.6998,4.6998,4.6998,4.6998,4.6998,4.6998,4.6998,0.0,0.0,0.0,0.0,0.0,4.6998,4.6998,4.6998,4.7088,4.7088,4.7025,4.7205,4.7223,4.7196,4.7196,4.7196,4.7196,4.7043,4.6998,4.6998,4.6998,4.6795,4.6315,4.5528,4.5303,4.5197,4.4783,4.4674,4.4674,4.4674,4.4429,4.4179,4.4179,4.3848,4.3628,4.3628,4.3628,4.3628,4.3628,4.3628,4.3529,4.3247,4.3214,4.2949,4.2204,4.1872,4.1375,4.0464,4.0133,3.9951,3.9896,3.9466,3.9148,3.9094,3.9094,3.904,3.8914,3.8931,3.8849,3.8722,3.8672,3.8578,3.8545,3.8424,3.8391,3.8391,3.8391,3.8335,0.0,4.5322,4.5201,0.0,0.0,0.0,4.4938,4.477,0.0,4.4325,4.4285,4.4741,4.6155,4.7164,4.8572,5.0858,5.1955,0.0,0.0,0.0,0.0,0.0,0.0,0.0,0.0,0.0,0.0,0.0,0.0,0.0,0.0,4.716,4.6998,4.6998,4.6998,4.6998,4.6998,4.6998,4.6998,4.6998,4.6998,4.6998,4.6998,4.6998,0.0,0.0,0.0,0.0,0.0,4.6998,4.6998,4.6998,4.6998,4.6998,4.7043,4.7133,4.7196,4.7196,4.7196,4.7196,4.7196,4.7043,4.6998,4.6998,4.6998,4.6998,4.6778,4.5665,4.5355,4.5091,4.3948,4.3671,4.3628,4.3628,4.3628,4.3628,4.3628,4.3628,4.3628,4.3628,4.3628,4.3628,4.3628,4.3578,4.3313,4.2618,4.2485,4.217,4.1425,4.0779,4.0365,4.0299,3.9686,3.9202,3.8969,3.8969,3.8914,3.8805,3.8805,3.8805,3.8805,3.8805,3.8701,3.8564,3.8593,3.8545,3.8391,3.8391,3.8391,3.8391,3.8391,3.8205,4.4676,0.0,4.4943,4.4872,4.48,4.465,0.0,4.4317,4.417,4.4097,4.4177,4.4573,4.5411,4.6345,4.7527,4.9222,5.0729,0.0,0.0,0.0,0.0,0.0,0.0,0.0,0.0,0.0,0.0,0.0,0.0,0.0,0.0,4.7025,4.6998,4.6998,4.6998,4.6998,4.6998,4.6998,4.6998,4.6998,4.6998,4.6998,4.6998,4.6998,0.0,0.0,0.0,0.0,4.6998,4.6998,4.6998,4.6998,4.6998,4.6998,4.698,4.7043,4.7043,4.7043,4.7043,4.7043,4.7043,4.6998,4.6998,4.6998,4.6998,4.6998,4.6842,4.6168,4.597,4.57,4.4597,4.4293,4.4179,4.373,4.3628,4.3628,4.3628,4.3628,4.3628,4.3628,4.3628,4.3628,4.3628,4.3148,4.2717,4.2551,4.2038,4.1409,4.0713,4.0354,3.9968,3.9407,3.9084,3.8876,3.8727,3.8876,3.8914,3.8805,3.8805,3.875,3.8672,3.8672,3.86,3.8472,3.8464,3.8424,3.8391,3.8391,3.8391,3.8391,3.8148,3.796,4.425,4.4476,4.4629,4.4602,4.4549,4.4439,4.4325,4.4226,4.4097,4.4005,0.0,4.4277,4.4649,4.5226,0.0,4.759,0.0,0.0,0.0,0.0,0.0,0.0,0.0,0.0,0.0,0.0,0.0,0.0,0.0,0.0,0.0,4.8068,4.789,4.7551,4.7533,4.7354,4.6998,4.6998,4.6998,4.6998,4.6998,4.6998,4.6998,4.6998,4.6998,0.0,0.0,0.0,4.6998,4.6998,4.6998,4.6998,4.6998,4.6998,4.6998,4.6998,4.6998,4.6998,4.6998,4.6998,4.6998,4.6998,4.6998,4.6998,4.6998,4.6842,4.6525,4.5953,4.5597,4.5232,4.4333,4.4064,4.4006,4.3671,4.3628,4.3628,4.3628,4.3628,4.3628,4.3628,4.3346,4.3115,4.3115,4.2502,4.1848,4.146,4.1064,4.0552,3.9787,3.9578,3.9358,3.8947,3.886,3.8766,3.8616,3.8727,3.8766,3.86,3.86,3.86,3.8504,3.852,3.8448,3.8391,3.8391,3.8391,3.8391,3.8253,3.818,3.8148,3.7828,3.7594,4.4005,4.4097,4.4237,4.4401,4.4411,4.4383,4.4285,0.0,0.0,0.0,0.0,0.0,0.0,0.0,0.0,0.0,0.0,0.0,0.0,0.0,0.0,0.0,0.0,0.0,0.0,0.0,0.0,0.0,0.0,0.0,0.0,4.9317,4.9014,4.8371,4.8354,4.8032,4.7354,4.7105,4.6998,4.6998,4.6998,4.6998,4.6998,4.6998,4.6998,4.6998,0.0,0.0,4.698,4.6888,4.6888,4.6888,4.6778,4.6731,4.6731,4.6824,4.6888,4.6888,4.698,4.6998,4.6998,4.6998,4.6998,4.698,4.6888,4.6477,4.592,4.5372,4.4855,4.4333,4.373,4.3628,4.3628,4.3628,4.3628,4.3628,4.3628,4.3628,4.3595,4.3479,4.2949,4.2485,4.2369,4.1683,4.0932,4.0209,3.9972,3.9621,3.8887,3.8805,3.875,3.875,3.875,3.8711,3.856,3.8576,3.8504,3.8408,3.8391,3.8391,3.8391,3.8391,3.8391,3.8343,3.8343,3.8303,3.8278,3.7982,3.7833,3.7828,3.7476,3.721,4.4005,4.386,4.3763,4.4017,4.4067,4.4067,4.4036,0.0,0.0,0.0,0.0,0.0,0.0,0.0,0.0,0.0,0.0,0.0,0.0,0.0,0.0,0.0,0.0,0.0,0.0,0.0,0.0,0.0,0.0,0.0,0.0,4.9317,4.9264,4.9139,4.9139,4.9085,4.896,4.764,4.6998,4.6998,4.6998,4.6998,4.6998,4.6998,4.6998,4.6998,0.0,4.6998,4.6934,4.6495,4.6332,4.6284,4.5784,4.5563,4.5614,4.6119,4.6332,4.6381,4.6842,4.6998,4.6998,4.6998,4.6998,4.6934,4.6447,4.5903,4.532,4.4763,4.4541,4.4333,4.373,4.3628,4.3628,4.3628,4.3628,4.3628,4.3628,4.3628,4.3446,4.2816,4.2601,4.2319,4.169,4.0866,4.0242,4.0143,3.9473,3.8936,3.8821,3.8711,3.8616,3.8616,3.8504,3.8448,3.8448,3.8448,3.8391,3.8391,3.8391,3.8391,3.8391,3.8391,3.8254,3.8004,3.8004,3.7841,3.7535,3.7492,3.7492,3.7476,3.721,3.706,4.3875,4.3892,4.3795,4.3795,4.3664,4.3563,4.3563,0.0,0.0,0.0,0.0,0.0,0.0,0.0,0.0,0.0,0.0,0.0,0.0,0.0,0.0,0.0,0.0,0.0,0.0,0.0,0.0,0.0,0.0,0.0,0.0,0.0,5.0405,4.9977,4.9959,4.9745,4.9317,4.8603,4.8032,4.764,4.764,4.7408,4.6998,4.6998,4.6842,4.659,0.0,4.6363,4.6035,4.5802,4.5683,4.57,4.5425,4.5303,4.5303,4.5631,4.592,4.6235,4.6495,4.6363,4.62,4.6778,4.6572,4.6102,4.6186,4.5597,4.4801,4.4558,4.4293,4.3948,4.3671,4.3628,4.3628,4.3628,4.3628,4.3568,4.3509,4.3254,4.2874,4.2485,4.1717,4.113,4.0727,3.9956,3.9368,3.9329,3.8939,3.8655,3.86,3.8504,3.8504,3.8504,3.8448,3.8391,3.8391,3.8391,3.8391,3.8391,3.8391,3.8391,3.8391,3.8222,3.8052,3.7883,3.7743,3.7534,3.7387,3.7232,3.7167,3.7207,3.6892,3.6754,4.3782,4.3955,4.386,4.3664,4.3495,0.0,0.0,0.0,0.0,0.0,0.0,0.0,0.0,0.0,0.0,0.0,0.0,0.0,0.0,0.0,0.0,0.0,0.0,0.0,0.0,0.0,0.0,0.0,0.0,0.0,0.0,0.0,5.1422,5.0798,5.078,5.0446,4.9791,4.9822,4.9388,4.8443,4.833,4.7808,4.7044,4.6932,4.6539,4.597,4.597,4.5751,4.5303,4.5144,4.5108,4.5108,4.4947,4.5001,4.5108,4.5108,4.5477,4.597,4.597,4.57,4.5459,4.6297,4.5985,4.5355,4.57,4.5178,4.4446,4.4333,4.3948,4.3568,4.3568,4.3628,4.3628,4.3628,4.3436,4.3244,4.3168,4.2607,4.2047,4.1782,4.0844,4.0022,3.9841,3.9237,3.8711,3.8616,3.856,3.852,3.8391,3.8391,3.8391,3.8391,3.8391,3.8391,3.8391,3.8391,3.8391,3.8391,3.8335,3.8303,3.8254,3.7988,3.7753,3.7684,3.7432,3.7282,3.7173,3.6971,3.6863,3.689,3.6646,3.6492,4.3782,4.3828,4.3612,4.3579,4.3763,0.0,4.3304,4.3391,0.0,4.3268,0.0,0.0,0.0,0.0,0.0,0.0,0.0,0.0,0.0,0.0,0.0,0.0,0.0,0.0,0.0,0.0,0.0,0.0,0.0,0.0,0.0,0.0,0.0,5.1619,5.1601,5.1482,5.1173,5.1429,5.0744,4.9228,4.8635,4.801,4.7254,4.6691,4.6028,4.5355,4.5355,4.5355,4.525,4.4746,4.4558,4.4502,4.3948,4.4047,4.4558,4.4558,4.491,4.5355,4.5355,4.5372,4.5303,4.5407,4.5355,4.5214,4.4763,4.4558,4.439,4.3848,4.3552,4.3432,4.3568,4.3628,4.3628,4.3628,4.298,4.2409,4.2351,4.169,4.0927,4.0181,3.9968,3.9673,3.9001,3.8743,3.8616,3.8616,3.8504,3.8391,3.8391,3.8391,3.8391,3.8391,3.8391,3.8391,3.8391,3.8391,3.8391,3.8391,3.8132,3.7921,3.7931,3.7633,3.7335,3.7049,3.7049,3.6847,3.6522,3.6522,3.6569,3.6554,3.6492,3.6492,4.3652,4.3693,4.3406,4.3545,4.356,0.0,0.0,4.3142,4.3339,4.3196,4.3321,0.0,0.0,0.0,0.0,0.0,0.0,0.0,0.0,0.0,0.0,0.0,0.0,0.0,0.0,0.0,0.0,0.0,0.0,0.0,0.0,0.0,0.0,5.1436,5.1263,5.1088,5.0999,5.1088,5.0665,4.9783,4.9346,4.8749,4.7943,4.7382,4.6477,4.5516,4.5516,4.5021,4.4202,4.4006,4.3948,4.3906,4.3671,4.3948,4.4446,4.4064,4.4333,4.4801,4.4801,4.458,4.4356,4.5091,4.4838,4.4259,4.4446,4.4236,4.3889,4.3671,4.3221,4.293,4.3393,4.3043,4.267,4.267,4.2035,4.1451,4.1409,4.082,4.023,3.9854,3.9389,3.8982,3.8704,3.856,3.8464,3.8464,3.8448,3.8391,3.8391,3.8391,3.8391,3.8391,3.8391,3.8391,3.8391,3.8205,3.8075,3.8075,3.7943,3.7892,3.7918,3.7419,3.7065,3.6987,3.6801,3.6631,3.6492,3.6492,3.6492,3.6492,3.6492,3.6492,4.3333,4.349,4.323,4.3336,0.0,0.0,4.2976,4.3105,4.3304,4.3214,4.3426,0.0,0.0,0.0,0.0,0.0,0.0,0.0,0.0,0.0,0.0,0.0,0.0,0.0,0.0,0.0,0.0,0.0,0.0,0.0,0.0,0.0,0.0,0.0,5.0858,5.0803,5.0803,5.0803,5.0512,4.9971,4.9587,4.9,4.8144,4.7489,4.665,4.5639,4.5622,4.4923,4.3856,4.3856,4.3647,4.3432,4.3568,4.3848,4.4105,4.373,4.3848,4.4236,4.4236,4.3964,4.373,4.4524,4.4259,4.3638,4.3836,4.3597,4.3171,4.294,4.2451,4.2129,4.2463,4.2216,4.1779,4.1737,4.118,4.0582,4.0498,3.9911,3.9406,3.9308,3.8902,3.856,3.856,3.8448,3.8391,3.8391,3.8391,3.8391,3.8391,3.8391,3.8391,3.8391,3.8335,3.8262,3.8262,3.7943,3.777,3.777,3.7653,3.7646,3.7613,3.7134,3.6845,3.6816,3.6631,3.6492,3.6492,3.6492,3.6492,3.6492,3.6492,3.6492,4.2772,4.3211,4.314,0.0,0.0,0.0,4.3339,4.3391,4.3529,4.3268,0.0,0.0,0.0,0.0,0.0,0.0,0.0,0.0,0.0,0.0,0.0,0.0,0.0,0.0,0.0,0.0,0.0,0.0,0.0,0.0,0.0,0.0,0.0,0.0,5.0559,5.0803,5.0803,5.0803,5.0384,4.9588,4.9231,4.8555,4.7591,4.6922,4.6286,4.5798,4.5593,4.5118,4.4492,4.4273,4.3768,4.3113,4.3492,4.3492,4.3432,4.3568,4.3628,4.3568,4.3611,4.3611,4.3552,4.3611,4.3611,4.3462,4.2734,4.2518,4.2295,4.1436,4.1083,4.0983,4.0841,4.0967,4.1165,4.1025,4.0295,3.9716,3.9716,3.8991,3.8391,3.8391,3.8391,3.8391,3.8391,3.8391,3.8391,3.8391,3.8391,3.8391,3.8391,3.8391,3.8391,3.8408,3.8075,3.7886,3.7886,3.7594,3.7417,3.7417,3.7165,3.7029,3.6995,3.6693,3.6492,3.6492,3.6492,3.6492,3.6492,3.6492,3.6492,3.6492,3.6492,3.6492,4.2649,4.2809,0.0,0.0,0.0,0.0,0.0,4.3697,0.0,0.0,0.0,0.0,0.0,0.0,0.0,0.0,0.0,0.0,0.0,0.0,0.0,0.0,0.0,0.0,0.0,0.0,0.0,0.0,0.0,0.0,0.0,0.0,0.0,4.868,4.9124,4.9413,4.9413,4.9968,4.975,4.8759,4.8652,4.8471,4.8145,4.7506,4.6865,4.6191,4.6175,4.5716,4.5027,4.4423,4.4063,4.3817,4.3432,4.3235,4.3174,4.3235,4.3235,4.3169,4.2676,4.2512,4.243,4.1963,4.174,4.1707,4.1477,4.1411,4.1378,4.1148,4.0664,4.023,4.0058,3.9683,3.9495,3.9829,3.9349,3.8772,3.8772,3.8594,3.8391,3.8391,3.8391,3.8391,3.8391,3.8391,3.8391,3.8391,3.8391,3.8391,3.8391,3.8391,3.8335,3.8075,3.7943,3.7812,3.7594,3.7254,3.7105,3.7105,3.68,3.6739,3.6968,3.6662,3.6492,3.6492,3.6492,3.6492,3.6492,3.6492,3.6492,3.6492,3.6492,3.6492,4.1734,4.2008,0.0,0.0,0.0,0.0,0.0,0.0,0.0,0.0,0.0,0.0,0.0,0.0,0.0,0.0,0.0,0.0,0.0,0.0,0.0,0.0,0.0,0.0,0.0,0.0,0.0,0.0,0.0,0.0,0.0,0.0,4.6412,4.7178,4.7692,4.8135,4.8522,4.9017,4.883,4.7981,4.8092,4.8048,4.777,4.7504,4.7157,4.6798,4.6438,4.5996,4.5489,4.4803,4.433,4.3972,4.3657,4.3313,4.2958,4.2802,4.2703,4.2589,4.1884,4.1639,4.1573,4.1131,4.0983,4.0934,4.0639,4.0557,4.0492,4.0156,3.9707,3.9364,3.9194,3.8829,3.8618,3.9015,3.8715,3.8391,3.8391,3.8391,3.8391,3.8391,3.8391,3.8391,3.8391,3.8391,3.8391,3.8391,3.8391,3.8391,3.8391,3.8391,3.8262,3.7943,3.777,3.7594,3.727,3.6984,3.6816,3.6816,3.6616,3.6616,3.6816,3.6616,3.6492,3.6492,3.6492,3.6492,3.6492,3.6492,3.6492,3.6492,3.6492,3.6492,4.0423,0.0,0.0,0.0,0.0,0.0,0.0,0.0,0.0,0.0,0.0,0.0,0.0,0.0,0.0,0.0,0.0,0.0,0.0,0.0,0.0,0.0,0.0,0.0,0.0,0.0,0.0,0.0,0.0,0.0,0.0,4.3715,4.4829,4.5629,4.6152,4.6807,4.7716,4.7815,4.753,4.6982,4.7305,4.7093,4.6504,4.6984,4.7251,4.7354,4.6484,4.5942,4.5743,4.5163,4.4399,4.3702,4.3858,4.348,4.272,4.2185,4.1983,4.1868,4.1147,4.0827,4.0885,4.0745,4.0729,4.0614,3.9944,3.9748,3.9617,3.8795,3.856,3.856,3.8448,3.8391,3.8391,3.8391,3.8391,3.8391,3.8391,3.8391,3.8391,3.8391,3.8391,3.8391,3.8391,3.8391,3.8391,3.8335,3.8335,3.8335,3.8335,3.8335,3.8205,3.7828,3.7535,3.7254,3.6999,3.6693,3.6492,3.6492,3.6492,3.6492,3.6492,3.6492,3.6492,3.6492,3.6492,3.6492,3.6492,3.6492,3.6492,3.6492,3.6492,3.6492,4.0725,4.1519,0.0,0.0,0.0,0.0,0.0,0.0,0.0,0.0,0.0,0.0,0.0,0.0,0.0,0.0,0.0,0.0,0.0,0.0,0.0,0.0,0.0,0.0,0.0,0.0,0.0,0.0,0.0,0.0,4.2358,4.2497,4.2936,4.3731,4.444,4.4906,4.5114,4.5357,4.5213,0.0,4.5019,4.4587,4.3622,4.594,4.6961,4.6997,4.6183,4.5807,4.571,4.4513,4.3848,4.3605,4.2596,4.2061,4.1788,4.1119,4.0843,4.0745,4.0063,3.982,3.9722,3.9154,3.8975,3.8943,3.878,3.8731,3.8699,3.8497,3.8448,3.8464,3.8408,3.8391,3.8391,3.8391,3.8391,3.8391,3.8391,3.8391,3.8391,3.8391,3.8391,3.8391,3.8391,3.8391,3.8335,3.8075,3.777,3.7594,3.7594,3.7594,3.7492,3.7225,3.7105,3.6938,3.6616,3.6554,3.6492,3.6492,3.6492,3.6492,3.6492,3.6492,3.6492,3.6492,3.6492,3.6492,3.6492,3.6492,3.6492,3.6492,3.6492,3.6492,0.0,0.0,0.0,0.0,0.0,0.0,0.0,0.0,0.0,0.0,0.0,0.0,0.0,0.0,0.0,0.0,0.0,0.0,0.0,0.0,0.0,0.0,0.0,0.0,0.0,0.0,0.0,0.0,0.0,0.0,4.1678,4.1553,4.1819,4.2578,4.2975,4.3304,4.3443,4.3769,4.3625,4.3182,4.3465,4.3258,4.2682,4.4528,4.5548,4.584,4.5111,4.4804,4.4723,4.3638,4.299,4.2618,4.1857,4.1355,4.0966,4.027,4.0011,3.9914,3.9201,3.8958,3.8893,3.8521,3.8391,3.8391,3.8391,3.8391,3.8391,3.8391,3.8391,3.8391,3.8391,3.8391,3.8391,3.8391,3.8391,3.8391,3.8391,3.8391,3.8391,3.8391,3.8391,3.8335,3.8205,3.8017,3.7844,3.7711,3.7535,3.7417,3.7417,3.7417,3.7314,3.6999,3.7015,3.6877,3.6554,3.6492,3.6492,3.6492,3.6492,3.6492,3.6492,3.6492,3.6492,3.6492,3.6492,3.6492,3.6492,3.6492,3.6492,3.6492,3.6492,3.6492,3.9572,0.0,0.0,0.0,0.0,0.0,0.0,0.0,0.0,0.0,0.0,0.0,0.0,0.0,0.0,0.0,0.0,0.0,0.0,0.0,0.0,0.0,0.0,0.0,0.0,0.0,0.0,0.0,0.0,4.118,4.0918,4.0888,4.1164,4.1785,4.1802,4.1931,4.2193,4.2274,4.2149,4.1824,4.195,4.2067,4.2278,4.2763,4.3508,4.4383,4.3654,4.3346,4.3281,4.2553,4.1921,4.1371,4.1257,4.0836,4.0237,3.9541,3.9298,3.9201,3.8602,3.8391,3.8391,3.8391,3.8391,3.8391,3.8391,3.8391,3.8391,3.8391,3.8391,3.8391,3.8391,3.8391,3.8391,3.8391,3.8391,3.8391,3.8391,3.8335,3.8335,3.8335,3.8278,3.8148,3.7886,3.7535,3.7298,3.7298,3.7298,3.7238,3.7238,3.7238,3.7134,3.6938,3.6938,3.6816,3.6492,3.6492,3.6492,3.6492,3.6492,3.6492,3.6492,3.6492,3.6492,3.6492,3.6492,3.6492,3.6492,3.6492,3.6492,3.6492,3.6492,3.6492,0.0,0.0,0.0,0.0,0.0,0.0,0.0,0.0,0.0,0.0,0.0,0.0,0.0,0.0,0.0,0.0,0.0,0.0,0.0,0.0,0.0,0.0,0.0,0.0,0.0,0.0,0.0,0.0,0.0,4.138,4.0918,4.0888,4.0922,4.1026,4.1026,4.1078,4.1133,4.0375,3.9993,3.994,3.929,3.9606,4.0756,4.027,4.1096,4.2877,4.2164,4.1857,4.1792,4.1063,4.0723,4.0577,3.9994,3.9703,3.9525,3.8812,3.8537,3.8521,3.8424,3.8391,3.8391,3.8391,3.8391,3.8391,3.8391,3.8391,3.8391,3.8391,3.8391,3.8391,3.8391,3.8391,3.8391,3.8391,3.8391,3.8391,3.8391,3.8205,3.7943,3.7943,3.7711,3.7535,3.7476,3.721,3.706,3.706,3.68,3.6616,3.6616,3.6616,3.6616,3.6554,3.6554,3.6554,3.6492,3.6492,3.6492,3.6492,3.6492,3.6492,3.6492,3.6492,3.6492,3.6492,3.6492,3.6492,3.6492,3.6492,3.6492,3.6492,3.6492,3.6492,4.0474,0.0,0.0,0.0,0.0,0.0,0.0,0.0,0.0,0.0,0.0,0.0,0.0,0.0,0.0,0.0,0.0,0.0,0.0,0.0,0.0,0.0,0.0,0.0,0.0,0.0,0.0,0.0,4.148,4.1105,4.0935,4.0888,4.0888,4.0888,4.0888,4.0776,4.06,3.9935,3.9348,3.8898,3.8544,3.8715,3.9314,3.9007,3.9816,4.1403,4.0691,4.0399,4.0351,3.9622,3.9314,3.9282,3.8991,3.8877,3.8829,3.8521,3.8391,3.8391,3.8391,3.8391,3.8391,3.8391,3.8391,3.8391,3.8391,3.8391,3.8391,3.8391,3.8391,3.8391,3.8391,3.8391,3.8391,3.8391,3.8262,3.8132,3.8132,3.8001,3.7828,3.7653,3.7373,3.715,3.715,3.6923,3.6693,3.6693,3.6616,3.6492,3.6492,3.6492,3.6492,3.6492,3.6492,3.6492,3.6492,3.6492,3.6492,3.6492,3.6492,3.6492,3.6492,3.6492,3.6492,3.6492,3.6492,3.6492,3.6492,3.6492,3.6492,3.6492,3.6492,3.6492,0.0,0.0,0.0,0.0,0.0,0.0,0.0,0.0,0.0,0.0,0.0,0.0,0.0,0.0,0.0,0.0,0.0,0.0,0.0,0.0,0.0,0.0,0.0,0.0,0.0,0.0,0.0,0.0,4.1463,4.1088,4.0935,4.0888,4.0888,4.0888,4.0888,4.0745,4.0453,4.0003,3.9365,3.856,3.856,3.8504,3.8391,3.8391,3.8974,3.993,3.9428,3.9201,3.9169,3.8618,3.8391,3.8391,3.8391,3.8391,3.8391,3.8391,3.8391,3.8391,3.8391,3.8391,3.8391,3.8391,3.8391,3.8391,3.8391,3.8391,3.8391,3.8391,3.8391,3.8391,3.8391,3.8448,3.8504,3.8504,3.8359,3.8157,3.7943,3.777,3.7594,3.7417,3.7089,3.6938,3.706,3.6907,3.6785,3.6937,3.6831,3.6723,3.6723,3.66,3.6492,3.6492,3.6492,3.6492,3.6492,3.6492,3.6492,3.6492,3.6492,3.6492,3.6492,3.6492,3.6492,3.6492,3.6492,3.6492,3.6492,3.6492,3.6492,3.6492,3.6492,3.6492,0.0,0.0,0.0,0.0,0.0,0.0,0.0,0.0,0.0,0.0,0.0,0.0,0.0,0.0,0.0,0.0,0.0,0.0,0.0,0.0,0.0,0.0,0.0,0.0,0.0,0.0,0.0,0.0,4.1966,4.1552,4.0918,4.0888,4.0888,4.0888,4.0888,4.0888,4.0888,4.0502,3.9816,3.8969,3.8969,3.8766,3.8391,3.8391,3.844,3.8505,3.8472,3.8456,3.844,3.8424,3.8391,3.8391,3.8391,3.8391,3.8391,3.8391,3.8391,3.8391,3.8391,3.8391,3.8391,3.8391,3.8391,3.8391,3.8391,3.8391,3.8391,3.8391,3.8391,3.8391,3.8391,3.86,3.8805,3.8805,3.8952,3.8936,3.81,3.7449,3.7105,3.7358,3.6952,3.6723,3.7298,3.7358,3.7578,3.8124,3.7738,3.7358,3.7358,3.6831,3.6492,3.6492,3.6492,3.6492,3.6492,3.6492,3.6492,3.6492,3.6492,3.6492,3.6492,3.6492,3.6492,3.6492,3.6492,3.6492,3.6492,3.6492,3.6492,3.6492,3.6492,3.6492,0.0,0.0,0.0,0.0,0.0,0.0,0.0,0.0,0.0,0.0,0.0,0.0,0.0,0.0,0.0,0.0,0.0,0.0,0.0,0.0,0.0,0.0,0.0,0.0,0.0,0.0,0.0,0.0,0.0,4.1881,4.1328,4.1283,4.1163,4.0935,4.0888,4.0793,4.0551,4.0355,3.9969,3.9418,3.9418,3.9152,3.8766,3.8766,3.8655,3.8391,3.8391,3.8391,3.8391,3.8391,3.8391,3.8391,3.8391,3.8391,3.8391,3.8391,3.8391,3.8391,3.8391,3.8391,3.8391,3.8391,3.8391,3.8391,3.8391,3.8391,3.8335,3.8132,3.8415,3.8711,3.8415,3.8788,3.9115,3.886,3.8843,3.8898,3.8772,3.8455,3.8116,3.8026,3.778,3.7722,3.7953,3.7953,3.8067,3.8294,3.8124,3.7953,3.7953,3.746,3.7074,3.7074,3.6723,3.6492,3.6492,3.6492,3.6492,3.6492,3.6492,3.6492,3.6492,3.6492,3.6492,3.6492,3.6492,3.6492,3.6492,3.6492,3.6492,3.6492,3.6492,3.6492,3.9396,0.0,0.0,0.0,0.0,0.0,0.0,0.0,0.0,0.0,0.0,0.0,0.0,0.0,0.0,0.0,0.0,0.0,0.0,0.0,0.0,0.0,0.0,0.0,0.0,0.0,0.0,0.0,0.0,0.0,4.1516,4.1472,4.1328,4.0918,4.0888,4.0776,4.0485,4.0485,4.0271,3.9833,3.9833,3.9627,3.9222,3.9222,3.8952,3.86,3.86,3.8504,3.8391,3.8391,3.8391,3.8391,3.8391,3.8391,3.8391,3.8391,3.8391,3.8391,3.8391,3.8391,3.8391,3.856,3.86,3.86,3.8711,3.8766,3.8694,3.8383,3.8662,3.9007,3.8662,3.9044,3.9435,3.9276,3.9239,3.9276,3.947,3.9044,3.8606,3.8629,3.8463,3.8334,3.8574,3.8629,3.8684,3.8903,3.8739,3.8629,3.8629,3.7911,3.7417,3.7417,3.6831,3.6492,3.6492,3.6492,3.6492,3.6492,3.6492,3.6492,3.6492,3.6492,3.6492,3.6492,3.6492,3.6492,3.6492,3.6492,3.6492,3.6492,3.6492,3.6492,0.0,0.0,0.0,0.0,0.0,0.0,0.0,0.0,0.0,0.0,0.0,0.0,0.0,0.0,0.0,0.0,0.0,0.0,0.0,0.0,0.0,0.0,0.0,0.0,0.0,0.0,0.0,0.0,4.292,4.2498,4.1604,4.1534,4.1328,4.0918,4.0888,4.0888,4.0888,4.0888,4.068,4.0305,4.0305,4.007,3.961,3.961,3.9418,3.9023,3.9023,3.8821,3.8448,3.8391,3.8391,3.8391,3.8448,3.8448,3.8448,3.8448,3.8448,3.8448,3.8448,3.8448,3.8504,3.8876,3.9023,3.9077,3.9329,3.9365,3.9365,3.9206,3.9206,3.9206,3.9259,3.9487,3.9781,4.0037,4.007,4.007,4.007,3.9172,3.8518,3.9082,3.8739,3.8518,3.9135,3.9206,3.9418,4.002,3.9592,3.9206,3.9206,3.8197,3.7476,3.7417,3.6892,3.6492,3.6492,3.6492,3.6492,3.6492,3.6492,3.6492,3.6492,3.6492,3.6492,3.6492,3.6492,3.6492,3.6492,3.6492,3.6492,3.6492,3.6492,3.6352,3.8995,0.0,0.0,0.0,0.0,0.0,0.0,0.0,0.0,0.0,0.0,0.0,0.0,0.0,0.0,0.0,0.0,0.0,0.0,0.0,0.0,0.0,0.0,0.0,0.0,0.0,0.0,0.0,4.3375,4.3105,4.2537,4.1864,4.1328,4.0918,4.0888,4.0888,4.0888,4.0888,4.0823,4.0728,4.0728,4.0534,4.0121,4.0121,3.985,3.9454,3.9454,3.9348,3.9259,3.8969,3.8821,3.886,3.9152,3.9259,3.9259,3.9259,3.9259,3.9259,3.9259,3.9259,3.9259,3.9259,3.9276,3.9276,3.9259,3.9259,3.9206,3.8952,3.9276,3.9764,3.9918,3.9969,4.0037,4.007,4.007,4.007,4.007,3.985,3.9627,3.9799,3.9747,3.9679,3.9799,3.985,3.9918,4.007,3.9969,3.985,3.985,3.9189,3.8518,3.8124,3.7519,3.6952,3.6554,3.6492,3.6492,3.6492,3.6492,3.6492,3.6492,3.6492,3.6492,3.6492,3.6492,3.6414,3.6274,3.6414,3.6414,3.6274,3.6274,3.6211,3.8707,3.9643,0.0,0.0,0.0,0.0,4.3248,4.3286,0.0,0.0,0.0,0.0,0.0,0.0,0.0,0.0,0.0,0.0,0.0,0.0,0.0,0.0,0.0,0.0,0.0,4.36,4.3548,4.3548,4.3513,4.3339,4.292,4.199,4.1401,4.1163,4.1012,4.0888,4.0888,4.0888,4.0888,4.0888,4.0888,4.0793,4.0534,4.0534,4.032,3.9885,3.9885,3.9782,3.961,3.954,3.9435,3.9259,3.9506,3.961,3.961,3.961,3.961,3.961,3.961,3.961,3.961,3.9747,3.9747,3.9696,3.9731,3.9679,3.9592,3.9382,3.9661,4.0037,4.0188,4.0188,4.007,4.007,4.007,4.007,4.007,4.007,4.007,4.007,4.007,4.007,4.007,4.007,4.007,4.007,4.007,4.007,4.007,3.9575,3.9082,3.8684,3.7911,3.7238,3.6892,3.6662,3.6492,3.6492,3.6492,3.6492,3.6492,3.6492,3.6492,3.6492,3.6492,3.6414,3.6196,3.6336,3.6289,3.6085,3.6085,3.6022,3.8676,3.935,4.0194,0.0,0.0,0.0,4.2886,4.2957,4.2995,0.0,0.0,0.0,0.0,0.0,0.0,0.0,0.0,0.0,0.0,0.0,0.0,0.0,0.0,0.0,4.3497,4.3497,4.3497,4.3497,4.3497,4.3339,4.292,4.2115,4.1604,4.1516,4.1163,4.0965,4.0888,4.0888,4.0888,4.0888,4.0888,4.0888,4.0888,4.0888,4.068,4.0355,4.0355,4.0121,3.9765,4.0171,4.0104,3.9662,3.9714,3.9765,3.9765,3.9765,3.9765,3.9765,3.9765,3.9765,3.9817,4.0188,4.0238,4.0171,4.037,4.0387,4.0238,4.0121,4.007,4.007,4.007,4.007,4.007,4.007,4.007,4.007,4.007,4.007,4.007,4.007,4.007,4.007,4.007,4.007,4.007,4.007,4.007,4.0087,4.002,3.9523,3.9152,3.9028,3.8026,3.7358,3.7298,3.6846,3.6492,3.6492,3.6492,3.6492,3.6492,3.6492,3.6492,3.6429,3.6429,3.6352,3.6133,3.6133,3.6085,3.5973,3.5973,3.5831,0.0,0.0,0.0,0.0,0.0,0.0,4.3391,4.3375,4.3375,0.0,0.0,0.0,0.0,0.0,0.0,0.0,0.0,0.0,0.0,0.0,0.0,0.0,0.0,0.0,4.3497,4.3497,4.3497,4.3497,4.3497,4.3339,4.292,4.2711,4.2297,4.1516,4.1445,4.1255,4.0871,4.0888,4.0888,4.0888,4.0888,4.0888,4.0888,4.0888,4.0888,4.0776,4.0776,4.0728,4.0662,4.0728,4.0534,4.0188,4.0517,4.0662,4.0662,4.0662,4.0662,4.0662,4.0662,4.0662,4.0614,4.0485,4.0419,4.037,4.0238,4.0188,4.0121,4.0138,4.007,4.007,4.007,4.007,4.007,4.007,4.007,4.007,4.007,4.007,4.007,4.007,4.007,4.007,4.007,4.007,4.007,4.007,4.007,3.9901,3.9418,3.9259,3.881,3.7854,3.7519,3.7178,3.6723,3.6554,3.6492,3.6492,3.6492,3.6414,3.6274,3.6274,3.6211,3.61,3.5958,3.5816,3.5816,3.5816,3.5752,3.5752,3.5752,3.5653,0.0,0.0,0.0,4.1607,0.0,0.0,0.0,4.3069,4.305,0.0,0.0,0.0,0.0,0.0,0.0,0.0,0.0,0.0,0.0,0.0,0.0,0.0,0.0,0.0,4.3497,4.3497,4.3497,4.3497,4.3497,4.341,4.3232,4.2995,4.2673,4.2198,4.199,4.1666,4.1192,4.1209,4.1088,4.0888,4.0888,4.0888,4.0888,4.0888,4.0888,4.0888,4.0888,4.0888,4.0888,4.0888,4.0776,4.0631,4.0823,4.0888,4.0888,4.0888,4.0888,4.0888,4.0888,4.084,4.0793,4.0631,4.0485,4.0387,4.0238,4.0138,4.007,4.007,4.007,4.007,4.007,4.007,4.007,4.007,4.007,4.007,4.007,4.007,4.007,4.007,3.9867,3.9747,4.007,4.007,4.002,3.9696,3.9644,3.9418,3.8849,3.8739,3.8518,3.7895,3.7578,3.7298,3.6952,3.6662,3.6492,3.6492,3.6414,3.6274,3.6196,3.6148,3.61,3.5973,3.5831,3.5688,3.5688,3.5638,3.5589,3.5589,3.5589,3.5539,0.0,0.0,0.0,0.0,0.0,4.2519,0.0,0.0,0.0,4.2727,0.0,0.0,0.0,0.0,0.0,0.0,0.0,0.0,0.0,0.0,0.0,0.0,0.0,0.0,0.0,4.3497,4.3497,4.3497,4.3497,4.3497,4.3497,4.3178,4.2957,4.2882,4.2537,4.211,4.1631,4.1622,4.1453,4.1022,4.1047,4.0965,4.0888,4.0888,4.0888,4.0888,4.0888,4.0888,4.0888,4.0888,4.0888,4.0888,4.0888,4.0888,4.0888,4.0888,4.0888,4.0888,4.0888,4.0793,4.0697,4.0648,4.0453,4.0238,4.0238,4.0188,4.007,4.007,4.007,4.007,4.007,4.007,4.007,4.007,4.007,4.007,4.007,4.007,4.007,3.9969,3.9523,3.9365,4.002,3.9901,3.9627,3.9259,3.9082,3.881,3.8181,3.8124,3.8067,3.7953,3.7519,3.7238,3.7238,3.6708,3.6414,3.6414,3.6289,3.6148,3.6133,3.5973,3.591,3.591,3.5767,3.5638,3.5638,3.5539,3.5504,3.5504,3.5504,3.5504,0.0,0.0,0.0,0.0,4.2787,0.0,0.0,0.0,4.3123,4.3123,0.0,4.2519,4.2498,0.0,0.0,0.0,0.0,0.0,0.0,0.0,0.0,0.0,0.0,0.0,0.0,4.3497,4.3497,4.3497,4.3497,4.3497,4.3497,4.3463,4.3268,4.292,4.2844,4.2624,4.2114,4.2115,4.1894,4.1427,4.1422,4.1237,4.0888,4.0888,4.0888,4.0888,4.0888,4.0888,4.0888,4.0888,4.0888,4.0888,4.0888,4.0888,4.0888,4.0888,4.0888,4.0871,4.0745,4.0697,4.0648,4.0404,4.0238,4.0138,4.0138,4.0121,4.007,4.007,4.007,4.007,4.007,4.007,4.007,4.007,4.007,4.007,4.007,4.007,3.9969,3.9418,3.9259,3.9365,4.002,3.9226,3.8684,3.9135,3.8739,3.8181,3.7578,3.7519,3.7298,3.6769,3.6662,3.66,3.66,3.6414,3.6211,3.6211,3.6085,3.5958,3.5752,3.5604,3.5569,3.5569,3.5554,3.5489,3.5489,3.5504,3.5504,3.5504,3.5504,3.5504,0.0,0.0,0.0,0.0,0.0,0.0,0.0,0.0,4.2616,0.0,0.0,0.0,0.0,0.0,0.0,0.0,4.1225,0.0,0.0,0.0,0.0,0.0,0.0,0.0,0.0,0.0,0.0,0.0,4.3069,4.3069,4.316,4.3375,4.341,4.3268,4.3268,4.3031,4.262,4.2351,4.1977,4.1492,4.1261,4.1041,4.0888,4.0888,4.0888,4.0888,4.0888,4.0888,4.0888,4.0888,4.0888,4.0888,4.084,4.084,4.0888,4.0888,4.084,4.0793,4.0697,4.06,4.0453,4.0238,4.0138,4.007,4.007,4.007,4.007,4.007,4.007,4.007,4.007,4.007,4.007,4.007,4.007,4.007,4.007,3.9799,3.947,3.9259,3.8645,3.8367,3.8957,3.8629,3.8294,3.8197,3.7969,3.7578,3.6952,3.6892,3.6785,3.6554,3.6414,3.6352,3.6352,3.6163,3.6085,3.6085,3.5894,3.5767,3.5604,3.5554,3.5504,3.5504,3.5504,3.5504,3.5504,3.5504,3.5504,3.5504,3.5504,3.5504,4.2826,0.0,0.0,0.0,0.0,0.0,0.0,0.0,0.0,0.0,0.0,0.0,0.0,0.0,4.0756,4.0565,0.0,4.0882,0.0,0.0,0.0,0.0,0.0,0.0,0.0,0.0,0.0,4.2655,4.2559,4.2577,4.2711,4.2976,4.3124,4.3124,4.3124,4.3014,4.2698,4.2382,4.1959,4.1495,4.1198,4.1012,4.0888,4.0888,4.0888,4.0888,4.0888,4.0888,4.0888,4.0888,4.0888,4.0888,4.0745,4.0745,4.084,4.0776,4.0745,4.0648,4.06,4.0453,4.0238,4.0121,4.007,4.007,4.007,4.007,4.007,4.007,4.007,4.007,4.007,4.007,4.007,4.007,4.007,4.007,4.0037,3.9575,3.9065,3.8865,3.7953,3.7326,3.7589,3.778,3.7679,3.7401,3.7238,3.6952,3.6414,3.6429,3.6414,3.6367,3.6226,3.6148,3.6148,3.6037,3.591,3.5861,3.5718,3.5589,3.5504,3.5504,3.5504,3.5504,3.5504,3.5359,3.5198,3.5198,3.5067,3.4868,3.5294,3.5504,0.0,0.0,0.0,4.3178,0.0,0.0,0.0,0.0,4.2074,0.0,0.0,0.0,0.0,3.9853,3.8851,3.8139,3.8614,0.0,0.0,0.0,0.0,0.0,0.0,0.0,0.0,0.0,0.0,4.2021,4.2021,4.208,4.2198,4.2239,4.2239,4.2239,4.2239,4.2253,4.2217,4.2213,4.1955,4.1509,4.1468,4.1283,4.0888,4.0888,4.0888,4.0888,4.0888,4.0888,4.0888,4.0888,4.0888,4.0888,4.0745,4.0697,4.0697,4.0534,4.0534,4.0485,4.0355,4.0238,4.0138,4.007,4.007,4.007,4.007,4.007,4.007,4.007,4.007,4.007,4.007,4.007,4.007,4.007,4.007,4.007,3.9935,3.9401,3.869,3.7978,3.7354,3.6723,3.6148,3.6352,3.6708,3.7071,3.6754,3.6414,3.6037,3.6148,3.6148,3.6037,3.6037,3.6037,3.6037,3.5816,3.5638,3.5504,3.5504,3.5504,3.5504,3.5504,3.5504,3.5504,3.5504,3.5133,3.4312,3.4312,3.3973,3.3297,3.4787,3.5504,0.0,0.0,4.1735,4.1753,0.0,0.0,0.0,0.0,0.0,0.0,0.0,0.0,0.0,3.9304,3.8751,3.8024,3.8108,3.808,0.0,0.0,0.0,0.0,0.0,0.0,0.0,0.0,0.0,4.1525,4.1569,4.1613,4.1735,4.2032,4.2198,4.2198,4.2198,4.2203,4.2195,4.1913,4.1675,4.1485,4.1215,4.1041,4.0888,4.0888,4.0888,4.0888,4.0888,4.0888,4.0888,4.0888,4.084,4.0745,4.0631,4.0485,4.0453,4.0485,4.0436,4.0337,4.0238,4.0138,4.007,4.007,4.007,4.007,4.007,4.007,4.007,4.007,4.007,4.007,4.007,4.007,4.007,4.007,4.0037,3.9816,3.9332,3.8652,3.7978,3.7354,3.6723,3.6258,3.6037,3.61,3.6226,3.6383,3.6274,3.61,3.6037,3.6037,3.6022,3.5973,3.5894,3.5831,3.5831,3.5653,3.5329,3.4758,3.4691,3.4476,3.4002,3.4002,3.4002,3.4002,3.4002,3.3851,3.3561,3.3561,3.3422,3.3213,3.3713,3.4002,4.1561,4.1401,0.0,4.1283,4.1346,0.0,4.1192,0.0,0.0,0.0,0.0,0.0,0.0,0.0,3.8162,3.8017,3.7532,3.7117,0.0,3.6898,3.715,0.0,0.0,0.0,0.0,0.0,4.0283,4.0767,4.075,4.0861,0.0,0.0,4.1753,4.1753,4.1753,4.1753,4.1753,4.1445,4.1283,4.1283,4.1041,4.0888,4.0888,4.0888,4.0888,4.0888,4.0888,4.0888,4.0888,4.0888,4.084,4.0697,4.0534,4.0436,4.0288,4.0337,4.0288,4.0188,4.0138,4.007,4.007,4.007,4.007,4.007,4.007,4.007,4.007,4.007,4.007,4.007,4.007,4.007,4.002,3.9731,3.9625,3.9325,3.8613,3.7905,3.7219,3.6829,3.6258,3.5797,3.5797,3.5797,3.5861,3.591,3.5973,3.5973,3.5861,3.5846,3.591,3.5797,3.5718,3.5509,3.5204,3.489,3.4491,3.3973,3.3905,3.3699,3.3213,3.3213,3.3213,3.3213,3.3213,3.3073,3.2791,3.2791,3.2648,3.239,3.239,3.239]},{"header":{"parameterUnit":"m.s-1","parameterCategory":1,"la1":30.6,"la2":29.2853,"lo1":-89.7004,"lo2":-87.6739,"dy":0.0162,"dx":0.0183,"nx":112,"ny":82,"refTime":"2023-05-31T12:00:00:Z","depth":0,"parameterNumber":3,"parameterNumberName":"V-component_of_WINDS"},"data":[0.0,0.0,0.0,0.0,0.0,0.0,0.0,0.0,0.0,0.0,0.0,0.0,0.0,0.0,0.0,0.0,0.0,0.0,0.0,0.0,0.0,0.0,0.0,0.0,0.0,0.0,0.0,0.0,0.0,0.0,0.0,0.0,0.0,0.0,0.0,0.0,0.0,0.0,0.0,0.0,0.0,0.0,0.0,0.0,0.0,0.0,0.0,0.0,0.0,0.0,0.0,0.0,0.0,0.0,0.0,0.0,0.0,0.0,0.0,0.0,0.0,0.0,0.0,0.0,0.0,0.0,0.0,0.0,0.0,0.0,0.0,0.0,0.0,0.0,0.0,0.0,0.0,0.0,0.0,0.0,0.0,0.0,0.0,0.0,0.0,0.0,0.0,0.0,0.0,0.0,0.0,-1.9043,-1.9206,-1.9268,-1.8991,-1.8481,-1.8176,-1.8031,0.0,0.0,0.0,0.0,0.0,0.0,0.0,0.0,0.0,0.0,0.0,0.0,0.0,0.0,0.0,0.0,0.0,0.0,0.0,0.0,0.0,0.0,0.0,0.0,0.0,0.0,0.0,0.0,0.0,0.0,0.0,0.0,0.0,0.0,0.0,0.0,0.0,0.0,0.0,0.0,0.0,0.0,0.0,0.0,0.0,0.0,0.0,0.0,0.0,0.0,0.0,0.0,0.0,0.0,0.0,0.0,0.0,0.0,0.0,0.0,0.0,0.0,0.0,0.0,0.0,0.0,0.0,0.0,0.0,0.0,0.0,0.0,0.0,0.0,0.0,0.0,0.0,0.0,0.0,0.0,0.0,0.0,0.0,0.0,0.0,0.0,0.0,0.0,0.0,0.0,0.0,0.0,0.0,0.0,0.0,0.0,0.0,0.0,0.0,0.0,0.0,0.0,0.0,0.0,-1.9788,-1.9777,-1.963,-1.9452,-1.9277,-1.9136,-1.8797,-1.8064,0.0,0.0,0.0,0.0,0.0,0.0,0.0,0.0,0.0,0.0,0.0,0.0,0.0,0.0,0.0,0.0,0.0,0.0,0.0,0.0,0.0,0.0,0.0,0.0,0.0,0.0,0.0,0.0,0.0,0.0,0.0,0.0,0.0,0.0,0.0,0.0,0.0,0.0,0.0,0.0,0.0,0.0,0.0,0.0,0.0,0.0,0.0,0.0,0.0,0.0,0.0,0.0,0.0,0.0,0.0,0.0,0.0,0.0,0.0,0.0,0.0,0.0,0.0,0.0,0.0,0.0,0.0,0.0,0.0,0.0,0.0,0.0,0.0,0.0,0.0,0.0,0.0,0.0,0.0,0.0,0.0,0.0,0.0,0.0,0.0,0.0,0.0,0.0,0.0,0.0,0.0,0.0,0.0,0.0,0.0,0.0,0.0,0.0,0.0,0.0,0.0,0.0,0.0,-1.9958,-2.0102,-2.0239,-2.0163,-2.0066,-1.998,-1.9974,-1.987,-1.9431,-1.7642,0.0,0.0,0.0,0.0,0.0,0.0,0.0,0.0,0.0,0.0,0.0,0.0,0.0,0.0,0.0,0.0,0.0,0.0,0.0,0.0,0.0,0.0,0.0,0.0,0.0,0.0,0.0,0.0,0.0,0.0,0.0,0.0,0.0,0.0,0.0,0.0,0.0,0.0,0.0,0.0,0.0,0.0,0.0,0.0,0.0,0.0,0.0,0.0,0.0,0.0,0.0,0.0,0.0,0.0,0.0,0.0,0.0,0.0,0.0,0.0,0.0,0.0,0.0,0.0,0.0,0.0,0.0,0.0,0.0,0.0,0.0,0.0,0.0,0.0,0.0,0.0,0.0,0.0,0.0,0.0,0.0,0.0,0.0,0.0,0.0,0.0,0.0,0.0,0.0,0.0,0.0,0.0,0.0,0.0,0.0,0.0,0.0,0.0,0.0,0.0,0.0,0.0,-2.0406,-2.0476,-2.0617,-2.0602,-2.0566,-2.0566,-2.0572,-2.0582,-2.0635,-1.7345,0.0,0.0,0.0,0.0,0.0,0.0,0.0,0.0,0.0,0.0,0.0,0.0,0.0,0.0,0.0,0.0,0.0,0.0,0.0,0.0,0.0,0.0,0.0,0.0,0.0,0.0,0.0,0.0,0.0,0.0,0.0,0.0,0.0,0.0,0.0,0.0,0.0,0.0,0.0,0.0,0.0,0.0,0.0,0.0,0.0,0.0,0.0,0.0,0.0,0.0,0.0,0.0,0.0,0.0,0.0,0.0,0.0,0.0,0.0,0.0,0.0,0.0,0.0,0.0,0.0,0.0,0.0,0.0,0.0,0.0,0.0,0.0,0.0,0.0,0.0,0.0,0.0,0.0,0.0,0.0,0.0,0.0,0.0,0.0,0.0,0.0,0.0,0.0,0.0,0.0,0.0,0.0,0.0,0.0,0.0,0.0,0.0,0.0,0.0,0.0,0.0,0.0,-2.1145,-2.1165,-2.1155,-2.0789,-2.0566,-2.0566,-2.0624,-2.0615,-2.0585,-1.7291,0.0,0.0,0.0,0.0,0.0,0.0,0.0,0.0,0.0,0.0,0.0,0.0,0.0,0.0,0.0,0.0,0.0,0.0,0.0,0.0,0.0,0.0,0.0,0.0,0.0,0.0,0.0,0.0,0.0,0.0,0.0,0.0,0.0,0.0,0.0,0.0,0.0,0.0,0.0,0.0,0.0,0.0,0.0,0.0,0.0,0.0,0.0,0.0,0.0,0.0,0.0,0.0,0.0,0.0,0.0,0.0,0.0,0.0,0.0,0.0,0.0,0.0,0.0,0.0,0.0,0.0,0.0,0.0,0.0,0.0,0.0,0.0,0.0,0.0,0.0,0.0,0.0,0.0,0.0,0.0,0.0,0.0,0.0,0.0,0.0,0.0,0.0,0.0,0.0,0.0,0.0,0.0,0.0,0.0,0.0,0.0,0.0,0.0,0.0,0.0,0.0,0.0,-2.1051,-2.1061,0.0,-2.0809,-2.0566,-2.0566,-2.0566,-2.0566,-2.0623,0.0,0.0,0.0,0.0,0.0,0.0,0.0,0.0,0.0,0.0,0.0,0.0,0.0,0.0,0.0,0.0,0.0,0.0,0.0,0.0,0.0,0.0,0.0,0.0,0.0,0.0,0.0,0.0,0.0,0.0,0.0,0.0,0.0,0.0,0.0,0.0,0.0,0.0,0.0,0.0,0.0,0.0,0.0,0.0,0.0,0.0,0.0,0.0,0.0,0.0,0.0,0.0,0.0,0.0,0.0,0.0,0.0,0.0,0.0,0.0,0.0,0.0,0.0,0.0,0.0,0.0,0.0,0.0,0.0,0.0,0.0,0.0,0.0,0.0,0.0,0.0,0.0,0.0,0.0,0.0,0.0,0.0,0.0,0.0,0.0,0.0,0.0,0.0,0.0,0.0,0.0,0.0,0.0,0.0,0.0,0.0,0.0,0.0,0.0,0.0,0.0,0.0,-2.1205,-2.1061,-2.1061,0.0,-2.0547,-2.0226,-2.0566,-2.0625,-2.0634,-2.0633,0.0,0.0,0.0,0.0,0.0,0.0,0.0,0.0,0.0,0.0,0.0,0.0,0.0,0.0,0.0,0.0,0.0,0.0,0.0,0.0,0.0,0.0,0.0,0.0,0.0,0.0,0.0,0.0,0.0,0.0,0.0,0.0,0.0,0.0,0.0,0.0,0.0,0.0,0.0,0.0,0.0,0.0,0.0,0.0,0.0,0.0,0.0,0.0,0.0,0.0,0.0,0.0,0.0,0.0,0.0,0.0,0.0,0.0,0.0,0.0,0.0,0.0,0.0,0.0,0.0,0.0,0.0,0.0,0.0,0.0,0.0,0.0,0.0,0.0,0.0,0.0,0.0,0.0,0.0,0.0,0.0,0.0,0.0,0.0,0.0,0.0,0.0,0.0,0.0,0.0,0.0,0.0,0.0,0.0,0.0,0.0,0.0,0.0,0.0,0.0,0.0,0.0,-2.1205,-2.1205,-2.1205,-2.1205,-1.9806,-1.9395,-2.0489,-2.0595,-2.063,0.0,0.0,0.0,0.0,0.0,0.0,0.0,0.0,0.0,0.0,0.0,0.0,0.0,0.0,0.0,0.0,0.0,0.0,0.0,0.0,0.0,0.0,0.0,0.0,0.0,0.0,0.0,0.0,0.0,0.0,0.0,0.0,0.0,0.0,0.0,0.0,0.0,0.0,0.0,0.0,0.0,0.0,0.0,0.0,0.0,0.0,0.0,0.0,0.0,0.0,0.0,0.0,0.0,0.0,0.0,0.0,0.0,0.0,0.0,0.0,0.0,0.0,0.0,0.0,0.0,0.0,0.0,0.0,0.0,0.0,0.0,0.0,0.0,0.0,0.0,0.0,0.0,0.0,0.0,0.0,0.0,0.0,0.0,0.0,0.0,0.0,0.0,0.0,0.0,0.0,0.0,0.0,0.0,0.0,0.0,0.0,0.0,0.0,0.0,0.0,0.0,0.0,0.0,0.0,-2.1205,-2.1215,-2.1322,-2.0615,-2.0201,-2.0545,-2.0593,-2.0617,-2.0627,0.0,0.0,0.0,0.0,0.0,0.0,0.0,0.0,0.0,0.0,0.0,0.0,0.0,0.0,0.0,0.0,0.0,0.0,0.0,0.0,0.0,0.0,0.0,0.0,0.0,0.0,0.0,0.0,0.0,0.0,0.0,0.0,0.0,0.0,0.0,0.0,0.0,0.0,0.0,0.0,0.0,0.0,0.0,0.0,0.0,0.0,0.0,0.0,0.0,0.0,0.0,0.0,0.0,0.0,0.0,0.0,0.0,0.0,0.0,0.0,0.0,0.0,0.0,0.0,0.0,0.0,0.0,0.0,0.0,0.0,0.0,0.0,0.0,0.0,0.0,0.0,0.0,0.0,0.0,0.0,0.0,0.0,0.0,0.0,0.0,0.0,0.0,0.0,0.0,0.0,0.0,0.0,0.0,0.0,0.0,0.0,0.0,0.0,0.0,0.0,0.0,0.0,-2.0722,-2.0964,-2.1225,-2.1409,-2.0517,-2.0121,-2.0543,-1.9311,-1.9154,-2.0489,0.0,0.0,0.0,0.0,0.0,0.0,0.0,0.0,0.0,0.0,0.0,0.0,0.0,0.0,0.0,0.0,0.0,0.0,0.0,0.0,0.0,0.0,0.0,0.0,0.0,0.0,0.0,0.0,0.0,0.0,0.0,0.0,0.0,0.0,0.0,0.0,0.0,0.0,0.0,0.0,0.0,0.0,0.0,0.0,0.0,0.0,0.0,0.0,0.0,0.0,0.0,0.0,0.0,0.0,0.0,0.0,0.0,0.0,0.0,0.0,0.0,0.0,0.0,0.0,0.0,0.0,0.0,0.0,0.0,0.0,0.0,0.0,0.0,0.0,0.0,0.0,0.0,0.0,0.0,0.0,0.0,0.0,0.0,0.0,0.0,0.0,0.0,0.0,0.0,0.0,0.0,0.0,0.0,0.0,0.0,0.0,0.0,0.0,0.0,0.0,0.0,0.0,-1.9982,-2.0634,-2.1215,-2.1332,-2.001,-1.9515,-2.0534,-1.7417,-1.6924,-2.0353,0.0,0.0,0.0,0.0,0.0,0.0,0.0,0.0,0.0,0.0,0.0,0.0,0.0,0.0,0.0,0.0,0.0,0.0,0.0,0.0,0.0,0.0,0.0,0.0,0.0,0.0,0.0,0.0,0.0,0.0,0.0,0.0,0.0,0.0,0.0,0.0,0.0,0.0,0.0,0.0,0.0,0.0,0.0,0.0,0.0,0.0,0.0,0.0,0.0,0.0,0.0,0.0,0.0,0.0,0.0,0.0,0.0,0.0,0.0,0.0,-1.8603,0.0,0.0,0.0,0.0,0.0,0.0,0.0,0.0,0.0,0.0,0.0,0.0,0.0,0.0,0.0,0.0,0.0,0.0,0.0,0.0,0.0,0.0,0.0,0.0,0.0,0.0,0.0,0.0,0.0,0.0,0.0,0.0,0.0,0.0,0.0,0.0,0.0,0.0,0.0,0.0,0.0,-1.9678,-2.0557,-2.1138,-2.1091,-2.0603,-2.032,-2.0562,-1.7359,-1.6887,-2.0382,0.0,0.0,0.0,0.0,0.0,0.0,0.0,0.0,0.0,0.0,0.0,0.0,0.0,0.0,0.0,0.0,0.0,0.0,0.0,0.0,0.0,0.0,0.0,0.0,0.0,0.0,0.0,0.0,0.0,0.0,0.0,0.0,0.0,0.0,0.0,0.0,0.0,0.0,0.0,0.0,0.0,0.0,0.0,0.0,0.0,0.0,0.0,0.0,0.0,0.0,0.0,0.0,0.0,0.0,0.0,0.0,0.0,0.0,0.0,0.0,0.0,-1.8354,0.0,0.0,0.0,0.0,0.0,0.0,0.0,0.0,0.0,0.0,0.0,0.0,0.0,0.0,0.0,0.0,0.0,0.0,0.0,0.0,0.0,0.0,0.0,0.0,0.0,0.0,0.0,0.0,0.0,0.0,0.0,0.0,0.0,0.0,0.0,0.0,0.0,0.0,0.0,0.0,-1.9027,-2.0313,-2.1138,-2.1013,-2.0762,-1.9907,-1.8206,-1.7987,-1.8647,-2.0518,-2.0611,0.0,0.0,0.0,0.0,0.0,0.0,0.0,0.0,0.0,0.0,0.0,0.0,0.0,0.0,0.0,0.0,0.0,0.0,0.0,0.0,0.0,0.0,0.0,0.0,0.0,0.0,0.0,0.0,0.0,0.0,0.0,0.0,0.0,0.0,0.0,0.0,0.0,0.0,0.0,0.0,0.0,0.0,0.0,0.0,0.0,0.0,0.0,0.0,0.0,0.0,0.0,0.0,0.0,-1.631,-1.6106,-1.6037,-1.5514,-1.6234,-1.7951,-1.7854,-1.8322,-1.9075,0.0,0.0,0.0,0.0,0.0,0.0,0.0,0.0,0.0,0.0,0.0,0.0,0.0,0.0,0.0,0.0,0.0,0.0,0.0,0.0,0.0,0.0,0.0,0.0,0.0,-2.3902,-2.4253,0.0,0.0,0.0,0.0,0.0,0.0,0.0,0.0,0.0,0.0,0.0,0.0,-1.8647,-2.0251,-2.1369,-2.1154,-2.0909,-1.9566,-1.6557,-1.8982,-2.0584,-2.0591,-2.0591,-2.0622,0.0,0.0,0.0,0.0,0.0,0.0,0.0,0.0,0.0,0.0,0.0,0.0,0.0,0.0,0.0,0.0,0.0,0.0,0.0,0.0,0.0,0.0,0.0,0.0,0.0,0.0,0.0,0.0,0.0,0.0,0.0,0.0,-1.5613,-1.4832,0.0,0.0,0.0,0.0,0.0,0.0,0.0,0.0,0.0,0.0,0.0,0.0,0.0,-1.5165,-1.5602,-1.5831,-1.6,-1.6057,-1.7098,-1.763,-1.7639,-1.79,-1.8241,-1.8523,-1.847,0.0,-1.9811,-1.9975,0.0,0.0,0.0,0.0,0.0,0.0,0.0,0.0,0.0,0.0,0.0,0.0,0.0,0.0,0.0,0.0,0.0,0.0,0.0,0.0,0.0,0.0,-2.4815,-2.4337,-2.3891,-2.3526,0.0,-2.2252,-2.1578,-2.1502,-2.1359,0.0,0.0,0.0,0.0,0.0,0.0,0.0,-1.9634,-2.1192,-2.2199,-2.1801,-2.1457,-2.0948,-1.9953,-2.0384,-2.0595,-2.0604,-2.0575,-2.0591,-2.0566,-2.1268,0.0,0.0,0.0,0.0,0.0,0.0,0.0,0.0,0.0,0.0,0.0,0.0,0.0,0.0,0.0,0.0,0.0,0.0,0.0,0.0,0.0,0.0,0.0,0.0,0.0,0.0,0.0,0.0,0.0,-1.4966,-1.4106,-1.4178,-1.3535,-1.2666,0.0,0.0,0.0,0.0,0.0,0.0,0.0,0.0,0.0,-1.4639,-1.4887,-1.5444,-1.6333,-1.6583,-1.6838,-1.7046,-1.7179,-1.7246,-1.7254,-1.6944,-1.7098,-1.7568,-1.7641,-1.8204,-1.9018,-1.9325,-1.9246,-1.893,0.0,0.0,0.0,0.0,-2.0769,-2.2317,-2.3588,-2.4097,0.0,0.0,0.0,0.0,0.0,0.0,0.0,0.0,0.0,0.0,0.0,0.0,0.0,-2.3706,-2.3463,-2.3235,-2.2809,-2.2345,-2.1963,0.0,-2.1021,-2.0148,-1.9177,0.0,0.0,0.0,0.0,0.0,-2.0467,-2.1564,-2.2205,-2.1967,-2.1758,-2.1563,-2.1345,-2.132,-2.1486,-2.1955,-2.1159,-2.0609,-2.0595,-2.1362,-2.1645,0.0,0.0,0.0,0.0,0.0,0.0,0.0,0.0,0.0,0.0,0.0,0.0,0.0,0.0,0.0,0.0,0.0,0.0,0.0,0.0,0.0,0.0,0.0,0.0,0.0,0.0,0.0,0.0,-1.4046,-1.3506,-1.3799,-1.3438,-1.275,0.0,0.0,0.0,0.0,0.0,0.0,-1.332,-1.348,-1.3971,-1.4813,-1.5144,-1.5819,-1.6858,-1.6875,-1.7015,-1.7359,-1.6706,-1.6378,-1.6378,-1.5665,-1.5748,-1.6386,-1.6629,-1.7229,-1.8108,-1.8727,-1.9316,-1.9719,-1.9413,-1.965,-2.0197,-2.0372,-2.1235,-2.2497,-2.3999,-2.4603,-2.4877,-2.5577,0.0,-2.5228,-2.4646,0.0,0.0,0.0,0.0,-2.238,-2.3199,-2.3329,-2.3253,-2.3058,-2.3113,-2.3123,-2.2741,-2.2418,-2.2237,0.0,-2.135,-2.0454,-1.9549,0.0,0.0,0.0,0.0,-2.1231,-2.1324,-2.2026,-2.2448,-2.2207,-2.2207,-2.2207,-2.2207,-2.2207,-2.2488,-2.3059,-2.1928,-2.124,-2.1211,-2.1569,-2.1839,-2.1804,0.0,0.0,0.0,0.0,0.0,0.0,0.0,0.0,0.0,0.0,0.0,0.0,0.0,0.0,0.0,0.0,0.0,0.0,0.0,0.0,0.0,0.0,0.0,0.0,0.0,0.0,0.0,0.0,0.0,-1.4291,-1.4424,0.0,0.0,0.0,0.0,-1.3107,-1.2962,-1.3087,-1.3526,-1.4258,-1.494,-1.5644,-1.5913,-1.6175,-1.6445,-1.5801,-1.5492,-1.5506,-1.5514,-1.5506,-1.5431,-1.5431,-1.5431,-1.5445,-1.5837,-1.6537,-1.7646,-1.9402,-1.9552,-1.8762,-1.9719,-2.0197,-2.0197,-2.0197,-2.1261,-2.2917,-2.3635,-2.4381,-2.5003,-2.575,-2.5367,-2.4625,-2.4625,-2.3949,0.0,0.0,-2.3949,-2.3583,-2.4323,-2.4029,-2.3433,-2.3283,-2.3192,-2.3202,-2.3143,-2.2381,-2.1952,0.0,-2.3122,-2.2696,-2.1666,0.0,-2.1365,-2.0782,-2.1381,-2.2006,-2.2386,-2.3004,-2.3347,-2.3076,-2.3076,-2.3076,-2.3076,-2.3076,-2.3036,-2.3083,-2.3043,-2.3002,-2.2972,-2.2187,-2.1818,-2.1827,-2.1896,0.0,0.0,0.0,0.0,0.0,0.0,0.0,0.0,0.0,0.0,0.0,0.0,0.0,0.0,0.0,0.0,0.0,0.0,0.0,0.0,0.0,0.0,0.0,0.0,0.0,0.0,0.0,0.0,-1.3797,-1.3896,0.0,0.0,-1.3046,-1.3238,-1.2738,-1.3326,-1.3738,-1.3921,-1.4171,-1.4455,-1.488,-1.5061,-1.5318,-1.5582,-1.5635,-1.5738,-1.5745,-1.5935,-1.603,-1.603,-1.603,-1.603,-1.6038,-1.6155,-1.6461,-1.6866,-1.8246,-1.9439,-2.0435,-2.0852,-2.1438,-2.211,-2.211,-2.2621,-2.3324,-2.4059,-2.447,-2.477,-2.547,-2.5547,-2.5249,-2.4781,-2.4388,-2.4093,-2.3945,-2.3577,-2.3346,-2.3636,-2.3496,-2.3265,-2.3184,-2.3184,-2.3267,-2.3567,-2.3371,-2.3276,-2.3918,-2.3061,-2.2073,-2.1651,-2.2144,-2.2424,-2.1636,-2.2179,-2.2814,-2.3093,-2.3221,-2.3232,-2.3135,-2.3135,-2.3135,-2.3135,-2.3135,-2.3096,-2.3065,-2.3055,-2.3117,-2.3099,-2.341,-2.3577,-2.3556,-2.297,-2.2987,0.0,0.0,0.0,0.0,0.0,0.0,0.0,0.0,0.0,0.0,0.0,0.0,0.0,0.0,0.0,0.0,0.0,0.0,0.0,0.0,0.0,0.0,0.0,0.0,0.0,0.0,-1.3898,-1.358,-1.3661,-1.3554,-1.2751,-1.3339,-1.3539,-1.3022,-1.3626,-1.4128,-1.4229,-1.4229,-1.4354,-1.4699,-1.4956,-1.5141,-1.5404,-1.5878,-1.6067,-1.6074,-1.6272,-1.6367,-1.6367,-1.6367,-1.6367,-1.6374,-1.6484,-1.6528,-1.6632,-1.7428,-1.8866,-2.0662,-2.082,-2.1651,-2.2666,-2.2666,-2.3104,-2.3759,-2.4363,-2.4568,-2.4649,-2.5051,-2.5212,-2.5292,-2.4729,-2.4568,-2.4487,-2.3958,-2.3722,-2.3639,-2.3639,-2.3639,-2.3639,-2.3639,-2.3639,-2.3732,-2.4043,-2.4105,-2.4188,-2.4488,-2.3432,-2.2601,-2.2518,-2.3038,-2.3143,-2.2064,-2.2679,-2.3135,-2.296,-2.3047,-2.3135,-2.3135,-2.3135,-2.3135,-2.3135,-2.3115,-2.3125,-2.3144,-2.3115,-2.3066,-2.3093,-2.4016,-2.4472,-2.4506,-2.4505,-2.3935,-2.2731,0.0,0.0,0.0,0.0,0.0,0.0,0.0,0.0,0.0,0.0,0.0,0.0,0.0,0.0,0.0,0.0,0.0,0.0,0.0,0.0,0.0,0.0,0.0,-1.3691,-1.4024,-1.4137,-1.3654,-1.4061,-1.4321,-1.4088,-1.4095,-1.4102,-1.4102,-1.4108,-1.4242,-1.4522,-1.4449,-1.4744,-1.528,-1.5575,-1.5754,-1.6027,-1.6293,-1.6382,-1.6382,-1.6389,-1.6396,-1.6396,-1.6396,-1.6396,-1.6418,-1.6733,-1.6872,-1.6894,-1.7201,-1.7956,-1.9066,-1.9687,-2.0671,-2.1744,-2.1744,-2.2639,-2.396,-2.4385,-2.454,-2.454,-2.454,-2.454,-2.454,-2.454,-2.454,-2.454,-2.454,-2.454,-2.454,-2.454,-2.454,-2.454,-2.454,-2.454,-2.454,-2.454,-2.454,-2.454,-2.454,-2.4454,-2.4454,-2.4206,-2.4206,-2.3657,-2.2217,-2.2862,0.0,-2.1872,-2.2511,-2.3057,-2.3047,-2.3047,-2.3047,-2.3047,-2.3055,-2.3084,-2.3038,-2.3055,-2.3115,-2.3065,-2.4028,-2.4516,-2.4588,-2.6189,-2.6228,-2.4579,0.0,0.0,0.0,0.0,0.0,0.0,0.0,0.0,0.0,0.0,0.0,0.0,0.0,0.0,0.0,0.0,0.0,0.0,0.0,0.0,0.0,0.0,-1.5025,-1.4682,-1.4641,-1.4525,-1.4448,-1.4273,-1.4166,-1.4088,-1.4282,-1.4402,-1.4402,-1.4603,-1.4756,-1.4836,-1.4104,-1.4225,-1.5315,-1.4854,-1.5026,-1.6027,-1.6519,-1.6718,-1.6726,-1.6952,-1.7062,-1.7062,-1.7062,-1.7062,-1.7069,-1.7157,-1.7201,-1.7208,-1.7296,-1.7606,-1.8149,-1.9019,-2.0616,-2.2466,-2.2466,-2.3262,-2.4374,-2.4498,-2.454,-2.454,-2.454,-2.454,-2.454,-2.454,-2.454,-2.454,-2.454,-2.454,-2.454,-2.454,-2.454,-2.454,-2.454,-2.454,-2.454,-2.454,-2.454,-2.454,-2.454,-2.4368,-2.4292,-2.4206,-2.4024,-2.3754,-2.3135,-2.3144,0.0,-2.2775,-2.296,-2.2872,-2.2148,-2.2059,-2.2059,-2.2059,-2.2701,-2.2508,-2.1107,-2.2299,-2.3144,-2.3065,-2.3998,-2.4932,-2.5968,-2.6712,-2.6702,0.0,0.0,0.0,0.0,0.0,0.0,0.0,0.0,0.0,0.0,0.0,0.0,0.0,0.0,0.0,0.0,0.0,0.0,0.0,0.0,0.0,0.0,-1.5082,-1.5307,-1.5437,-1.4993,-1.465,-1.4566,-1.3998,-1.3827,-1.4269,-1.373,-1.3622,-1.3977,-1.386,-1.3725,-1.3842,-1.3285,-1.3656,-1.5212,-1.474,-1.5265,-1.6815,-1.7095,-1.737,-1.7465,-1.7647,-1.7735,-1.7728,-1.7596,-1.753,0.0,-1.7391,-1.7326,-1.7326,-1.7326,-1.7426,0.0,0.0,0.0,0.0,0.0,-2.3734,-2.4378,-2.4454,-2.454,-2.454,-2.454,-2.454,-2.454,-2.454,-2.454,-2.454,-2.454,-2.454,-2.454,-2.454,-2.454,-2.454,-2.454,-2.454,-2.454,-2.454,-2.454,-2.4454,-2.4368,-2.4292,0.0,-2.3937,-2.3764,-2.3493,-2.2872,-2.296,-2.296,-2.2599,-2.2872,-2.2872,-2.2325,-2.2325,-2.2325,-2.2325,-2.279,0.0,0.0,0.0,-2.3515,-2.3647,-2.4191,0.0,0.0,0.0,-2.6651,-2.6391,0.0,0.0,0.0,-2.568,-2.5407,0.0,0.0,0.0,0.0,0.0,0.0,0.0,0.0,0.0,0.0,0.0,0.0,0.0,0.0,0.0,0.0,-1.5084,-1.529,-1.5749,-1.5021,-1.4409,-1.4409,-1.351,-1.3221,-1.4125,-1.2925,-1.2442,-1.3288,-1.259,-1.2253,-1.2395,0.0,0.0,0.0,0.0,-1.5918,-1.7717,-1.7925,-1.8117,-1.8408,-1.8408,-1.8408,-1.8401,-1.8108,-1.7984,-1.7962,-1.7633,-1.7494,-1.7486,-1.7413,-1.7362,-1.7426,-1.8079,-1.943,-2.1221,-2.3387,-2.4206,-2.4206,-2.4454,0.0,0.0,-2.454,-2.454,-2.454,-2.454,-2.454,-2.454,-2.454,-2.454,-2.454,-2.454,-2.454,-2.454,-2.454,-2.454,-2.454,-2.454,-2.4454,-2.4368,-2.4206,-2.4206,-2.4024,-2.359,-2.3503,-2.3144,-2.2059,-2.2599,-2.2775,-2.1971,-2.2599,-2.3047,-2.296,0.0,0.0,-2.296,-2.2948,-2.2977,-2.3154,-2.3634,-2.4065,-2.4456,-2.4481,-2.4516,-2.4485,-2.5678,-2.6362,-2.6379,-2.6415,-2.679,-2.7472,-2.6298,-2.6259,0.0,0.0,0.0,0.0,0.0,0.0,0.0,0.0,0.0,0.0,0.0,0.0,0.0,0.0,0.0,-1.4056,-1.3982,-1.4053,-1.4912,-1.3804,-1.3332,-1.4046,-1.3105,-1.2417,-1.2417,-1.2998,-1.3228,-1.2762,-1.3545,-1.3773,-1.3121,-1.2392,0.0,-1.3756,-1.4361,-1.5328,-1.6761,-1.804,-1.8779,-1.9089,0.0,0.0,-1.9081,-1.9023,-1.8994,-1.8979,-1.865,-1.8503,-1.8467,-1.794,-1.7669,-1.7807,-1.9422,-2.0322,-2.0953,-2.3299,-2.4206,-2.4206,-2.4454,-2.454,-2.454,-2.454,-2.454,-2.454,-2.454,-2.454,0.0,-2.454,-2.454,-2.454,-2.454,-2.454,-2.454,-2.454,-2.454,-2.454,-2.454,-2.4368,-2.4292,-2.4206,-2.4024,-2.3754,-2.3503,-2.3503,-2.3329,-2.2872,-2.296,-2.3047,-2.2862,-2.296,-2.2784,-2.205,-2.1961,-2.1961,-2.1961,-2.1998,-2.2372,-2.3436,-2.4038,-2.4415,-2.4481,-2.4506,-2.4532,-2.4535,-2.5663,-2.6534,-2.6928,-2.6977,-2.7001,-2.714,-2.6071,-2.6019,0.0,0.0,0.0,0.0,0.0,0.0,0.0,0.0,0.0,0.0,0.0,-1.1745,0.0,0.0,-1.1939,-1.3539,-1.347,-1.3513,-1.4195,-1.3118,-1.2531,-1.3229,-1.2216,-1.1687,-1.2178,-1.2011,-1.1988,-1.2324,-1.2459,-1.2309,-1.1995,-1.1572,-1.1995,-1.329,-1.4261,-1.5573,-1.7137,-1.8555,-1.9427,-1.9755,-1.9594,-1.952,-1.9506,-1.9184,-1.903,-1.9016,-1.8686,-1.8547,-1.8518,-1.8196,-1.8059,-1.8111,-1.9595,-2.0399,-2.0791,-2.2668,-2.357,-2.4024,-2.4368,-2.4695,-2.485,-2.4623,-2.4695,-2.484,-2.4612,-2.454,-2.454,-2.454,-2.454,-2.454,-2.454,-2.454,-2.454,-2.454,-2.454,-2.454,-2.454,-2.4378,-2.4206,-2.4024,-2.3851,-2.358,-2.3319,-2.3319,-2.3232,-2.3135,-2.3135,-2.3135,-2.3135,-2.3135,-2.296,-2.2413,-2.2413,-2.2413,-2.2599,-2.2677,-2.3038,-2.3764,-2.4024,-2.4292,-2.4495,-2.4475,-2.4467,-2.4492,-2.5084,-2.557,-2.5768,-2.5768,-2.6008,-2.6389,-2.5431,-2.5675,0.0,0.0,0.0,0.0,0.0,0.0,0.0,0.0,-1.0338,-1.009,-1.0608,-1.1204,-1.1384,-1.1395,-1.1826,-1.2911,-1.2951,-1.3049,-1.3538,-1.2484,-1.1883,-1.2264,-1.1362,-1.1085,-1.2221,-1.1208,-1.0858,-1.1777,-1.128,-1.0937,-1.0896,-1.0941,-1.1582,-1.2974,-1.4239,-1.5781,-1.7639,-1.8863,-1.9733,-2.023,-1.9974,-1.9857,-1.9835,-1.9308,-1.9067,-1.9052,-1.873,-1.8511,-1.8394,-1.8394,-1.8357,-1.8397,-1.9169,-1.9884,-2.0572,-2.1825,-2.3005,-2.3917,-2.4364,-2.4872,-2.5295,-2.4923,-2.5057,-2.5285,-2.4912,-2.4799,-2.4799,-2.4799,-2.4625,-2.4441,-2.4441,-2.4441,-2.4441,-2.4441,-2.4625,-2.4799,-2.4722,-2.4548,-2.4287,-2.4015,-2.3839,-2.3663,-2.3389,-2.3389,-2.333,-2.3164,-2.3135,-2.3135,-2.3135,-2.3135,-2.3135,-2.3135,-2.3135,-2.3232,-2.3503,-2.3667,-2.3927,-2.409,-2.3973,-2.4135,-2.4454,-2.454,-2.454,-2.454,-2.454,-2.454,-2.454,-2.454,-2.4861,-2.5505,-2.4861,-2.5359,-0.296,-0.3855,0.0,-0.598,-0.6782,-0.7841,0.0,0.0,-1.118,-1.2334,-1.2182,-1.1807,-1.1812,-1.1361,-1.1328,-1.235,-1.1859,-1.1803,-1.2684,-1.1905,-1.1234,-1.1211,-1.0929,-1.0786,-1.1045,-1.1934,-1.2224,-1.1543,-1.2228,-1.2422,-1.1612,-1.1786,-1.1887,-1.2143,-1.3829,-1.5242,-1.6653,-1.7925,-1.9054,-2.0237,-2.0201,-2.0186,-2.0179,-2.0106,-2.0077,-2.0055,-1.974,-1.9272,-1.8738,-1.8738,-1.8562,-1.8299,-1.8397,-1.9025,-2.0015,-2.1527,-2.2852,-2.3992,-2.4258,-2.5018,-2.5792,-2.574,-2.5761,-2.5792,-2.574,-2.573,-2.573,-2.573,-2.5078,-2.434,-2.434,-2.434,-2.434,-2.434,-2.5088,-2.564,-2.547,-2.5209,-2.5028,-2.4744,-2.4653,-2.4562,-2.4277,-2.4461,-2.4295,-2.3252,-2.3135,-2.3135,-2.3135,-2.3135,-2.3135,-2.3135,-2.3135,-2.3232,-2.3503,-2.3667,-2.3927,-2.409,-2.4272,-2.4454,-2.454,-2.454,-2.454,-2.454,-2.454,-2.454,-2.454,-2.454,-2.454,-2.4615,-2.454,-2.502,-0.3227,0.0,0.0,0.0,-0.6358,-0.7732,-0.8351,-0.9985,-1.1338,-1.1519,-1.1886,-1.1957,-1.1407,-1.1211,-1.1163,0.0,-1.1429,-1.1433,-1.1949,-1.1453,-1.1244,-1.1801,-1.1631,-1.1491,-1.1328,-1.1878,-1.2224,-1.2059,-1.2427,-1.2623,-1.2351,-1.2319,-1.2486,-1.2724,-1.4677,-1.6119,-1.6815,-1.8599,-1.97,-2.023,-2.0047,-1.9959,-1.9952,-1.9769,-1.9674,-1.9667,-1.9535,-1.9323,-1.9074,-1.9074,-1.8994,-1.8869,-1.8869,-1.9363,-2.0108,-2.0848,-2.1838,-2.299,-2.3923,-2.4746,-2.5295,-2.5035,-2.5125,-2.5192,-2.4351,-2.3996,-2.3996,-2.3996,-2.419,-2.4302,-2.4302,-2.4302,-2.4394,-2.4874,-2.4864,-2.4854,-2.5158,-2.5077,-2.4894,-2.4802,-2.47,-2.4506,-2.4414,-2.4506,-2.4398,-2.3935,-2.3887,-2.3887,-2.3887,-2.3887,-2.3887,-2.3887,-2.3751,-2.3693,-2.387,-2.3991,-2.412,-2.4323,-2.4475,-2.454,-2.454,-2.454,-2.454,-2.454,-2.454,-2.454,-2.454,-2.454,-2.454,-2.454,-2.454,-2.47,-0.3554,0.0,0.0,-0.4539,-0.5752,-0.6974,-0.7353,-0.9096,-1.0739,-1.066,-1.1382,-1.1818,-1.1072,-1.1099,-1.1194,-1.1194,-1.1194,-1.1269,-1.1487,-1.1364,-1.1601,-1.2267,-1.2435,-1.2307,-1.214,-1.228,-1.2396,-1.2613,-1.264,-1.2702,-1.2835,-1.284,-1.2937,-1.3127,-1.5062,-1.6292,-1.6726,-1.8651,-1.9729,-1.9967,-1.974,-1.963,-1.9623,-1.9389,-1.9279,-1.9279,-1.9279,-1.9279,-1.9279,-1.9279,-1.9279,-1.9279,-1.9279,-1.9583,-1.9922,-2.0213,-2.1095,-2.2268,-2.3416,-2.4193,-2.4775,-2.4665,-2.4971,-2.5061,-2.4259,-2.3966,-2.3966,-2.3966,-2.407,-2.4267,-2.4267,-2.3985,-2.3994,-2.4849,-2.4652,-2.4465,-2.5232,-2.5242,-2.5159,-2.5066,-2.4879,-2.4775,-2.4775,-2.4775,-2.4775,-2.4775,-2.4775,-2.4687,-2.4443,-2.4414,-2.4414,-2.4414,-2.4232,-2.4226,-2.4326,-2.4195,-2.4313,-2.4528,-2.4461,-2.4454,-2.454,-2.454,-2.454,-2.454,-2.454,-2.454,-2.454,-2.454,-2.454,-2.454,-2.454,-2.454,-0.2852,0.0,-0.3517,-0.4935,-0.4933,-0.5402,-0.8225,-0.8733,-0.9044,-1.0591,-1.1042,-1.1184,-1.1184,-1.1189,-1.1194,-1.1194,-1.1194,-1.1269,-1.1487,-1.1685,-1.1964,-1.2389,-1.28,-1.3131,0.0,-1.3367,-1.3339,-1.3181,-1.3195,-1.32,-1.3204,-1.3204,-1.3118,-1.2931,-1.4417,-1.5449,-1.6192,-1.7373,-1.8417,-1.9301,-1.9294,-1.9294,-1.9294,-1.9279,-1.9279,-1.9279,-1.9279,-1.9279,-1.9279,-1.9279,-1.9279,-1.9279,-1.9279,-1.9279,-1.9376,-1.996,-2.1167,-2.2492,-2.2492,-2.3276,-2.4267,-2.5353,-2.5664,-2.5868,-2.6829,-2.7115,-2.7115,-2.7115,-2.5732,-2.415,-2.415,-2.3367,-2.2785,-2.3556,-2.4553,-2.545,-2.5954,-2.6051,-2.5964,-2.5693,-2.5703,-2.5693,-2.5693,-2.5693,-2.5693,-2.5693,-2.5693,-2.5391,-2.4521,-2.4414,-2.4414,-2.4414,-2.4404,-2.4496,-2.4782,-2.4376,-2.4296,-2.4751,-2.4441,-2.4292,-2.4454,-2.454,-2.454,-2.454,-2.454,-2.454,-2.454,-2.454,-2.454,-2.454,-2.454,-2.454,-0.2858,0.0,-0.3343,-0.4157,-0.4938,-0.5917,-0.7845,-0.8893,-0.982,-1.0895,-1.1146,-1.1194,-1.1194,-1.1194,-1.1194,-1.1194,-1.1194,-1.1316,-1.1666,-1.1775,-1.2072,-1.2772,-1.298,0.0,0.0,0.0,0.0,-1.3564,-1.3564,-1.3564,-1.3564,-1.3442,-1.3683,-1.4296,-1.5366,-1.6336,-1.7354,-1.8355,-1.8955,-1.9279,-1.9279,-1.9279,-1.9279,-1.9279,-1.9279,-1.9279,-1.9279,-1.9279,-1.9279,-1.9279,-1.9279,-1.9279,-1.9279,-1.9376,-1.9576,-1.9983,-2.0601,-2.1326,-2.2224,-2.2719,-2.312,-2.342,-2.3619,-2.3511,-2.3203,-2.3003,-2.3003,-2.3003,-2.3011,-2.302,-2.302,-2.261,-2.2601,-2.4097,-2.4088,-2.4097,-2.5518,-2.582,-2.583,-2.5742,-2.5742,-2.5742,-2.5742,-2.5742,-2.5742,-2.5742,-2.5742,-2.5625,-2.5332,-2.5293,-2.5293,-2.5293,-2.5029,-2.4947,-2.4947,-2.473,-2.4545,-2.4336,-2.454,-2.461,-2.4526,-2.4475,-2.454,-2.454,-2.454,-2.454,-2.454,-2.454,-2.454,-2.454,-2.454,-2.454,-0.2822,-0.3115,-0.3318,-0.4046,-0.4745,-0.5645,-0.7406,-0.8623,-0.9616,-1.0605,-1.0806,-1.0904,-1.1194,-1.1091,-1.1091,-1.1194,-1.1452,-1.1725,-1.2079,-1.1987,-1.2321,-1.3315,-1.3179,0.0,0.0,0.0,0.0,-1.3688,-1.3688,-1.3655,-1.3584,-1.3462,-1.3892,-1.4858,-1.5783,-1.6658,-1.7749,-1.8843,-1.9279,-1.9279,-1.9279,-1.9279,-1.9279,-1.9279,-1.9279,-1.9279,-1.9279,-1.9279,-1.9279,-1.9279,-1.9279,-1.9279,-1.9279,-1.948,-1.9783,-1.9983,-2.03,-2.0617,-2.1623,-2.1928,-2.2021,-2.2426,-2.2526,-2.2426,-2.2114,-2.2013,-2.2013,-2.2013,-2.2215,-2.2526,-2.2526,-2.2114,-2.1996,-2.3502,-2.3203,-2.3003,-2.4833,-2.5226,-2.5226,-2.5635,-2.5742,-2.5742,-2.5742,-2.5742,-2.5742,-2.5742,-2.5742,-2.5742,-2.5742,-2.5742,-2.5742,-2.5742,-2.5478,-2.5303,-2.5303,-2.509,-2.475,-2.4395,-2.4595,-2.4588,-2.4354,-2.4475,-2.454,-2.454,-2.454,-2.454,-2.454,-2.454,-2.454,-2.454,-2.454,-2.454,-0.2725,-0.323,-0.3531,-0.4533,-0.4435,-0.4732,-0.703,-0.7826,-0.8322,-0.962,-0.992,-1.0216,0.0,0.0,-1.0886,-1.1194,-1.185,-1.2465,-1.27,-1.2411,-1.2572,0.0,0.0,0.0,0.0,0.0,0.0,-1.3674,0.0,-1.3589,-1.34,-1.3372,-1.3739,-1.4525,-1.5597,-1.6673,-1.7582,-1.8743,-1.9279,-1.9279,-1.9279,-1.9279,-1.9279,-1.9279,-1.9279,-1.9279,-1.9279,-1.9279,-1.9279,-1.9279,-1.9279,-1.9279,-1.9376,-1.9583,-1.9776,-2.0078,-2.0395,-2.0719,-2.0822,-2.0925,-2.1019,-2.2131,-2.2426,-2.2619,-2.3601,-2.389,-2.389,-2.389,-2.3211,-2.2426,-2.2426,-2.1623,-2.1121,-2.1928,-2.192,-2.2224,-2.4134,-2.4313,-2.4501,-2.5528,-2.5742,-2.5742,-2.5742,-2.5742,-2.5742,-2.5742,-2.5742,-2.5742,-2.5742,-2.5742,-2.5742,-2.5742,-2.5742,-2.5742,-2.5742,-2.5352,-2.5006,-2.4832,-2.4596,-2.4422,-2.4227,-2.4368,-2.454,-2.454,-2.454,-2.454,-2.454,-2.454,-2.454,-2.454,-2.454,-2.454,-0.2927,-0.3531,-0.3934,-0.4634,-0.5035,-0.5634,-0.7229,-0.763,-0.7928,-0.8924,-0.9122,-0.932,0.0,0.0,0.0,-1.1683,-1.2319,0.0,-1.2968,-1.269,0.0,0.0,0.0,-1.323,-1.3651,-1.3688,0.0,0.0,-1.3466,-1.3443,-1.3391,-1.3098,-1.3428,-1.4514,-1.5418,-1.6468,-1.7582,-1.8743,-1.9279,-1.9279,-1.9279,-1.9279,-1.9279,-1.9279,-1.9279,-1.9279,-1.9279,-1.9279,-1.9279,-1.9279,-1.9279,-1.9376,-2.0181,-2.0483,-2.0688,-2.1105,-2.1802,-2.24,-2.1318,-2.0925,-2.0925,-2.1224,-2.1326,-2.1326,-2.1615,-2.1717,-2.1717,-2.1717,-2.1522,-2.1326,-2.1326,-2.0917,-2.0822,-2.1827,-2.2316,-2.2902,-2.4223,-2.4932,-2.5323,-2.5635,-2.5742,-2.5742,-2.5742,-2.5742,-2.5742,-2.5742,-2.5742,-2.5742,-2.5742,-2.5742,-2.5742,-2.5742,-2.5742,-2.5742,-2.5742,-2.5635,-2.5339,-2.4842,-2.4876,-2.4735,-2.4237,-2.4368,-2.454,-2.454,-2.454,-2.454,-2.454,-2.454,-2.454,-2.454,-2.454,-2.454,-0.333,-0.3732,-0.4234,-0.4935,-0.5336,-0.5834,-0.6833,-0.7332,-0.773,-0.8226,-0.8524,0.0,0.0,0.0,0.0,0.0,0.0,0.0,-1.3629,-1.3362,-1.3461,0.0,-1.4117,0.0,-1.448,-1.443,-1.4207,0.0,-1.3503,-1.331,-1.3126,-1.2895,-1.3271,-1.4363,-1.5404,-1.6717,-1.8325,-1.8959,-1.9279,-1.9279,-1.9279,-1.9279,-1.9279,-1.9279,-1.9279,-1.9279,0.0,-1.9279,-1.9279,-1.9279,-1.9279,-1.9376,-2.0483,-2.0987,-2.1183,-2.2106,-2.2902,-2.3294,-2.2021,-2.1623,-2.1522,-2.1019,-2.0925,-2.0925,-2.0925,-2.0925,-2.0925,-2.0925,-2.0925,-2.0925,-2.0925,-2.0822,-2.0822,-2.142,-2.1607,-2.1996,-2.302,-2.3818,-2.4618,-2.5538,-2.5742,-2.5742,-2.5742,-2.5742,-2.5742,-2.5742,-2.5742,-2.5742,-2.5742,-2.5742,-2.5742,-2.5742,-2.5742,-2.5742,-2.5742,-2.583,-2.5543,-2.4851,-2.5077,-2.4956,-2.4237,-2.4368,-2.454,-2.454,-2.454,-2.454,-2.454,-2.454,-2.454,-2.454,-2.454,-2.454,-0.393,-0.4133,-0.4435,-0.5336,-0.5634,-0.5834,-0.6337,-0.6933,-0.7431,-0.7431,0.0,-0.8931,-0.9751,-1.0852,-1.184,-1.2119,0.0,-1.4053,-1.4315,-1.4062,-1.4393,-1.5523,-1.5197,-1.5058,-1.5505,-1.5354,-1.4972,-1.4341,-1.3882,-1.338,-1.2898,-1.285,-1.3407,-1.4498,-1.5547,-1.714,-1.9279,-1.9279,-1.9279,-1.9279,-1.9279,-1.9279,-1.9279,-1.9279,-1.9279,-1.9279,0.0,0.0,-1.9279,-1.9279,-1.9279,-1.9376,-2.0483,-2.1089,-2.1489,-2.2793,-2.3493,-2.3592,-2.282,-2.2526,-2.2325,-2.1224,-2.1019,-2.1121,-2.0917,-2.1019,-2.1121,-2.0917,-2.0925,-2.0925,-2.0925,-2.0925,-2.0925,-2.0925,-2.0601,-2.0593,-2.1522,-2.2207,-2.3294,-2.5333,-2.5742,-2.5742,-2.5742,-2.5742,-2.5742,-2.5742,-2.5742,-2.5742,-2.5742,-2.5742,-2.5732,-2.5732,-2.5732,-2.5732,-2.583,-2.6014,-2.5819,-2.4943,-2.526,-2.5135,-2.4237,-2.4368,-2.454,-2.454,-2.454,-2.454,-2.454,-2.454,-2.454,-2.454,-2.454,-2.454,-0.4634,-0.5035,-0.5336,-0.5536,-0.5937,-0.6334,-0.6337,-0.6537,0.0,0.0,-0.7232,-0.8065,-0.9097,-1.0861,-1.2354,-1.2872,0.0,0.0,0.0,0.0,-1.4652,0.0,0.0,0.0,0.0,0.0,0.0,0.0,0.0,-1.4065,-1.3532,-1.3252,-1.4104,-1.6199,-1.6942,-1.7898,-1.9272,-1.9279,-1.9279,-1.9279,-1.9279,-1.9279,-1.9279,-1.9279,-1.9279,-1.9279,-1.9279,0.0,-1.9279,-1.9279,-1.9279,-1.9376,-2.0483,-2.1089,-2.1489,-2.2793,-2.3493,-2.3592,-2.282,-2.2526,-2.2325,-2.1224,-2.1522,-2.2021,-2.1121,-2.1522,-2.2021,-2.1121,-2.0925,-2.0925,-2.0925,-2.0925,-2.0925,-2.0925,-2.1318,-2.1717,-2.1725,-2.2811,-2.4196,-2.543,-2.5742,-2.5742,-2.5742,-2.5742,-2.5742,-2.5742,-2.5742,-2.5742,-2.5742,-2.5742,-2.5732,-2.6004,-2.6004,-2.611,-2.6304,-2.64,-2.6114,-2.5412,-2.5452,-2.5135,-2.4495,-2.4454,-2.454,-2.454,-2.454,-2.454,-2.454,-2.454,-2.454,-2.454,-2.454,-2.454,-0.5236,-0.5434,-0.5634,-0.5937,-0.6234,-0.6437,-0.6437,0.0,0.0,0.0,-0.8028,-0.9099,-0.9764,0.0,0.0,0.0,0.0,0.0,0.0,0.0,0.0,0.0,0.0,0.0,0.0,0.0,0.0,0.0,0.0,-1.4984,-1.4009,-1.38,-1.4696,-1.6829,-1.7147,-1.8094,-1.968,-1.968,-1.968,-1.948,-1.948,-1.948,-1.948,-1.948,-1.948,-1.948,-1.948,0.0,-1.9279,-1.9279,-1.9279,-1.9376,-2.0483,-2.1089,-2.1489,-2.2793,-2.3493,-2.3592,-2.282,-2.2526,-2.2325,-2.1224,-2.1224,-2.1522,-2.1019,-2.1623,-2.2325,-2.1224,-2.1326,-2.1623,-2.1019,-2.0925,-2.0925,-2.0925,-2.1121,-2.1318,-2.1505,-2.2509,-2.3809,-2.4913,-2.5518,-2.5917,-2.611,-2.612,-2.611,-2.5917,-2.6014,-2.6024,-2.5917,-2.6014,-2.611,-2.61,-2.61,-2.6197,-2.6496,-2.638,-2.606,-2.5584,-2.5409,-2.5077,-2.4485,-2.454,-2.454,-2.454,-2.454,-2.454,-2.454,-2.454,-2.454,-2.454,-2.454,-2.454,-0.5737,-0.5737,-0.5837,-0.6337,-0.6437,-0.6437,-0.6437,-0.7033,0.0,0.0,-0.8924,-1.0146,-1.0763,0.0,-1.3849,0.0,0.0,0.0,0.0,0.0,0.0,0.0,0.0,0.0,0.0,0.0,0.0,0.0,0.0,0.0,-1.4702,-1.4702,-1.5547,-1.7239,-1.745,-1.829,-2.0078,-2.0078,-1.9983,-1.9783,-1.9783,-1.9783,-1.9783,-1.9783,-1.9776,-1.968,-1.968,0.0,0.0,-1.9279,-1.9279,-1.9376,-2.0181,-2.068,-2.1081,-2.2391,-2.2885,-2.2894,-2.2509,-2.2224,-2.1928,-2.1121,-2.1019,-2.1224,-2.1224,-2.2021,-2.2619,-2.1522,-2.1827,-2.2325,-2.142,-2.1121,-2.0925,-2.0925,-2.0719,-2.0719,-2.1302,-2.2308,-2.3311,-2.4393,-2.5489,-2.6294,-2.6496,-2.6496,-2.64,-2.6197,-2.64,-2.64,-2.6197,-2.64,-2.64,-2.6304,-2.6294,-2.636,-2.6547,-2.6421,-2.6074,-2.5431,-2.5252,-2.5026,-2.456,-2.454,-2.454,-2.454,-2.454,-2.454,-2.454,-2.4636,-2.4636,-2.454,-2.4625,-2.4625,-0.6337,-0.6337,-0.6337,-0.6437,-0.6437,-0.6437,-0.6437,0.0,0.0,-0.763,-0.8924,-1.038,-1.1549,-1.3098,-1.4407,0.0,-1.6192,-1.6791,0.0,0.0,0.0,0.0,0.0,0.0,0.0,0.0,0.0,0.0,0.0,0.0,-1.6187,-1.6305,-1.6935,-1.7877,-1.8401,-1.9138,-2.0078,-2.0078,-2.0086,-2.0078,-2.0078,-2.0078,-2.0078,-2.0078,-1.9983,-1.968,-1.968,0.0,0.0,-1.9279,-1.9279,-1.9279,-1.9376,-1.9576,-1.9983,-2.1081,-2.1089,-2.0585,-2.1692,-2.1505,-2.0719,-2.0814,-2.1522,-2.2325,-2.2325,-2.3111,-2.3701,-2.2619,-2.2426,-2.2526,-2.2426,-2.1623,-2.0925,-2.0925,-2.0719,-2.0822,-2.1827,-2.271,-2.3592,-2.4688,-2.5693,-2.6496,-2.6496,-2.6496,-2.6496,-2.6496,-2.6496,-2.6496,-2.6496,-2.6496,-2.6602,-2.6805,-2.6805,-2.6727,-2.6579,-2.6589,-2.6206,-2.5259,-2.5254,-2.5026,-2.456,-2.454,-2.454,-2.454,-2.454,-2.454,-2.454,-2.4924,-2.4924,-2.454,-2.4956,-2.5031,-0.6437,-0.6437,-0.6437,-0.6437,-0.6437,-0.6537,-0.7033,0.0,-0.8428,-0.8924,-0.9916,-1.112,-1.2587,-1.367,-1.4724,-1.5858,-1.6592,-1.7074,-1.7014,0.0,0.0,0.0,0.0,0.0,0.0,0.0,0.0,0.0,0.0,0.0,-1.8304,-1.7996,-1.8101,-1.9042,-1.925,-1.9776,-2.0601,-2.0609,-2.0506,-2.03,-2.03,-2.03,-2.03,-2.03,-2.0308,-2.0205,-2.0205,0.0,0.0,-1.9783,-1.9783,-1.9783,-1.9576,-1.9783,-2.0205,-2.0292,-2.0292,-2.0403,-2.0901,-2.0814,-2.0522,-2.0822,-2.1224,-2.1522,-2.1522,-2.271,-2.3899,-2.282,-2.342,-2.4304,-2.3601,-2.2719,-2.1725,-2.1019,-2.1318,-2.1818,-2.2005,-2.3402,-2.4581,-2.507,-2.5984,-2.6794,-2.6976,-2.6976,-2.688,-2.6794,-2.689,-2.688,-2.6794,-2.688,-2.6873,-2.6691,-2.6576,-2.6505,-2.6589,-2.6072,-2.5616,-2.5254,-2.4964,-2.465,-2.455,-2.454,-2.454,-2.454,-2.4488,-2.4457,-2.4457,-2.4946,-2.5264,-2.5328,-2.5232,-2.52,-0.6539,-0.6437,-0.6437,-0.6437,-0.6437,-0.6634,0.0,0.0,-0.9217,-1.0109,-1.09,-1.1949,-1.356,-1.4169,-1.4817,-1.6488,-1.6978,-1.7267,-1.7455,0.0,0.0,0.0,0.0,0.0,0.0,0.0,0.0,0.0,0.0,0.0,0.0,-1.9361,-1.9361,-1.968,-1.968,-2.0094,-2.0917,-2.0925,-2.0822,-2.0617,-2.0617,-2.0617,-2.0617,-2.0617,-2.0617,-2.0522,0.0,0.0,0.0,-2.0078,-2.0078,-2.0078,-1.9879,-2.0094,-2.0308,-1.9887,-1.9887,-2.0308,-2.0308,-2.0411,-2.0411,-2.0822,-2.0925,-2.0925,-2.0925,-2.2215,-2.3502,-2.2719,-2.3809,-2.5089,-2.4285,-2.38,-2.322,-2.2114,-2.2417,-2.2911,-2.2693,-2.4088,-2.5392,-2.546,-2.6274,-2.7081,-2.7262,-2.7262,-2.7262,-2.7081,-2.7167,-2.7262,-2.7081,-2.7053,-2.6931,-2.661,-2.6156,-2.6002,-2.6175,-2.5595,-2.5171,-2.5037,-2.4726,-2.454,-2.454,-2.454,-2.4529,-2.4498,-2.4522,-2.4607,-2.4925,-2.5221,-2.5529,-2.5784,-2.5507,-2.538,-0.6845,-0.6639,-0.6437,-0.6437,-0.6437,-0.6634,0.0,-0.8619,-0.9805,-1.0583,-1.1477,-1.2642,-1.473,-1.46,-1.5037,-1.7193,-1.7479,-1.7479,-1.7485,0.0,0.0,0.0,0.0,0.0,0.0,0.0,0.0,0.0,0.0,0.0,0.0,-2.0403,-2.0506,-1.968,-1.968,-2.0094,-2.0917,-2.0925,-2.0925,-2.0925,-2.0925,-2.0925,-2.0925,-2.0925,-2.0719,0.0,0.0,0.0,0.0,-2.0078,-2.0078,-2.0078,-2.0078,-2.0078,-2.0086,-1.9776,-1.968,-1.9783,-1.9975,-2.0078,-2.0189,-2.0712,-2.0925,-2.0925,-2.0925,-2.1623,-2.2526,-2.2526,-2.3311,-2.4088,-2.4088,-2.4894,-2.5392,-2.4295,-2.4088,-2.4088,-2.4088,-2.4894,-2.5693,-2.5693,-2.6572,-2.7262,-2.7262,-2.7262,-2.7262,-2.7262,-2.7262,-2.7262,-2.7262,-2.6858,-2.6579,-2.6568,-2.5782,-2.5244,-2.5244,-2.5244,-2.5037,-2.4581,-2.454,-2.454,-2.454,-2.454,-2.4498,-2.4501,-2.449,-2.4935,-2.5912,-2.5858,-2.5719,-2.5423,-2.5738,-2.5895,-0.7042,-0.6742,-0.6739,-0.7135,-0.7528,-0.8117,-0.9501,-1.0386,-1.1175,-1.197,-1.2073,-1.26,-1.4509,-1.4596,-1.4981,-1.6954,-1.7364,-1.7485,0.0,0.0,0.0,0.0,0.0,0.0,0.0,0.0,0.0,0.0,0.0,0.0,0.0,-2.0719,-2.0814,-2.0506,-2.0506,-2.0609,-2.0925,-2.0925,-2.0925,-2.0925,-2.0925,-2.0925,-2.0925,-2.0925,0.0,0.0,0.0,0.0,0.0,-2.0609,-2.0609,-2.0609,-2.0411,-2.0514,-2.0609,-2.0189,-2.0094,-2.0308,-2.0308,-2.0403,-2.0411,-2.0822,-2.0925,-2.0925,-2.0925,-2.1623,-2.2619,-2.3411,-2.38,-2.4088,-2.4088,-2.4384,-2.4492,-2.4187,-2.4688,-2.5187,-2.5187,-2.6081,-2.6764,-2.6764,-2.7061,-2.7262,-2.7262,-2.7262,-2.7262,-2.7262,-2.7262,-2.7148,-2.6827,-2.6662,-2.633,-2.572,-2.5409,-2.5233,-2.5233,-2.4943,-2.4695,-2.455,-2.454,-2.4625,-2.4786,-2.4796,-2.4734,-2.4513,-2.5168,-2.5613,-2.5942,-2.5877,-2.5844,-2.5738,-2.5822,-2.5895,-0.7928,-0.7637,-0.7932,-0.8028,-0.8322,0.0,-1.0485,-1.117,-1.1863,-1.2856,-1.2759,-1.3046,-1.4595,-1.4616,-1.503,-1.6702,-1.7165,-1.737,0.0,0.0,0.0,0.0,0.0,0.0,0.0,0.0,0.0,0.0,0.0,0.0,0.0,-2.0719,-2.0925,-2.0925,-2.0925,-2.0925,-2.0925,-2.0925,-2.0925,-2.0925,-2.0925,-2.0925,-2.0925,-2.0925,0.0,0.0,0.0,0.0,0.0,-2.0925,-2.0925,-2.0925,-2.0719,-2.0719,-2.0814,-2.0403,-2.0411,-2.0522,-2.0522,-2.0522,-2.0522,-2.0822,-2.0925,-2.0925,-2.0925,-2.1326,-2.2215,-2.3701,-2.4088,-2.4285,-2.508,-2.5275,-2.5275,-2.5275,-2.5781,-2.6284,-2.6284,-2.687,-2.7262,-2.7262,-2.7262,-2.7262,-2.7262,-2.7262,-2.72,-2.7024,-2.7003,-2.6837,-2.6372,-2.6165,-2.5854,-2.5285,-2.5078,-2.4964,-2.5051,-2.4781,-2.47,-2.4786,-2.4786,-2.4871,-2.5031,-2.5041,-2.4988,-2.4788,-2.5475,-2.5899,-2.5877,-2.5917,-2.5895,-2.5895,-2.5895,-2.5979,0.0,-0.9118,-0.9608,0.0,0.0,0.0,-1.0685,-1.137,0.0,-1.334,-1.3539,-1.3785,-1.4885,-1.4871,-1.5082,-1.6402,-1.6881,0.0,0.0,0.0,0.0,0.0,0.0,0.0,0.0,0.0,0.0,0.0,0.0,0.0,0.0,-2.0506,-2.0925,-2.0925,-2.0925,-2.0925,-2.0925,-2.0925,-2.0925,-2.0925,-2.0925,-2.0925,-2.0925,-2.0925,0.0,0.0,0.0,0.0,0.0,-2.0925,-2.0925,-2.0925,-2.0925,-2.0925,-2.0822,-2.0617,-2.0522,-2.0522,-2.0522,-2.0522,-2.0522,-2.0822,-2.0925,-2.0925,-2.0925,-2.0925,-2.1318,-2.3393,-2.3989,-2.4482,-2.6668,-2.7156,-2.7262,-2.7262,-2.7262,-2.7262,-2.7262,-2.7262,-2.7262,-2.7262,-2.7262,-2.7262,-2.7262,-2.7231,-2.7065,-2.663,-2.6548,-2.6351,-2.5885,-2.5482,-2.5223,-2.5181,-2.4799,-2.4615,-2.4946,-2.4946,-2.5031,-2.52,-2.52,-2.52,-2.52,-2.52,-2.5253,-2.5284,-2.5665,-2.5877,-2.5895,-2.5895,-2.5895,-2.5895,-2.5895,-2.6135,-1.1658,0.0,-1.0583,-1.0877,-1.117,-1.1755,0.0,-1.3232,-1.3715,-1.401,-1.3823,-1.3734,-1.4646,-1.4612,-1.4758,-1.5875,-1.6483,0.0,0.0,0.0,0.0,0.0,0.0,0.0,0.0,0.0,0.0,0.0,0.0,0.0,0.0,-2.0814,-2.0925,-2.0925,-2.0925,-2.0925,-2.0925,-2.0925,-2.0925,-2.0925,-2.0925,-2.0925,-2.0925,-2.0925,0.0,0.0,0.0,0.0,-2.0925,-2.0925,-2.0925,-2.0925,-2.0925,-2.0925,-2.0917,-2.0822,-2.0822,-2.0822,-2.0822,-2.0822,-2.0822,-2.0925,-2.0925,-2.0925,-2.0925,-2.0925,-2.1224,-2.2518,-2.292,-2.3411,-2.5489,-2.6091,-2.6284,-2.7061,-2.7262,-2.7262,-2.7262,-2.7262,-2.7262,-2.7262,-2.7262,-2.7262,-2.7262,-2.6962,-2.6693,-2.6589,-2.6268,-2.5875,-2.544,-2.5461,-2.534,-2.4985,-2.5019,-2.5126,-2.5391,-2.5126,-2.5031,-2.52,-2.52,-2.5285,-2.5475,-2.5475,-2.5549,-2.5706,-2.5822,-2.5917,-2.5895,-2.5895,-2.5895,-2.5895,-2.6218,-2.6456,-1.3318,-1.2543,-1.2063,-1.216,-1.2355,-1.2743,-1.334,-1.3732,-1.401,-1.4298,0.0,-1.396,-1.44,-1.5023,0.0,-1.5463,0.0,0.0,0.0,0.0,0.0,0.0,0.0,0.0,0.0,0.0,0.0,0.0,0.0,0.0,0.0,-2.1401,-2.1322,-2.1171,-2.1163,-2.1084,-2.0925,-2.0925,-2.0925,-2.0925,-2.0925,-2.0925,-2.0925,-2.0925,-2.0925,0.0,0.0,0.0,-2.0925,-2.0925,-2.0925,-2.0925,-2.0925,-2.0925,-2.0925,-2.0925,-2.0925,-2.0925,-2.0925,-2.0925,-2.0925,-2.0925,-2.0925,-2.0925,-2.0925,-2.1224,-2.1818,-2.2911,-2.361,-2.4304,-2.5984,-2.6476,-2.6572,-2.7156,-2.7262,-2.7262,-2.7262,-2.7262,-2.7262,-2.7262,-2.7086,-2.6941,-2.6941,-2.6558,-2.6277,-2.616,-2.5909,-2.5586,-2.5225,-2.5335,-2.5316,-2.5052,-2.5115,-2.5295,-2.5559,-2.5391,-2.5295,-2.5549,-2.5549,-2.5549,-2.5728,-2.5738,-2.5812,-2.5895,-2.5895,-2.5895,-2.5895,-2.6168,-2.624,-2.6218,-2.661,-2.694,-1.4298,-1.401,-1.363,-1.3152,-1.305,-1.3147,-1.3539,0.0,0.0,0.0,0.0,0.0,0.0,0.0,0.0,0.0,0.0,0.0,0.0,0.0,0.0,0.0,0.0,0.0,0.0,0.0,0.0,0.0,0.0,0.0,0.0,-2.1957,-2.1822,-2.1536,-2.1528,-2.1385,-2.1084,-2.0972,-2.0925,-2.0925,-2.0925,-2.0925,-2.0925,-2.0925,-2.0925,-2.0925,0.0,0.0,-2.0917,-2.1121,-2.1121,-2.1121,-2.1318,-2.142,-2.142,-2.1216,-2.1121,-2.1121,-2.0917,-2.0925,-2.0925,-2.0925,-2.0925,-2.0917,-2.1121,-2.192,-2.302,-2.3998,-2.4992,-2.5984,-2.7061,-2.7262,-2.7262,-2.7262,-2.7262,-2.7262,-2.7262,-2.7262,-2.7241,-2.7169,-2.6837,-2.6548,-2.6475,-2.6173,-2.5826,-2.5616,-2.5588,-2.5485,-2.5253,-2.52,-2.5285,-2.5285,-2.5285,-2.538,-2.5644,-2.5654,-2.5728,-2.5906,-2.5895,-2.5895,-2.5895,-2.5895,-2.5895,-2.5863,-2.5863,-2.5957,-2.6063,-2.6595,-2.6738,-2.661,-2.7103,-2.7534,-1.4298,-1.4675,-1.4962,-1.4196,-1.4106,-1.4106,-1.4202,0.0,0.0,0.0,0.0,0.0,0.0,0.0,0.0,0.0,0.0,0.0,0.0,0.0,0.0,0.0,0.0,0.0,0.0,0.0,0.0,0.0,0.0,0.0,0.0,-2.1957,-2.1934,-2.1878,-2.1878,-2.1854,-2.1798,-2.1211,-2.0925,-2.0925,-2.0925,-2.0925,-2.0925,-2.0925,-2.0925,-2.0925,0.0,-2.0925,-2.1019,-2.1928,-2.2224,-2.2325,-2.3203,-2.3592,-2.3493,-2.2619,-2.2224,-2.2123,-2.1224,-2.0925,-2.0925,-2.0925,-2.0925,-2.1019,-2.203,-2.3011,-2.4097,-2.5197,-2.5586,-2.5984,-2.7061,-2.7262,-2.7262,-2.7262,-2.7262,-2.7262,-2.7262,-2.7262,-2.7148,-2.6755,-2.662,-2.6444,-2.6051,-2.5784,-2.5637,-2.5574,-2.539,-2.5285,-2.5211,-2.538,-2.5559,-2.5559,-2.5728,-2.5812,-2.5812,-2.5812,-2.5895,-2.5895,-2.5895,-2.5895,-2.5895,-2.5895,-2.5924,-2.5876,-2.5876,-2.6251,-2.7021,-2.7115,-2.7115,-2.7103,-2.7534,-2.78,-1.4256,-1.458,-1.4867,-1.4867,-1.5248,-1.5534,-1.5534,0.0,0.0,0.0,0.0,0.0,0.0,0.0,0.0,0.0,0.0,0.0,0.0,0.0,0.0,0.0,0.0,0.0,0.0,0.0,0.0,0.0,0.0,0.0,0.0,0.0,-2.2442,-2.2251,-2.2243,-2.2148,-2.1957,-2.164,-2.1385,-2.1211,-2.1211,-2.1107,-2.0925,-2.0925,-2.1224,-2.1725,0.0,-2.2114,-2.2702,-2.3211,-2.3402,-2.3411,-2.3899,-2.4088,-2.4088,-2.3502,-2.302,-2.2426,-2.1928,-2.2114,-2.2409,-2.1318,-2.1717,-2.261,-2.2526,-2.361,-2.5089,-2.5596,-2.6091,-2.6668,-2.7156,-2.7262,-2.7262,-2.7262,-2.7262,-2.7357,-2.7452,-2.716,-2.6921,-2.6806,-2.6449,-2.5951,-2.5821,-2.5577,-2.5444,-2.5541,-2.553,-2.5464,-2.5549,-2.5728,-2.5728,-2.5728,-2.5812,-2.5895,-2.5895,-2.5895,-2.5895,-2.5895,-2.5895,-2.5895,-2.5895,-2.5902,-2.5909,-2.5915,-2.6798,-2.7521,-2.7918,-2.7929,-2.7754,-2.7406,-2.7926,-2.8203,-1.4226,-1.4388,-1.4675,-1.5248,-1.5724,0.0,0.0,0.0,0.0,0.0,0.0,0.0,0.0,0.0,0.0,0.0,0.0,0.0,0.0,0.0,0.0,0.0,0.0,0.0,0.0,0.0,0.0,0.0,0.0,0.0,0.0,0.0,-2.2895,-2.2617,-2.2609,-2.2592,-2.2429,-2.2312,-2.1989,-2.1568,-2.1771,-2.1788,-2.1439,-2.1636,-2.2198,-2.292,-2.292,-2.3311,-2.4088,-2.4384,-2.4492,-2.4492,-2.4786,-2.4688,-2.4492,-2.4492,-2.38,-2.292,-2.292,-2.3411,-2.3791,-2.2207,-2.2802,-2.3989,-2.3411,-2.4402,-2.579,-2.5984,-2.6668,-2.7357,-2.7357,-2.7262,-2.7262,-2.7262,-2.7274,-2.7285,-2.7369,-2.7013,-2.6658,-2.6746,-2.6146,-2.562,-2.5504,-2.5359,-2.538,-2.5559,-2.5644,-2.5738,-2.5895,-2.5895,-2.5895,-2.5895,-2.5895,-2.5895,-2.5895,-2.5895,-2.5895,-2.5895,-2.5979,-2.5957,-2.5924,-2.5865,-2.6068,-2.6509,-2.7825,-2.8478,-2.8524,-2.8497,-2.8286,-2.7799,-2.8247,-2.851,-1.4226,-1.4771,-1.5337,-1.5432,-1.4962,0.0,-1.6298,-1.6008,0.0,-1.6393,0.0,0.0,0.0,0.0,0.0,0.0,0.0,0.0,0.0,0.0,0.0,0.0,0.0,0.0,0.0,0.0,0.0,0.0,0.0,0.0,0.0,0.0,0.0,-2.2982,-2.2974,-2.3191,-2.3727,-2.3167,-2.2593,-2.1918,-2.3068,-2.3286,-2.292,-2.4047,-2.4345,-2.3989,-2.3989,-2.3989,-2.4187,-2.5187,-2.5596,-2.5693,-2.6668,-2.6466,-2.5596,-2.5596,-2.4894,-2.3989,-2.3989,-2.3998,-2.4088,-2.389,-2.3989,-2.4295,-2.5197,-2.5596,-2.5887,-2.687,-2.7347,-2.7536,-2.7357,-2.7262,-2.7262,-2.7262,-2.7118,-2.6888,-2.698,-2.6816,-2.6451,-2.6094,-2.5955,-2.5764,-2.5328,-2.5401,-2.5559,-2.5559,-2.5728,-2.5895,-2.5895,-2.5895,-2.5895,-2.5895,-2.5895,-2.5895,-2.5895,-2.5895,-2.5895,-2.5895,-2.6207,-2.6307,-2.5948,-2.5864,-2.6631,-2.83,-2.8429,-2.853,-2.8534,-2.8534,-2.8443,-2.8431,-2.851,-2.851,-1.4183,-1.5045,-1.5798,-1.5527,-1.5425,0.0,0.0,-1.6669,-1.6204,-1.6581,-1.6197,0.0,0.0,0.0,0.0,0.0,0.0,0.0,0.0,0.0,0.0,0.0,0.0,0.0,0.0,0.0,0.0,0.0,0.0,0.0,0.0,0.0,0.0,-2.3576,-2.3904,-2.4231,-2.4462,-2.4231,-2.4302,-2.455,-2.4201,-2.3776,-2.3513,-2.4666,-2.5367,-2.549,-2.549,-2.5731,-2.6167,-2.6572,-2.6668,-2.6774,-2.7156,-2.6668,-2.579,-2.6476,-2.5984,-2.5089,-2.5089,-2.5479,-2.5868,-2.4482,-2.4982,-2.6071,-2.579,-2.6187,-2.6764,-2.7156,-2.7139,-2.7087,-2.7379,-2.7421,-2.7315,-2.7315,-2.7038,-2.679,-2.6891,-2.6509,-2.6126,-2.613,-2.5948,-2.5679,-2.5497,-2.5644,-2.5822,-2.5822,-2.5812,-2.5895,-2.5895,-2.5895,-2.5895,-2.5895,-2.5895,-2.5895,-2.5895,-2.6135,-2.629,-2.629,-2.6445,-2.6655,-2.6922,-2.6814,-2.7302,-2.8509,-2.8494,-2.8491,-2.851,-2.851,-2.851,-2.851,-2.851,-2.851,-1.471,-1.5507,-1.6163,-1.5988,0.0,0.0,-1.7037,-1.6763,-1.6298,-1.6588,-1.5913,0.0,0.0,0.0,0.0,0.0,0.0,0.0,0.0,0.0,0.0,0.0,0.0,0.0,0.0,0.0,0.0,0.0,0.0,0.0,0.0,0.0,0.0,0.0,-2.4394,-2.4778,-2.4778,-2.4778,-2.5322,-2.6291,-2.5676,-2.5237,-2.5062,-2.6324,-2.6934,-2.7152,-2.7142,-2.7394,-2.7671,-2.7671,-2.7672,-2.7536,-2.7357,-2.687,-2.637,-2.7061,-2.687,-2.6187,-2.6187,-2.6678,-2.7061,-2.5577,-2.6071,-2.7136,-2.621,-2.6455,-2.7108,-2.6962,-2.6785,-2.671,-2.7313,-2.7154,-2.7003,-2.7104,-2.6743,-2.648,-2.6678,-2.6292,-2.5959,-2.6141,-2.5871,-2.5644,-2.5644,-2.5812,-2.5895,-2.5895,-2.5895,-2.5895,-2.5895,-2.5895,-2.5895,-2.5895,-2.5979,-2.6052,-2.6052,-2.6445,-2.6693,-2.6693,-2.6857,-2.7101,-2.7579,-2.7603,-2.7891,-2.8506,-2.8491,-2.851,-2.851,-2.851,-2.851,-2.851,-2.851,-2.851,-1.5992,-1.6156,-1.6344,0.0,0.0,0.0,-1.6204,-1.6008,-1.5629,-1.6393,0.0,0.0,0.0,0.0,0.0,0.0,0.0,0.0,0.0,0.0,0.0,0.0,0.0,0.0,0.0,0.0,0.0,0.0,0.0,0.0,0.0,0.0,0.0,0.0,-2.4251,-2.4778,-2.4778,-2.4778,-2.5533,-2.6924,-2.7571,-2.7892,-2.8034,-2.9178,-2.9346,-2.8618,-2.8906,-2.8743,-2.8345,-2.8614,-2.8423,-2.7998,-2.7441,-2.7441,-2.7536,-2.7357,-2.7262,-2.7357,-2.7251,-2.7251,-2.7347,-2.7251,-2.7251,-2.7158,-2.6703,-2.6568,-2.6557,-2.6271,-2.6425,-2.6615,-2.6904,-2.6604,-2.6225,-2.6515,-2.6419,-2.6163,-2.6163,-2.6053,-2.5895,-2.5895,-2.5895,-2.5895,-2.5895,-2.5895,-2.5895,-2.5895,-2.5895,-2.5895,-2.5895,-2.5895,-2.5895,-2.5906,-2.629,-2.6528,-2.6528,-2.694,-2.7185,-2.7185,-2.7626,-2.7777,-2.7626,-2.8155,-2.851,-2.851,-2.851,-2.851,-2.851,-2.851,-2.851,-2.851,-2.851,-2.851,-1.4477,-1.6006,0.0,0.0,0.0,0.0,0.0,-1.5153,0.0,0.0,0.0,0.0,0.0,0.0,0.0,0.0,0.0,0.0,0.0,0.0,0.0,0.0,0.0,0.0,0.0,0.0,0.0,0.0,0.0,0.0,0.0,0.0,0.0,-2.4138,-2.5165,-2.5586,-2.5586,-2.5873,-2.6871,-2.8436,-2.8658,-2.8694,-2.8785,-2.9974,-3.0144,-2.9711,-2.9701,-2.9547,-2.9102,-2.8849,-2.8615,-2.8455,-2.7936,-2.7809,-2.7904,-2.7809,-2.7809,-2.7767,-2.745,-2.7345,-2.7292,-2.6862,-2.6848,-2.6827,-2.6679,-2.6637,-2.6615,-2.6468,-2.6282,-2.6126,-2.6388,-2.6141,-2.5894,-2.6487,-2.6292,-2.6029,-2.6029,-2.591,-2.5895,-2.5895,-2.5895,-2.5895,-2.5895,-2.5895,-2.5895,-2.5895,-2.5895,-2.5895,-2.5895,-2.5895,-2.5979,-2.629,-2.6445,-2.6599,-2.694,-2.7441,-2.7708,-2.7708,-2.8111,-2.8191,-2.7857,-2.8259,-2.851,-2.851,-2.851,-2.851,-2.851,-2.851,-2.851,-2.851,-2.851,-2.851,-1.5812,-1.74,0.0,0.0,0.0,0.0,0.0,0.0,0.0,0.0,0.0,0.0,0.0,0.0,0.0,0.0,0.0,0.0,0.0,0.0,0.0,0.0,0.0,0.0,0.0,0.0,0.0,0.0,0.0,0.0,0.0,0.0,-2.3648,-2.4038,-2.4959,-2.5459,-2.5394,-2.6338,-2.7487,-2.883,-2.9326,-2.9733,-3.0141,-3.0703,-3.0771,-3.0391,-3.0301,-3.0156,-2.9966,-2.9374,-2.9064,-2.8967,-2.8487,-2.8263,-2.8164,-2.7796,-2.7732,-2.7657,-2.72,-2.704,-2.6998,-2.6711,-2.6615,-2.6583,-2.6392,-2.6338,-2.6296,-2.6203,-2.6033,-2.5808,-2.6065,-2.5945,-2.5804,-2.6193,-2.6114,-2.5895,-2.5895,-2.5895,-2.5895,-2.5895,-2.5895,-2.5895,-2.5895,-2.5895,-2.5895,-2.5895,-2.5895,-2.5895,-2.5895,-2.5895,-2.6052,-2.6445,-2.6693,-2.694,-2.7452,-2.7869,-2.8122,-2.8122,-2.8351,-2.8351,-2.8122,-2.8351,-2.851,-2.851,-2.851,-2.851,-2.851,-2.851,-2.851,-2.851,-2.851,-2.851,-1.8635,0.0,0.0,0.0,0.0,0.0,0.0,0.0,0.0,0.0,0.0,0.0,0.0,0.0,0.0,0.0,0.0,0.0,0.0,0.0,0.0,0.0,0.0,0.0,0.0,0.0,0.0,0.0,0.0,0.0,0.0,-2.2274,-2.2841,-2.3249,-2.4153,-2.4627,-2.4444,-2.6096,-2.7441,-2.8369,-2.9559,-3.0583,-3.1367,-3.1246,-3.1127,-3.0899,-3.0622,-3.0697,-3.0854,-3.0035,-2.9667,-2.9478,-2.8892,-2.8507,-2.8276,-2.7526,-2.7264,-2.7189,-2.6721,-2.664,-2.6551,-2.6587,-2.6576,-2.6501,-2.6064,-2.5936,-2.585,-2.5678,-2.5644,-2.5644,-2.5812,-2.5895,-2.5895,-2.5895,-2.5895,-2.5895,-2.5895,-2.5895,-2.5895,-2.5895,-2.5895,-2.5895,-2.5895,-2.5895,-2.5895,-2.5979,-2.5979,-2.5979,-2.5979,-2.5979,-2.6135,-2.661,-2.7021,-2.7441,-2.7881,-2.8283,-2.851,-2.851,-2.851,-2.851,-2.851,-2.851,-2.851,-2.851,-2.851,-2.851,-2.851,-2.851,-2.851,-2.851,-2.851,-2.851,-1.6145,-1.7304,0.0,0.0,0.0,0.0,0.0,0.0,0.0,0.0,0.0,0.0,0.0,0.0,0.0,0.0,0.0,0.0,0.0,0.0,0.0,0.0,0.0,0.0,0.0,0.0,0.0,0.0,0.0,0.0,-2.1582,-2.2122,-2.259,-2.3008,-2.3505,-2.3752,-2.3735,-2.5013,-2.6103,0.0,-2.8131,-2.8955,-2.9423,-3.0841,-3.1527,-3.1403,-3.1004,-3.0898,-3.0832,-2.9883,-2.9576,-2.9412,-2.8462,-2.8104,-2.8054,-2.7475,-2.729,-2.7225,-2.6769,-2.6607,-2.6541,-2.6162,-2.6042,-2.6021,-2.5912,-2.588,-2.5858,-2.5844,-2.5812,-2.5822,-2.5906,-2.5895,-2.5895,-2.5895,-2.5895,-2.5895,-2.5895,-2.5895,-2.5895,-2.5895,-2.5895,-2.5895,-2.5895,-2.5895,-2.5979,-2.629,-2.6693,-2.694,-2.694,-2.694,-2.7115,-2.7545,-2.7708,-2.7962,-2.8351,-2.8431,-2.851,-2.851,-2.851,-2.851,-2.851,-2.851,-2.851,-2.851,-2.851,-2.851,-2.851,-2.851,-2.851,-2.851,-2.851,-2.851,0.0,0.0,0.0,0.0,0.0,0.0,0.0,0.0,0.0,0.0,0.0,0.0,0.0,0.0,0.0,0.0,0.0,0.0,0.0,0.0,0.0,0.0,0.0,0.0,0.0,0.0,0.0,0.0,0.0,0.0,-2.1581,-2.1862,-2.2236,-2.2639,-2.285,-2.3146,-2.371,-2.489,-2.5954,-2.6722,-2.7957,-2.8632,-2.879,-3.0035,-3.0723,-3.0919,-3.0428,-3.022,-3.0166,-2.9434,-2.8997,-2.8746,-2.8233,-2.7894,-2.7632,-2.7162,-2.6988,-2.6922,-2.6441,-2.6278,-2.6234,-2.5983,-2.5895,-2.5895,-2.5895,-2.5895,-2.5895,-2.5895,-2.5895,-2.5895,-2.5895,-2.5895,-2.5895,-2.5895,-2.5895,-2.5895,-2.5895,-2.5895,-2.5895,-2.5895,-2.5895,-2.5979,-2.6135,-2.6373,-2.6622,-2.6775,-2.7021,-2.7185,-2.7185,-2.7185,-2.736,-2.7881,-2.7893,-2.8042,-2.8431,-2.851,-2.851,-2.851,-2.851,-2.851,-2.851,-2.851,-2.851,-2.851,-2.851,-2.851,-2.851,-2.851,-2.851,-2.851,-2.851,-2.851,-1.7722,0.0,0.0,0.0,0.0,0.0,0.0,0.0,0.0,0.0,0.0,0.0,0.0,0.0,0.0,0.0,0.0,0.0,0.0,0.0,0.0,0.0,0.0,0.0,0.0,0.0,0.0,0.0,0.0,-2.1096,-2.1642,-2.1741,-2.1887,-2.2217,-2.2226,-2.2648,-2.3629,-2.4901,-2.5829,-2.6389,-2.7635,-2.8375,-2.8517,-2.8844,-2.9347,-2.9936,-2.9445,-2.9237,-2.9194,-2.8702,-2.8276,-2.7905,-2.7829,-2.7545,-2.714,-2.6671,-2.6507,-2.6441,-2.6037,-2.5895,-2.5895,-2.5895,-2.5895,-2.5895,-2.5895,-2.5895,-2.5895,-2.5895,-2.5895,-2.5895,-2.5895,-2.5895,-2.5895,-2.5895,-2.5895,-2.5895,-2.5895,-2.5979,-2.5979,-2.5979,-2.6063,-2.6218,-2.6528,-2.7021,-2.7348,-2.7348,-2.7348,-2.7429,-2.7429,-2.7429,-2.7603,-2.7962,-2.7962,-2.8122,-2.851,-2.851,-2.851,-2.851,-2.851,-2.851,-2.851,-2.851,-2.851,-2.851,-2.851,-2.851,-2.851,-2.851,-2.851,-2.851,-2.851,-2.851,0.0,0.0,0.0,0.0,0.0,0.0,0.0,0.0,0.0,0.0,0.0,0.0,0.0,0.0,0.0,0.0,0.0,0.0,0.0,0.0,0.0,0.0,0.0,0.0,0.0,0.0,0.0,0.0,0.0,-2.0744,-2.1642,-2.1741,-2.1759,-2.1814,-2.1814,-2.1841,-2.1986,-2.3428,-2.4149,-2.4236,-2.5637,-2.6715,-2.749,-2.7162,-2.7719,-2.8921,-2.844,-2.8233,-2.8189,-2.7697,-2.7468,-2.737,-2.6977,-2.678,-2.666,-2.6179,-2.5994,-2.5983,-2.5917,-2.5895,-2.5895,-2.5895,-2.5895,-2.5895,-2.5895,-2.5895,-2.5895,-2.5895,-2.5895,-2.5895,-2.5895,-2.5895,-2.5895,-2.5895,-2.5895,-2.5895,-2.5895,-2.6135,-2.6445,-2.6445,-2.6775,-2.7021,-2.7103,-2.7534,-2.78,-2.78,-2.8111,-2.8351,-2.8351,-2.8351,-2.8351,-2.8431,-2.8431,-2.8431,-2.851,-2.851,-2.851,-2.851,-2.851,-2.851,-2.851,-2.851,-2.851,-2.851,-2.851,-2.851,-2.851,-2.851,-2.851,-2.851,-2.851,-2.851,-1.5334,0.0,0.0,0.0,0.0,0.0,0.0,0.0,0.0,0.0,0.0,0.0,0.0,0.0,0.0,0.0,0.0,0.0,0.0,0.0,0.0,0.0,0.0,0.0,0.0,0.0,0.0,0.0,-2.0456,-2.1284,-2.1651,-2.1741,-2.1741,-2.1741,-2.1741,-2.1909,-2.2274,-2.329,-2.4231,-2.502,-2.5633,-2.6114,-2.6518,-2.631,-2.6856,-2.7927,-2.7446,-2.725,-2.7217,-2.6725,-2.6518,-2.6496,-2.6299,-2.6223,-2.619,-2.5983,-2.5895,-2.5895,-2.5895,-2.5895,-2.5895,-2.5895,-2.5895,-2.5895,-2.5895,-2.5895,-2.5895,-2.5895,-2.5895,-2.5895,-2.5895,-2.5895,-2.5895,-2.5895,-2.6052,-2.6207,-2.6207,-2.6362,-2.661,-2.6857,-2.7278,-2.7615,-2.7615,-2.795,-2.8283,-2.8283,-2.8351,-2.851,-2.851,-2.851,-2.851,-2.851,-2.851,-2.851,-2.851,-2.851,-2.851,-2.851,-2.851,-2.851,-2.851,-2.851,-2.851,-2.851,-2.851,-2.851,-2.851,-2.851,-2.851,-2.851,-2.851,-2.851,0.0,0.0,0.0,0.0,0.0,0.0,0.0,0.0,0.0,0.0,0.0,0.0,0.0,0.0,0.0,0.0,0.0,0.0,0.0,0.0,0.0,0.0,0.0,0.0,0.0,0.0,0.0,0.0,-2.0447,-2.1275,-2.1651,-2.1741,-2.1741,-2.1741,-2.1741,-2.2008,-2.2539,-2.3212,-2.4241,-2.5644,-2.5644,-2.5728,-2.5895,-2.5895,-2.6289,-2.6933,-2.6594,-2.6441,-2.642,-2.6048,-2.5895,-2.5895,-2.5895,-2.5895,-2.5895,-2.5895,-2.5895,-2.5895,-2.5895,-2.5895,-2.5895,-2.5895,-2.5895,-2.5895,-2.5895,-2.5895,-2.5895,-2.5895,-2.5895,-2.5895,-2.5895,-2.5812,-2.5728,-2.5728,-2.5874,-2.6102,-2.6445,-2.6693,-2.694,-2.7185,-2.7696,-2.7962,-2.78,-2.7938,-2.8099,-2.7834,-2.8007,-2.8179,-2.8179,-2.8339,-2.851,-2.851,-2.851,-2.851,-2.851,-2.851,-2.851,-2.851,-2.851,-2.851,-2.851,-2.851,-2.851,-2.851,-2.851,-2.851,-2.851,-2.851,-2.851,-2.851,-2.851,-2.851,0.0,0.0,0.0,0.0,0.0,0.0,0.0,0.0,0.0,0.0,0.0,0.0,0.0,0.0,0.0,0.0,0.0,0.0,0.0,0.0,0.0,0.0,0.0,0.0,0.0,0.0,0.0,0.0,-1.9347,-2.0266,-2.1642,-2.1741,-2.1741,-2.1741,-2.1741,-2.1741,-2.1741,-2.2451,-2.357,-2.4946,-2.4946,-2.5295,-2.5895,-2.5895,-2.5928,-2.5972,-2.595,-2.5939,-2.5928,-2.5917,-2.5895,-2.5895,-2.5895,-2.5895,-2.5895,-2.5895,-2.5895,-2.5895,-2.5895,-2.5895,-2.5895,-2.5895,-2.5895,-2.5895,-2.5895,-2.5895,-2.5895,-2.5895,-2.5895,-2.5895,-2.5895,-2.5549,-2.52,-2.52,-2.4935,-2.4925,-2.6185,-2.7208,-2.7708,-2.7267,-2.7846,-2.8179,-2.7348,-2.7267,-2.6928,-2.608,-2.667,-2.7267,-2.7267,-2.8007,-2.851,-2.851,-2.851,-2.851,-2.851,-2.851,-2.851,-2.851,-2.851,-2.851,-2.851,-2.851,-2.851,-2.851,-2.851,-2.851,-2.851,-2.851,-2.851,-2.851,-2.851,-2.851,0.0,0.0,0.0,0.0,0.0,0.0,0.0,0.0,0.0,0.0,0.0,0.0,0.0,0.0,0.0,0.0,0.0,0.0,0.0,0.0,0.0,0.0,0.0,0.0,0.0,0.0,0.0,0.0,0.0,-1.953,-2.0718,-2.0808,-2.1087,-2.1651,-2.1741,-2.1919,-2.2362,-2.2715,-2.3309,-2.4155,-2.4155,-2.4584,-2.5295,-2.5295,-2.5464,-2.5895,-2.5895,-2.5895,-2.5895,-2.5895,-2.5895,-2.5895,-2.5895,-2.5895,-2.5895,-2.5895,-2.5895,-2.5895,-2.5895,-2.5895,-2.5895,-2.5895,-2.5895,-2.5895,-2.5895,-2.5895,-2.5979,-2.6207,-2.579,-2.538,-2.579,-2.5189,-2.468,-2.5115,-2.5105,-2.502,-2.5179,-2.5695,-2.6196,-2.6257,-2.6577,-2.6659,-2.6329,-2.6329,-2.6163,-2.583,-2.608,-2.6329,-2.6329,-2.7092,-2.7684,-2.7684,-2.8179,-2.851,-2.851,-2.851,-2.851,-2.851,-2.851,-2.851,-2.851,-2.851,-2.851,-2.851,-2.851,-2.851,-2.851,-2.851,-2.851,-2.851,-2.851,-2.851,-1.4926,0.0,0.0,0.0,0.0,0.0,0.0,0.0,0.0,0.0,0.0,0.0,0.0,0.0,0.0,0.0,0.0,0.0,0.0,0.0,0.0,0.0,0.0,0.0,0.0,0.0,0.0,0.0,0.0,0.0,-2.0249,-2.0339,-2.0718,-2.1642,-2.1741,-2.1909,-2.2441,-2.2441,-2.2784,-2.3464,-2.3464,-2.381,-2.4509,-2.4509,-2.4935,-2.5549,-2.5549,-2.5728,-2.5895,-2.5895,-2.5895,-2.5895,-2.5895,-2.5895,-2.5895,-2.5895,-2.5895,-2.5895,-2.5895,-2.5895,-2.5895,-2.5644,-2.5549,-2.5549,-2.538,-2.5295,-2.5369,-2.5768,-2.5348,-2.485,-2.5348,-2.4754,-2.4166,-2.4423,-2.4519,-2.4423,-2.4069,-2.4754,-2.5432,-2.5326,-2.5579,-2.5735,-2.5411,-2.5326,-2.5242,-2.4904,-2.5158,-2.5326,-2.5326,-2.6423,-2.7185,-2.7185,-2.8007,-2.851,-2.851,-2.851,-2.851,-2.851,-2.851,-2.851,-2.851,-2.851,-2.851,-2.851,-2.851,-2.851,-2.851,-2.851,-2.851,-2.851,-2.851,-2.851,0.0,0.0,0.0,0.0,0.0,0.0,0.0,0.0,0.0,0.0,0.0,0.0,0.0,0.0,0.0,0.0,0.0,0.0,0.0,0.0,0.0,0.0,0.0,0.0,0.0,0.0,0.0,0.0,-1.7232,-1.8149,-2.0068,-2.0257,-2.0718,-2.1642,-2.1741,-2.1741,-2.1741,-2.1741,-2.2087,-2.2803,-2.2803,-2.3135,-2.38,-2.38,-2.4155,-2.4861,-2.4861,-2.5211,-2.5812,-2.5895,-2.5895,-2.5895,-2.5812,-2.5812,-2.5812,-2.5812,-2.5812,-2.5812,-2.5812,-2.5812,-2.5728,-2.5126,-2.4861,-2.4775,-2.4337,-2.4241,-2.4241,-2.4498,-2.4498,-2.4498,-2.4413,-2.4079,-2.3667,-2.3232,-2.3135,-2.3135,-2.3135,-2.4478,-2.5495,-2.4659,-2.5158,-2.5495,-2.4573,-2.4498,-2.4155,-2.3222,-2.3907,-2.4498,-2.4498,-2.6008,-2.7103,-2.7185,-2.7926,-2.851,-2.851,-2.851,-2.851,-2.851,-2.851,-2.851,-2.851,-2.851,-2.851,-2.851,-2.851,-2.851,-2.851,-2.851,-2.851,-2.851,-2.851,-2.8657,-1.4097,0.0,0.0,0.0,0.0,0.0,0.0,0.0,0.0,0.0,0.0,0.0,0.0,0.0,0.0,0.0,0.0,0.0,0.0,0.0,0.0,0.0,0.0,0.0,0.0,0.0,0.0,0.0,-1.6109,-1.6763,-1.8056,-1.9521,-2.0718,-2.1642,-2.1741,-2.1741,-2.1741,-2.1741,-2.182,-2.1998,-2.1998,-2.2353,-2.3047,-2.3047,-2.3474,-2.4059,-2.4059,-2.4231,-2.4413,-2.4946,-2.5211,-2.5115,-2.4584,-2.4413,-2.4413,-2.4413,-2.4413,-2.4413,-2.4413,-2.4413,-2.4413,-2.4413,-2.4423,-2.4423,-2.4413,-2.4413,-2.4498,-2.4935,-2.4423,-2.3657,-2.3396,-2.3309,-2.3232,-2.3135,-2.3135,-2.3135,-2.3135,-2.3474,-2.381,-2.356,-2.3647,-2.3724,-2.356,-2.3474,-2.3396,-2.3135,-2.3309,-2.3474,-2.3474,-2.4488,-2.5495,-2.608,-2.701,-2.7846,-2.8431,-2.851,-2.851,-2.851,-2.851,-2.851,-2.851,-2.851,-2.851,-2.851,-2.851,-2.8578,-2.8724,-2.8578,-2.8578,-2.8724,-2.8724,-2.8803,-1.4088,-1.4429,0.0,0.0,0.0,0.0,-1.617,-1.6292,0.0,0.0,0.0,0.0,0.0,0.0,0.0,0.0,0.0,0.0,0.0,0.0,0.0,0.0,0.0,0.0,0.0,-1.5547,-1.5635,-1.5635,-1.573,-1.6204,-1.7232,-1.9247,-2.0529,-2.1087,-2.1463,-2.1741,-2.1741,-2.1741,-2.1741,-2.1741,-2.1741,-2.1919,-2.2353,-2.2353,-2.2696,-2.3377,-2.3377,-2.3551,-2.38,-2.3993,-2.4166,-2.4413,-2.3973,-2.38,-2.38,-2.38,-2.38,-2.38,-2.38,-2.38,-2.38,-2.3647,-2.3647,-2.3734,-2.3637,-2.3724,-2.3907,-2.4251,-2.3831,-2.3232,-2.2969,-2.2969,-2.3135,-2.3135,-2.3135,-2.3135,-2.3135,-2.3135,-2.3135,-2.3135,-2.3135,-2.3135,-2.3135,-2.3135,-2.3135,-2.3135,-2.3135,-2.3135,-2.3135,-2.3897,-2.4659,-2.5242,-2.6423,-2.7429,-2.7926,-2.8259,-2.851,-2.851,-2.851,-2.851,-2.851,-2.851,-2.851,-2.851,-2.851,-2.8578,-2.8791,-2.8645,-2.8736,-2.8961,-2.8961,-2.904,-1.4173,-1.4322,-1.4629,0.0,0.0,0.0,-1.6893,-1.7138,-1.7044,0.0,0.0,0.0,0.0,0.0,0.0,0.0,0.0,0.0,0.0,0.0,0.0,0.0,0.0,0.0,-1.5832,-1.5832,-1.5832,-1.5832,-1.5832,-1.6204,-1.7232,-1.8972,-2.0068,-2.0249,-2.1087,-2.1553,-2.1741,-2.1741,-2.1741,-2.1741,-2.1741,-2.1741,-2.1741,-2.1741,-2.2087,-2.2715,-2.2715,-2.3047,-2.3541,-2.296,-2.3038,-2.3714,-2.3627,-2.3541,-2.3541,-2.3541,-2.3541,-2.3541,-2.3541,-2.3541,-2.3454,-2.2969,-2.2882,-2.296,-2.2608,-2.2618,-2.2882,-2.3047,-2.3135,-2.3135,-2.3135,-2.3135,-2.3135,-2.3135,-2.3135,-2.3135,-2.3135,-2.3135,-2.3135,-2.3135,-2.3135,-2.3135,-2.3135,-2.3135,-2.3135,-2.3135,-2.3135,-2.3144,-2.3222,-2.3983,-2.4584,-2.4744,-2.6257,-2.7267,-2.7348,-2.8018,-2.851,-2.851,-2.851,-2.851,-2.851,-2.851,-2.851,-2.859,-2.859,-2.8657,-2.887,-2.887,-2.8961,-2.9131,-2.9131,-2.9275,0.0,0.0,0.0,0.0,0.0,0.0,-1.6008,-1.6109,-1.6109,0.0,0.0,0.0,0.0,0.0,0.0,0.0,0.0,0.0,0.0,0.0,0.0,0.0,0.0,0.0,-1.5832,-1.5832,-1.5832,-1.5832,-1.5832,-1.6204,-1.7232,-1.7692,-1.8611,-2.0249,-2.0439,-2.0907,-2.1731,-2.1741,-2.1741,-2.1741,-2.1741,-2.1741,-2.1741,-2.1741,-2.1741,-2.1909,-2.1909,-2.1998,-2.2078,-2.1998,-2.2353,-2.2969,-2.2344,-2.2078,-2.2078,-2.2078,-2.2078,-2.2078,-2.2078,-2.2078,-2.2167,-2.2441,-2.252,-2.2608,-2.2882,-2.2969,-2.3047,-2.3057,-2.3135,-2.3135,-2.3135,-2.3135,-2.3135,-2.3135,-2.3135,-2.3135,-2.3135,-2.3135,-2.3135,-2.3135,-2.3135,-2.3135,-2.3135,-2.3135,-2.3135,-2.3135,-2.3135,-2.3387,-2.4155,-2.4413,-2.5084,-2.6505,-2.701,-2.751,-2.8179,-2.8431,-2.851,-2.851,-2.851,-2.8578,-2.8724,-2.8724,-2.8803,-2.8973,-2.9118,-2.9263,-2.9263,-2.9263,-2.9341,-2.9341,-2.9341,-2.9521,0.0,0.0,0.0,-1.5144,0.0,0.0,0.0,-1.6857,-1.6958,0.0,0.0,0.0,0.0,0.0,0.0,0.0,0.0,0.0,0.0,0.0,0.0,0.0,0.0,0.0,-1.5832,-1.5832,-1.5832,-1.5832,-1.5832,-1.6015,-1.6487,-1.7044,-1.7785,-1.8788,-1.9247,-1.9985,-2.0988,-2.0997,-2.1275,-2.1741,-2.1741,-2.1741,-2.1741,-2.1741,-2.1741,-2.1741,-2.1741,-2.1741,-2.1741,-2.1741,-2.1909,-2.2176,-2.182,-2.1741,-2.1741,-2.1741,-2.1741,-2.1741,-2.1741,-2.183,-2.1919,-2.2176,-2.2441,-2.2618,-2.2882,-2.3057,-2.3135,-2.3135,-2.3135,-2.3135,-2.3135,-2.3135,-2.3135,-2.3135,-2.3135,-2.3135,-2.3135,-2.3135,-2.3135,-2.3135,-2.3484,-2.3647,-2.3135,-2.3135,-2.3222,-2.3734,-2.382,-2.4155,-2.4988,-2.5158,-2.5495,-2.6412,-2.6928,-2.7348,-2.7846,-2.8259,-2.851,-2.851,-2.8578,-2.8724,-2.8791,-2.8882,-2.8973,-2.9131,-2.9275,-2.9419,-2.9419,-2.9509,-2.9599,-2.9599,-2.9599,-2.9689,0.0,0.0,0.0,0.0,0.0,-1.6109,0.0,0.0,0.0,-1.7807,0.0,0.0,0.0,0.0,0.0,0.0,0.0,0.0,0.0,0.0,0.0,0.0,0.0,0.0,0.0,-1.5832,-1.5832,-1.5832,-1.5832,-1.5832,-1.5832,-1.6574,-1.7138,-1.7326,-1.8056,-1.908,-2.0192,-2.0076,-2.0555,-2.1697,-2.1482,-2.1553,-2.1741,-2.1741,-2.1741,-2.1741,-2.1741,-2.1741,-2.1741,-2.1741,-2.1741,-2.1741,-2.1741,-2.1741,-2.1741,-2.1741,-2.1741,-2.1741,-2.1741,-2.1919,-2.2097,-2.2185,-2.2539,-2.2882,-2.2882,-2.2969,-2.3135,-2.3135,-2.3135,-2.3135,-2.3135,-2.3135,-2.3135,-2.3135,-2.3135,-2.3135,-2.3135,-2.3135,-2.3135,-2.3309,-2.3983,-2.4241,-2.3222,-2.3387,-2.381,-2.4413,-2.4659,-2.5084,-2.5997,-2.608,-2.6163,-2.6329,-2.701,-2.7429,-2.7429,-2.8167,-2.8578,-2.8578,-2.8736,-2.8882,-2.887,-2.9131,-2.9209,-2.9209,-2.9353,-2.9509,-2.9509,-2.9689,-2.9792,-2.9792,-2.9792,-2.9792,0.0,0.0,0.0,0.0,-1.5785,0.0,0.0,0.0,-1.677,-1.677,0.0,-1.8048,-1.8149,0.0,0.0,0.0,0.0,0.0,0.0,0.0,0.0,0.0,0.0,0.0,0.0,-1.5832,-1.5832,-1.5832,-1.5832,-1.5832,-1.5832,-1.5927,-1.6393,-1.7232,-1.7419,-1.8202,-1.9862,-1.9304,-1.987,-2.1681,-2.0879,-2.0898,-2.1741,-2.1741,-2.1741,-2.1741,-2.1741,-2.1741,-2.1741,-2.1741,-2.1741,-2.1741,-2.1741,-2.1741,-2.1741,-2.1741,-2.1741,-2.1731,-2.2008,-2.2097,-2.2185,-2.2627,-2.2882,-2.3057,-2.3057,-2.3047,-2.3135,-2.3135,-2.3135,-2.3135,-2.3135,-2.3135,-2.3135,-2.3135,-2.3135,-2.3135,-2.3135,-2.3135,-2.3309,-2.4155,-2.4413,-2.4241,-2.3222,-2.4392,-2.5242,-2.4573,-2.5158,-2.5997,-2.6928,-2.701,-2.7348,-2.8087,-2.8259,-2.8339,-2.8339,-2.8578,-2.8803,-2.8803,-2.8961,-2.9118,-2.9341,-2.9611,-2.9714,-2.9714,-2.9702,-2.9779,-2.9779,-2.9792,-2.9792,-2.9792,-2.9792,-2.9792,0.0,0.0,0.0,0.0,0.0,0.0,0.0,0.0,-1.787,0.0,0.0,0.0,0.0,0.0,0.0,0.0,-1.9774,0.0,0.0,0.0,0.0,0.0,0.0,0.0,0.0,0.0,0.0,0.0,-1.6857,-1.6857,-1.6676,-1.6109,-1.6015,-1.6393,-1.6393,-1.7059,-1.8311,-1.8635,-1.9463,-2.0914,-2.1024,-2.1365,-2.1741,-2.1741,-2.1741,-2.1741,-2.1741,-2.1741,-2.1741,-2.1741,-2.1741,-2.1741,-2.183,-2.183,-2.1741,-2.1741,-2.183,-2.1919,-2.2097,-2.2274,-2.2539,-2.2882,-2.3057,-2.3135,-2.3135,-2.3135,-2.3135,-2.3135,-2.3135,-2.3135,-2.3135,-2.3135,-2.3135,-2.3135,-2.3135,-2.3135,-2.3135,-2.356,-2.4069,-2.4413,-2.5337,-2.5757,-2.4819,-2.5326,-2.583,-2.6008,-2.634,-2.6928,-2.7846,-2.7926,-2.8099,-2.8431,-2.8578,-2.8657,-2.8657,-2.8895,-2.8961,-2.8961,-2.9197,-2.9353,-2.9611,-2.9702,-2.9792,-2.9792,-2.9792,-2.9792,-2.9792,-2.9792,-2.9792,-2.9792,-2.9792,-2.9792,-1.7412,0.0,0.0,0.0,0.0,0.0,0.0,0.0,0.0,0.0,0.0,0.0,0.0,0.0,-2.0766,-2.0669,0.0,-2.0606,0.0,0.0,0.0,0.0,0.0,0.0,0.0,0.0,0.0,-1.7777,-1.7956,-1.7963,-1.7692,-1.7037,-1.6662,-1.6662,-1.6662,-1.6835,-1.7468,-1.8319,-1.9455,-2.0689,-2.1105,-2.1463,-2.1741,-2.1741,-2.1741,-2.1741,-2.1741,-2.1741,-2.1741,-2.1741,-2.1741,-2.1741,-2.2008,-2.2008,-2.183,-2.1909,-2.2008,-2.2185,-2.2274,-2.2539,-2.2882,-2.3047,-2.3135,-2.3135,-2.3135,-2.3135,-2.3135,-2.3135,-2.3135,-2.3135,-2.3135,-2.3135,-2.3135,-2.3135,-2.3135,-2.3135,-2.3232,-2.3897,-2.4648,-2.4999,-2.6329,-2.7244,-2.6812,-2.6577,-2.6753,-2.7174,-2.7429,-2.7846,-2.8578,-2.859,-2.8578,-2.8669,-2.8816,-2.8882,-2.8882,-2.9052,-2.9209,-2.93,-2.9443,-2.9599,-2.9792,-2.9792,-2.9792,-2.9792,-2.9792,-2.9934,-3.0062,-3.0062,-3.0216,-3.0444,-3.0011,-2.9792,0.0,0.0,0.0,-1.6683,0.0,0.0,0.0,0.0,-1.9063,0.0,0.0,0.0,0.0,-2.2091,-2.2318,-2.1909,-2.2181,0.0,0.0,0.0,0.0,0.0,0.0,0.0,0.0,0.0,0.0,-1.9039,-1.9039,-1.8956,-1.8788,-1.8696,-1.8696,-1.8696,-1.8696,-1.8372,-1.7811,-1.8464,-1.9787,-2.1608,-2.0788,-2.0808,-2.1741,-2.1741,-2.1741,-2.1741,-2.1741,-2.1741,-2.1741,-2.1741,-2.1741,-2.1741,-2.2008,-2.2097,-2.2097,-2.2353,-2.2353,-2.2441,-2.2715,-2.2882,-2.3057,-2.3135,-2.3135,-2.3135,-2.3135,-2.3135,-2.3135,-2.3135,-2.3135,-2.3135,-2.3135,-2.3135,-2.3135,-2.3135,-2.3135,-2.3135,-2.3406,-2.4145,-2.5126,-2.6224,-2.7139,-2.8051,-2.8882,-2.8657,-2.8167,-2.7557,-2.8075,-2.8578,-2.9052,-2.8882,-2.8882,-2.9052,-2.9052,-2.9052,-2.9052,-2.9263,-2.9509,-2.9792,-2.9792,-2.9792,-2.9792,-2.9792,-2.9792,-2.9792,-2.9792,-3.0139,-3.0895,-3.0895,-3.1267,-3.2015,-3.0508,-2.9792,0.0,0.0,-1.9795,-1.9803,0.0,0.0,0.0,0.0,0.0,0.0,0.0,0.0,0.0,-2.2351,-2.2373,-2.1953,-2.2002,-2.2207,0.0,0.0,0.0,0.0,0.0,0.0,0.0,0.0,0.0,-2.0141,-2.0051,-1.996,-1.9795,-1.9155,-1.8788,-1.8788,-1.8788,-1.868,-1.8456,-1.9322,-2.0102,-2.0797,-2.1114,-2.1365,-2.1741,-2.1741,-2.1741,-2.1741,-2.1741,-2.1741,-2.1741,-2.1741,-2.183,-2.2008,-2.2176,-2.2441,-2.2539,-2.2441,-2.253,-2.2706,-2.2882,-2.3057,-2.3135,-2.3135,-2.3135,-2.3135,-2.3135,-2.3135,-2.3135,-2.3135,-2.3135,-2.3135,-2.3135,-2.3135,-2.3135,-2.3135,-2.3232,-2.357,-2.4221,-2.5221,-2.6224,-2.7139,-2.8051,-2.8712,-2.9052,-2.8973,-2.8816,-2.8554,-2.8724,-2.8973,-2.9052,-2.9052,-2.904,-2.9131,-2.9197,-2.9275,-2.9275,-2.9521,-2.9908,-3.0482,-3.0558,-3.0771,-3.1294,-3.1294,-3.1294,-3.1294,-3.1294,-3.1429,-3.1709,-3.1709,-3.1856,-3.2074,-3.1576,-3.1294,-2.0158,-2.0529,0.0,-2.0808,-2.0727,0.0,-2.0988,0.0,0.0,0.0,0.0,0.0,0.0,0.0,-2.2144,-2.2506,-2.2329,-2.2413,0.0,-2.4191,-2.4589,0.0,0.0,0.0,0.0,0.0,-2.2444,-2.1676,-2.1667,-2.1498,0.0,0.0,-1.9803,-1.9803,-1.9803,-1.9803,-1.9803,-2.0439,-2.0808,-2.0808,-2.1365,-2.1741,-2.1741,-2.1741,-2.1741,-2.1741,-2.1741,-2.1741,-2.1741,-2.1741,-2.183,-2.2097,-2.2353,-2.253,-2.2794,-2.2706,-2.2794,-2.2969,-2.3057,-2.3135,-2.3135,-2.3135,-2.3135,-2.3135,-2.3135,-2.3135,-2.3135,-2.3135,-2.3135,-2.3135,-2.3135,-2.3135,-2.3222,-2.3637,-2.3927,-2.4454,-2.5316,-2.6295,-2.729,-2.7879,-2.8712,-2.9378,-2.9378,-2.9378,-2.93,-2.9209,-2.9131,-2.9131,-2.93,-2.9287,-2.9209,-2.9378,-2.9443,-2.9664,-2.9935,-3.033,-3.0784,-3.1267,-3.1341,-3.1563,-3.2074,-3.2074,-3.2074,-3.2074,-3.2074,-3.2218,-3.2506,-3.2506,-3.2648,-3.296,-3.296,-3.296]}]]